[[{"header":{"parameterUnit":"m.s-1","parameterCategory":1,"la1":30.6,"la2":29.2853,"lo1":-89.7004,"lo2":-87.6739,"dy":0.0162,"dx":0.0183,"nx":112,"ny":82,"refTime":"2023-07-10T12:00:00:Z","depth":0,"parameterNumber":2,"parameterNumberName":"U-component_of_WINDS"},"data":[0.0,0.0,0.0,0.0,0.0,0.0,0.0,0.0,0.0,0.0,0.0,0.0,0.0,0.0,0.0,0.0,0.0,0.0,0.0,0.0,0.0,0.0,0.0,0.0,0.0,0.0,0.0,0.0,0.0,0.0,0.0,0.0,0.0,0.0,0.0,0.0,0.0,0.0,0.0,0.0,0.0,0.0,0.0,0.0,0.0,0.0,0.0,0.0,0.0,0.0,0.0,0.0,0.0,0.0,0.0,0.0,0.0,0.0,0.0,0.0,0.0,0.0,0.0,0.0,0.0,0.0,0.0,0.0,0.0,0.0,0.0,0.0,0.0,0.0,0.0,0.0,0.0,0.0,0.0,0.0,0.0,0.0,0.0,0.0,0.0,0.0,0.0,0.0,0.0,0.0,0.0,-3.7838,-3.7905,-3.7652,-3.7032,-3.688,-3.6552,-3.5988,0.0,0.0,0.0,0.0,0.0,0.0,0.0,0.0,0.0,0.0,0.0,0.0,0.0,0.0,0.0,0.0,0.0,0.0,0.0,0.0,0.0,0.0,0.0,0.0,0.0,0.0,0.0,0.0,0.0,0.0,0.0,0.0,0.0,0.0,0.0,0.0,0.0,0.0,0.0,0.0,0.0,0.0,0.0,0.0,0.0,0.0,0.0,0.0,0.0,0.0,0.0,0.0,0.0,0.0,0.0,0.0,0.0,0.0,0.0,0.0,0.0,0.0,0.0,0.0,0.0,0.0,0.0,0.0,0.0,0.0,0.0,0.0,0.0,0.0,0.0,0.0,0.0,0.0,0.0,0.0,0.0,0.0,0.0,0.0,0.0,0.0,0.0,0.0,0.0,0.0,0.0,0.0,0.0,0.0,0.0,0.0,0.0,0.0,0.0,0.0,0.0,0.0,0.0,0.0,-3.7787,-3.7889,-3.7905,-3.7855,-3.7736,-3.7144,-3.7015,-3.7533,0.0,0.0,0.0,0.0,0.0,0.0,0.0,0.0,0.0,0.0,0.0,0.0,0.0,0.0,0.0,0.0,0.0,0.0,0.0,0.0,0.0,0.0,0.0,0.0,0.0,0.0,0.0,0.0,0.0,0.0,0.0,0.0,0.0,0.0,0.0,0.0,0.0,0.0,0.0,0.0,0.0,0.0,0.0,0.0,0.0,0.0,0.0,0.0,0.0,0.0,0.0,0.0,0.0,0.0,0.0,0.0,0.0,0.0,0.0,0.0,0.0,0.0,0.0,0.0,0.0,0.0,0.0,0.0,0.0,0.0,0.0,0.0,0.0,0.0,0.0,0.0,0.0,0.0,0.0,0.0,0.0,0.0,0.0,0.0,0.0,0.0,0.0,0.0,0.0,0.0,0.0,0.0,0.0,0.0,0.0,0.0,0.0,0.0,0.0,0.0,0.0,0.0,0.0,-3.8497,-3.865,-3.9039,-3.9089,-3.892,-3.8531,-3.8176,-3.7956,-3.7905,-3.6857,0.0,0.0,0.0,0.0,0.0,0.0,0.0,0.0,0.0,0.0,0.0,0.0,0.0,0.0,0.0,0.0,0.0,0.0,0.0,0.0,0.0,0.0,0.0,0.0,0.0,0.0,0.0,0.0,0.0,0.0,0.0,0.0,0.0,0.0,0.0,0.0,0.0,0.0,0.0,0.0,0.0,0.0,0.0,0.0,0.0,0.0,0.0,0.0,0.0,0.0,0.0,0.0,0.0,0.0,0.0,0.0,0.0,0.0,0.0,0.0,0.0,0.0,0.0,0.0,0.0,0.0,0.0,0.0,0.0,0.0,0.0,0.0,0.0,0.0,0.0,0.0,0.0,0.0,0.0,0.0,0.0,0.0,0.0,0.0,0.0,0.0,0.0,0.0,0.0,0.0,0.0,0.0,0.0,0.0,0.0,0.0,0.0,0.0,0.0,0.0,0.0,0.0,-3.9242,-3.9486,-4.0045,-4.0096,-3.9876,-3.9292,-3.9089,-3.8819,-3.8447,-3.7405,0.0,0.0,0.0,0.0,0.0,0.0,0.0,0.0,0.0,0.0,0.0,0.0,0.0,0.0,0.0,0.0,0.0,0.0,0.0,0.0,0.0,0.0,0.0,0.0,0.0,0.0,0.0,0.0,0.0,0.0,0.0,0.0,0.0,0.0,0.0,0.0,0.0,0.0,0.0,0.0,0.0,0.0,0.0,0.0,0.0,0.0,0.0,0.0,0.0,0.0,0.0,0.0,0.0,0.0,0.0,0.0,0.0,0.0,0.0,0.0,0.0,0.0,0.0,0.0,0.0,0.0,0.0,0.0,0.0,0.0,0.0,0.0,0.0,0.0,0.0,0.0,0.0,0.0,0.0,0.0,0.0,0.0,0.0,0.0,0.0,0.0,0.0,0.0,0.0,0.0,0.0,0.0,0.0,0.0,0.0,0.0,0.0,0.0,0.0,0.0,0.0,0.0,-4.0028,-4.0045,-4.0096,-4.0096,-4.0079,-4.0028,-3.9377,-3.9259,-3.991,-3.7963,0.0,0.0,0.0,0.0,0.0,0.0,0.0,0.0,0.0,0.0,0.0,0.0,0.0,0.0,0.0,0.0,0.0,0.0,0.0,0.0,0.0,0.0,0.0,0.0,0.0,0.0,0.0,0.0,0.0,0.0,0.0,0.0,0.0,0.0,0.0,0.0,0.0,0.0,0.0,0.0,0.0,0.0,0.0,0.0,0.0,0.0,0.0,0.0,0.0,0.0,0.0,0.0,0.0,0.0,0.0,0.0,0.0,0.0,0.0,0.0,0.0,0.0,0.0,0.0,0.0,0.0,0.0,0.0,0.0,0.0,0.0,0.0,0.0,0.0,0.0,0.0,0.0,0.0,0.0,0.0,0.0,0.0,0.0,0.0,0.0,0.0,0.0,0.0,0.0,0.0,0.0,0.0,0.0,0.0,0.0,0.0,0.0,0.0,0.0,0.0,0.0,0.0,-4.0096,-4.0096,0.0,-4.0096,-4.0096,-4.0096,-3.9859,-3.9808,-4.0079,0.0,0.0,0.0,0.0,0.0,0.0,0.0,0.0,0.0,0.0,0.0,0.0,0.0,0.0,0.0,0.0,0.0,0.0,0.0,0.0,0.0,0.0,0.0,0.0,0.0,0.0,0.0,0.0,0.0,0.0,0.0,0.0,0.0,0.0,0.0,0.0,0.0,0.0,0.0,0.0,0.0,0.0,0.0,0.0,0.0,0.0,0.0,0.0,0.0,0.0,0.0,0.0,0.0,0.0,0.0,0.0,0.0,0.0,0.0,0.0,0.0,0.0,0.0,0.0,0.0,0.0,0.0,0.0,0.0,0.0,0.0,0.0,0.0,0.0,0.0,0.0,0.0,0.0,0.0,0.0,0.0,0.0,0.0,0.0,0.0,0.0,0.0,0.0,0.0,0.0,0.0,0.0,0.0,0.0,0.0,0.0,0.0,0.0,0.0,0.0,0.0,0.0,-4.0045,-4.0096,-4.0096,0.0,-4.0096,-4.0096,-4.0096,-4.0096,-4.0096,-4.0096,0.0,0.0,0.0,0.0,0.0,0.0,0.0,0.0,0.0,0.0,0.0,0.0,0.0,0.0,0.0,0.0,0.0,0.0,0.0,0.0,0.0,0.0,0.0,0.0,0.0,0.0,0.0,0.0,0.0,0.0,0.0,0.0,0.0,0.0,0.0,0.0,0.0,0.0,0.0,0.0,0.0,0.0,0.0,0.0,0.0,0.0,0.0,0.0,0.0,0.0,0.0,0.0,0.0,0.0,0.0,0.0,0.0,0.0,0.0,0.0,0.0,0.0,0.0,0.0,0.0,0.0,0.0,0.0,0.0,0.0,0.0,0.0,0.0,0.0,0.0,0.0,0.0,0.0,0.0,0.0,0.0,0.0,0.0,0.0,0.0,0.0,0.0,0.0,0.0,0.0,0.0,0.0,0.0,0.0,0.0,0.0,0.0,0.0,0.0,0.0,0.0,0.0,-4.0096,-4.0096,-4.0096,-4.0096,-4.0096,-4.0096,-4.0096,-4.0096,-4.0096,0.0,0.0,0.0,0.0,0.0,0.0,0.0,0.0,0.0,0.0,0.0,0.0,0.0,0.0,0.0,0.0,0.0,0.0,0.0,0.0,0.0,0.0,0.0,0.0,0.0,0.0,0.0,0.0,0.0,0.0,0.0,0.0,0.0,0.0,0.0,0.0,0.0,0.0,0.0,0.0,0.0,0.0,0.0,0.0,0.0,0.0,0.0,0.0,0.0,0.0,0.0,0.0,0.0,0.0,0.0,0.0,0.0,0.0,0.0,0.0,0.0,0.0,0.0,0.0,0.0,0.0,0.0,0.0,0.0,0.0,0.0,0.0,0.0,0.0,0.0,0.0,0.0,0.0,0.0,0.0,0.0,0.0,0.0,0.0,0.0,0.0,0.0,0.0,0.0,0.0,0.0,0.0,0.0,0.0,0.0,0.0,0.0,0.0,0.0,0.0,0.0,0.0,0.0,-4.0096,-4.0096,-4.0096,-4.0096,-4.0096,-4.0096,-4.0096,-4.0096,-4.0096,-4.0096,0.0,0.0,0.0,0.0,0.0,0.0,0.0,0.0,0.0,0.0,0.0,0.0,0.0,0.0,0.0,0.0,0.0,0.0,0.0,0.0,0.0,0.0,0.0,0.0,0.0,0.0,0.0,0.0,0.0,0.0,0.0,0.0,0.0,0.0,0.0,0.0,0.0,0.0,0.0,0.0,0.0,0.0,0.0,0.0,0.0,0.0,0.0,0.0,0.0,0.0,0.0,0.0,0.0,0.0,0.0,0.0,0.0,0.0,0.0,0.0,0.0,0.0,0.0,0.0,0.0,0.0,0.0,0.0,0.0,0.0,0.0,0.0,0.0,0.0,0.0,0.0,0.0,0.0,0.0,0.0,0.0,0.0,0.0,0.0,0.0,0.0,0.0,0.0,0.0,0.0,0.0,0.0,0.0,0.0,0.0,0.0,0.0,0.0,0.0,0.0,0.0,0.0,-4.0096,-4.0096,-4.0096,-4.0096,-4.0096,-4.0096,-4.0096,-4.0096,-4.0096,-4.0096,0.0,0.0,0.0,0.0,0.0,0.0,0.0,0.0,0.0,0.0,0.0,0.0,0.0,0.0,0.0,0.0,0.0,0.0,0.0,0.0,0.0,0.0,0.0,0.0,0.0,0.0,0.0,0.0,0.0,0.0,0.0,0.0,0.0,0.0,0.0,0.0,0.0,0.0,0.0,0.0,0.0,0.0,0.0,0.0,0.0,0.0,0.0,0.0,0.0,0.0,0.0,0.0,0.0,0.0,0.0,0.0,0.0,0.0,0.0,0.0,0.0,0.0,0.0,0.0,0.0,0.0,0.0,0.0,0.0,0.0,0.0,0.0,0.0,0.0,0.0,0.0,0.0,0.0,0.0,0.0,0.0,0.0,0.0,0.0,0.0,0.0,0.0,0.0,0.0,0.0,0.0,0.0,0.0,0.0,0.0,0.0,0.0,0.0,0.0,0.0,0.0,0.0,-4.0197,-4.0197,-4.0231,-4.0299,-4.0299,-4.0282,-4.0214,-4.0197,-4.018,-4.0096,0.0,0.0,0.0,0.0,0.0,0.0,0.0,0.0,0.0,0.0,0.0,0.0,0.0,0.0,0.0,0.0,0.0,0.0,0.0,0.0,0.0,0.0,0.0,0.0,0.0,0.0,0.0,0.0,0.0,0.0,0.0,0.0,0.0,0.0,0.0,0.0,0.0,0.0,0.0,0.0,0.0,0.0,0.0,0.0,0.0,0.0,0.0,0.0,0.0,0.0,0.0,0.0,0.0,0.0,0.0,0.0,0.0,0.0,0.0,0.0,-4.1948,0.0,0.0,0.0,0.0,0.0,0.0,0.0,0.0,0.0,0.0,0.0,0.0,0.0,0.0,0.0,0.0,0.0,0.0,0.0,0.0,0.0,0.0,0.0,0.0,0.0,0.0,0.0,0.0,0.0,0.0,0.0,0.0,0.0,0.0,0.0,0.0,0.0,0.0,0.0,0.0,0.0,-4.0882,-4.0967,-4.1187,-4.1762,-4.1839,-4.1593,-4.1018,-4.0967,-4.0713,-4.0146,0.0,0.0,0.0,0.0,0.0,0.0,0.0,0.0,0.0,0.0,0.0,0.0,0.0,0.0,0.0,0.0,0.0,0.0,0.0,0.0,0.0,0.0,0.0,0.0,0.0,0.0,0.0,0.0,0.0,0.0,0.0,0.0,0.0,0.0,0.0,0.0,0.0,0.0,0.0,0.0,0.0,0.0,0.0,0.0,0.0,0.0,0.0,0.0,0.0,0.0,0.0,0.0,0.0,0.0,0.0,0.0,0.0,0.0,0.0,0.0,0.0,-4.1801,0.0,0.0,0.0,0.0,0.0,0.0,0.0,0.0,0.0,0.0,0.0,0.0,0.0,0.0,0.0,0.0,0.0,0.0,0.0,0.0,0.0,0.0,0.0,0.0,0.0,0.0,0.0,0.0,0.0,0.0,0.0,0.0,0.0,0.0,0.0,0.0,0.0,0.0,0.0,0.0,-4.1677,-4.1728,-4.188,-4.2252,-4.2286,-4.2134,-4.1762,-4.1728,-4.1407,-4.0663,-4.0337,0.0,0.0,0.0,0.0,0.0,0.0,0.0,0.0,0.0,0.0,0.0,0.0,0.0,0.0,0.0,0.0,0.0,0.0,0.0,0.0,0.0,0.0,0.0,0.0,0.0,0.0,0.0,0.0,0.0,0.0,0.0,0.0,0.0,0.0,0.0,0.0,0.0,0.0,0.0,0.0,0.0,0.0,0.0,0.0,0.0,0.0,0.0,0.0,0.0,0.0,0.0,0.0,0.0,0.0,0.0,-4.2841,-4.3657,-4.3892,-4.3634,-4.2415,-4.185,-4.1782,0.0,0.0,0.0,0.0,0.0,0.0,0.0,0.0,0.0,0.0,0.0,0.0,0.0,0.0,0.0,0.0,0.0,0.0,0.0,0.0,0.0,0.0,0.0,0.0,0.0,-4.0197,-4.0299,0.0,0.0,0.0,0.0,0.0,0.0,0.0,0.0,0.0,0.0,0.0,0.0,-4.2472,-4.2489,-4.254,-4.2675,-4.2692,-4.2625,-4.2489,-4.2489,-4.2185,-4.1441,-4.115,-4.0587,0.0,0.0,0.0,0.0,0.0,0.0,0.0,0.0,0.0,0.0,0.0,0.0,0.0,0.0,0.0,0.0,0.0,0.0,0.0,0.0,0.0,0.0,0.0,0.0,0.0,0.0,0.0,0.0,0.0,0.0,0.0,0.0,-4.0365,-4.042,0.0,0.0,0.0,0.0,0.0,0.0,0.0,0.0,0.0,0.0,0.0,0.0,0.0,0.0,-4.3581,-4.3558,-4.346,-4.3234,-4.3266,-4.3246,-4.3221,-4.3294,-4.3296,-4.3272,-4.3064,0.0,-4.3234,-4.3353,0.0,0.0,0.0,0.0,0.0,0.0,0.0,0.0,0.0,0.0,0.0,0.0,0.0,0.0,0.0,0.0,0.0,0.0,0.0,0.0,0.0,0.0,-4.0096,-4.0096,-4.0578,-4.1052,0.0,-4.0544,-4.0096,-4.0096,0.0,0.0,0.0,0.0,0.0,0.0,0.0,0.0,-4.3156,-4.324,-4.3521,-4.4225,-4.431,-4.3995,-4.3291,-4.324,-4.2946,-4.2202,-4.1067,-4.0575,-4.0922,-3.8681,0.0,0.0,0.0,0.0,0.0,0.0,0.0,0.0,0.0,0.0,0.0,0.0,0.0,0.0,0.0,0.0,0.0,0.0,0.0,0.0,0.0,0.0,0.0,0.0,0.0,0.0,0.0,0.0,0.0,-4.0575,-4.0794,-4.1258,-4.1455,-4.1638,0.0,0.0,0.0,0.0,0.0,0.0,0.0,0.0,0.0,-4.3435,-4.3366,-4.3599,-4.4192,-4.4125,-4.4252,-4.4577,-4.4975,-4.5157,-4.5174,-4.5553,-4.5734,-4.5734,-4.5734,-4.5769,-4.5736,-4.4138,-4.3506,-4.3561,0.0,0.0,0.0,0.0,0.0,-4.2279,-4.2213,0.0,0.0,0.0,0.0,0.0,0.0,0.0,0.0,0.0,0.0,0.0,0.0,0.0,0.0,-4.1348,-4.1576,-4.1813,-4.1813,-4.1559,-4.1348,0.0,-4.1593,-4.1813,-4.1813,0.0,0.0,0.0,0.0,0.0,-4.4028,-4.4062,-4.4198,-4.4564,-4.4615,-4.4479,-4.4096,-4.4062,-4.3586,-4.2434,-4.2166,-4.1476,-4.0188,-3.938,-3.8175,0.0,0.0,0.0,0.0,0.0,0.0,0.0,0.0,0.0,0.0,0.0,0.0,0.0,0.0,0.0,0.0,0.0,0.0,0.0,0.0,0.0,0.0,0.0,0.0,0.0,0.0,0.0,0.0,-4.1047,-4.123,-4.1831,-4.2103,-4.2237,0.0,0.0,0.0,0.0,0.0,0.0,-4.4302,-4.429,-4.4342,-4.446,-4.4369,-4.4651,-4.5295,-4.5217,-4.5441,-4.6,-4.6613,-4.6889,-4.6906,-4.7458,-4.7689,-4.7689,-4.7689,-4.7689,-4.7545,-4.5382,-4.4532,-4.4597,-4.4331,-4.4116,0.0,-4.3627,-4.3412,-4.3214,-4.3214,-4.3189,-4.3189,-4.3139,0.0,-4.2835,-4.2697,0.0,0.0,0.0,0.0,-4.2286,-4.2286,0.0,-4.2286,-4.2286,-4.2439,-4.2574,-4.2574,-4.2726,-4.276,0.0,-4.2439,-4.2574,-4.2574,0.0,0.0,0.0,0.0,-4.4615,-4.4615,-4.4615,-4.4615,-4.4615,-4.4615,-4.4615,-4.4615,-4.4615,-4.4148,-4.3015,-4.3071,-4.2283,-4.0439,-4.0114,-3.8987,-3.6821,0.0,0.0,0.0,0.0,0.0,0.0,0.0,0.0,0.0,0.0,0.0,0.0,0.0,0.0,0.0,0.0,0.0,0.0,0.0,0.0,0.0,0.0,0.0,0.0,0.0,0.0,0.0,0.0,0.0,-4.1626,-4.1736,0.0,0.0,0.0,0.0,-4.4178,-4.4117,-4.4319,-4.4909,-4.4823,-4.5306,-4.6516,-4.6541,-4.6869,-4.7527,-4.7545,-4.7534,-4.7569,-4.762,-4.762,-4.7638,-4.7672,-4.7689,-4.7689,-4.7689,-4.7689,-4.77,-4.7682,-4.7667,-4.7625,-4.6968,-4.6291,-4.5578,-4.474,-4.3944,-4.3279,-4.3214,-4.3189,-4.3164,-4.2979,-4.2732,-4.2515,-4.2515,-4.2409,0.0,0.0,-4.2286,-4.2286,-4.2286,-4.2286,-4.2286,-4.2286,-4.2844,-4.3325,-4.3325,-4.3944,-4.4056,0.0,-4.2878,-4.3325,-4.3325,0.0,-4.4547,-4.4547,-4.4581,-4.4615,-4.4615,-4.4615,-4.4615,-4.4615,-4.4615,-4.4615,-4.4615,-4.4615,-4.4553,-4.4491,-4.3213,-4.2665,-4.3164,-4.0586,-3.9172,-3.9221,-3.7534,0.0,0.0,0.0,0.0,0.0,0.0,0.0,0.0,0.0,0.0,0.0,0.0,0.0,0.0,0.0,0.0,0.0,0.0,0.0,0.0,0.0,0.0,0.0,0.0,0.0,0.0,0.0,0.0,-4.2324,-4.2399,0.0,0.0,-4.398,-4.4571,-4.5337,-4.5705,-4.6166,-4.6839,-4.6821,-4.6976,-4.7323,-4.7341,-4.7693,-4.8396,-4.8396,-4.8654,-4.9183,-4.9183,-4.9183,-4.9183,-4.9183,-4.9183,-4.9183,-4.9183,-4.9183,-4.9183,-4.924,-4.8653,-4.7738,-4.7499,-4.7249,-4.7007,-4.6677,-4.6374,-4.6132,-4.6079,-4.6096,-4.6096,-4.6025,-4.5792,-4.5527,-4.5527,-4.5377,-4.5196,-4.5196,-4.5196,-4.5196,-4.5196,-4.5196,-4.5196,-4.5196,-4.5399,-4.5585,-4.5585,-4.5805,-4.5838,-4.5297,-4.5026,-4.4891,-4.4891,-4.55,-4.6007,-4.6007,-4.6007,-4.6007,-4.6007,-4.6007,-4.6007,-4.6007,-4.6007,-4.5805,-4.5348,-4.5314,-4.4889,-4.3931,-4.3824,-4.3285,-4.216,-4.1042,-4.0091,-3.9293,-3.7589,-3.6522,0.0,0.0,0.0,0.0,0.0,0.0,0.0,0.0,0.0,0.0,0.0,0.0,0.0,0.0,0.0,0.0,0.0,0.0,0.0,0.0,0.0,0.0,0.0,0.0,0.0,0.0,-4.2289,-4.3079,-4.3412,-4.3869,-4.4606,-4.5292,-4.5963,-4.6714,-4.7056,-4.7523,-4.8221,-4.8218,-4.8301,-4.8476,-4.8493,-4.8717,-4.9189,-4.9189,-4.9465,-5.0011,-5.0011,-5.0011,-5.0011,-5.0011,-5.0011,-5.0011,-5.0011,-5.0011,-5.0011,-5.0011,-4.9407,-4.8493,-4.8493,-4.8321,-4.8051,-4.8051,-4.7896,-4.7689,-4.7689,-4.7662,-4.7634,-4.7561,-4.7347,-4.713,-4.7089,-4.6944,-4.6786,-4.6786,-4.6786,-4.6786,-4.6786,-4.6786,-4.6786,-4.6786,-4.6786,-4.6786,-4.6786,-4.6786,-4.6786,-4.6786,-4.6397,-4.6075,-4.6075,-4.6481,-4.6786,-4.6786,-4.6786,-4.6786,-4.6786,-4.6786,-4.6786,-4.6786,-4.6786,-4.6599,-4.6109,-4.6075,-4.5546,-4.4332,-4.4507,-4.3877,-4.2162,-4.1689,-4.0843,-3.9565,-3.7892,-3.6905,-3.6631,0.0,0.0,0.0,0.0,0.0,0.0,0.0,0.0,0.0,0.0,0.0,0.0,0.0,0.0,0.0,0.0,0.0,0.0,0.0,0.0,0.0,0.0,0.0,-4.2916,-4.2901,-4.3149,-4.3886,-4.4676,-4.5466,-4.6196,-4.6877,-4.757,-4.8295,-4.8107,-4.8273,-4.9,-4.8912,-4.9172,-4.9993,-5.0011,-5.0011,-5.0011,-5.0011,-5.0011,-5.0045,-5.0045,-5.0062,-5.008,-5.0045,-5.0045,-5.0045,-5.0011,-5.0011,-5.0011,-5.0011,-5.0011,-5.0011,-5.0011,-4.9528,-4.8827,-4.8827,-4.8379,-4.7758,-4.7758,-4.7675,-4.7534,-4.733,-4.7169,-4.7041,-4.6912,-4.6853,-4.6853,-4.6853,-4.6853,-4.6853,-4.6853,-4.6853,-4.6853,-4.6853,-4.6853,-4.6853,-4.6853,-4.6853,-4.6853,-4.6853,-4.6853,-4.6853,-4.6836,-4.6836,-4.6853,-4.6853,-4.6853,0.0,-4.6853,-4.6853,-4.6853,-4.6853,-4.6853,-4.6853,-4.6836,-4.6819,-4.6515,-4.5788,-4.5113,-4.437,-4.3549,-4.2558,-4.1409,-4.0177,-3.8549,-3.732,-3.6507,0.0,0.0,0.0,0.0,0.0,0.0,0.0,0.0,0.0,0.0,0.0,0.0,0.0,0.0,0.0,0.0,0.0,0.0,0.0,0.0,0.0,0.0,-4.3588,-4.3617,-4.412,-4.4746,-4.5477,-4.6291,-4.7081,-4.7871,-4.8513,-4.8932,-4.9151,-4.942,-4.9652,-4.986,-4.9752,-4.9786,-4.9993,-5.0011,-5.0011,-5.0011,-5.0011,-5.0287,-5.0804,-5.0804,-5.1097,-5.1597,-5.1045,-5.0804,-5.0787,-5.0235,-5.0011,-5.0011,-5.0011,-5.0011,-5.0011,-5.0011,-4.9873,-4.9683,-4.9683,-4.9545,-4.9373,-4.9373,-4.924,-4.9107,-4.9032,-4.8826,-4.8587,-4.8557,-4.8484,-4.8392,-4.8392,-4.8392,-4.8392,-4.8392,-4.8392,-4.8392,-4.8392,-4.8392,-4.8392,-4.8392,-4.8392,-4.8392,-4.8392,-4.8392,-4.824,-4.7699,-4.8054,-4.8392,-4.8392,0.0,0.0,-4.8392,-4.8392,-4.8392,-4.8392,-4.8392,-4.8189,-4.7648,-4.7614,-4.7293,0.0,-4.5828,-4.489,-4.3709,-4.2728,-4.123,-3.9139,-3.8678,-3.7996,0.0,0.0,0.0,0.0,0.0,0.0,0.0,0.0,0.0,0.0,0.0,0.0,0.0,0.0,0.0,0.0,0.0,0.0,0.0,0.0,0.0,0.0,-4.4941,-4.5098,-4.5765,-4.5694,-4.5951,-4.7039,-4.7871,-4.8538,-4.9012,-4.9599,-4.9955,-4.9955,-5.0098,-5.0189,-5.0189,-5.0374,-5.0476,-5.0476,-5.0769,-5.0925,-5.0925,-5.0925,-5.1149,-5.158,-5.158,-5.1804,-5.217,-5.174,-5.158,0.0,-5.1114,-5.0925,-5.0925,-5.0925,-5.0752,0.0,0.0,0.0,0.0,0.0,-5.0011,-5.0011,-5.0011,-4.9935,-4.9813,-4.9737,-4.956,-4.9381,-4.926,-4.9138,-4.9063,-4.9001,-4.9001,-4.9001,-4.9001,-4.9001,-4.9001,-4.9001,-4.9001,-4.9001,-4.9001,-4.9001,-4.9001,-4.9001,0.0,0.0,-4.8443,-4.8731,-4.9001,-4.9001,-4.9001,-4.9001,0.0,-4.9001,-4.9001,-4.9001,-4.9001,-4.8832,-4.8409,-4.8065,0.0,0.0,0.0,-4.5516,-4.4051,-4.2555,0.0,0.0,0.0,-3.8602,0.0,0.0,0.0,0.0,-3.6118,-3.5893,0.0,0.0,0.0,0.0,0.0,0.0,0.0,0.0,0.0,0.0,0.0,0.0,0.0,0.0,0.0,0.0,-4.6488,-4.6986,-4.8503,-4.7503,-4.7091,-4.846,-4.9346,-4.9846,-4.9846,-5.0326,-5.0612,-5.0612,-5.0456,-5.0339,-5.0339,0.0,0.0,0.0,0.0,-5.2188,-5.2188,-5.2188,-5.2239,-5.2326,-5.2326,-5.236,-5.2477,-5.236,-5.2326,-5.2326,-5.2222,-5.2188,-5.2188,-5.2188,-5.1791,-5.1149,-5.0321,-5.0011,-5.0011,-5.0011,-5.0011,0.0,0.0,0.0,0.0,-4.9755,-4.9679,-4.959,-4.929,-4.9199,-4.9138,-4.9032,-4.9001,-4.9001,-4.9001,-4.9001,-4.9001,-4.9001,-4.9001,-4.9001,-4.9001,-4.9001,-4.9001,-4.9001,-4.9001,-4.9001,-4.9001,-4.9001,-4.9001,-4.9001,-4.9001,0.0,-4.9001,-4.9001,-4.9001,-4.9001,0.0,0.0,-4.9001,-4.8338,-4.7894,-4.7919,-4.7145,-4.5974,-4.4386,-4.2275,-4.1036,-4.0739,-3.9889,-3.9125,-3.8497,-3.8497,-3.8212,-3.7629,-3.7479,-3.7404,0.0,0.0,0.0,0.0,0.0,0.0,0.0,0.0,0.0,0.0,0.0,0.0,0.0,0.0,0.0,-4.7061,-4.7678,-4.8398,-4.9346,-4.9205,-4.9118,-4.9416,-5.0171,-5.0662,-5.0662,-5.0758,-5.0846,-5.0846,-5.1085,-5.1245,-5.1245,-5.1729,0.0,-5.1981,-5.2119,-5.2188,-5.2188,-5.2188,-5.2546,-5.3166,0.0,0.0,-5.4046,-5.3442,-5.3166,-5.3132,-5.2494,-5.2188,-5.2188,-5.2188,-5.2101,-5.1843,-5.0528,-5.0011,-5.0011,-5.0011,-5.0011,-5.0011,-5.0011,-4.9889,-4.9737,-4.9708,-4.953,-4.929,-4.9229,-4.9107,0.0,-4.9001,-4.9001,-4.9001,-4.9001,-4.9001,-4.9001,-4.9001,-4.9001,-4.9001,-4.9001,-4.9001,-4.9001,-4.9001,-4.9001,-4.9001,-4.9001,-4.9001,-4.9001,-4.9001,-4.9001,-4.9001,-4.9001,-4.9001,-4.9001,-4.9001,-4.9001,-4.9001,-4.9001,-4.8338,-4.79,-4.7897,-4.6701,-4.5303,-4.3811,-4.2714,-4.1763,-4.0964,-4.0075,-3.9493,-3.923,-3.923,-3.9155,-3.9005,-3.7913,-3.7404,0.0,0.0,0.0,0.0,0.0,0.0,0.0,0.0,0.0,0.0,0.0,-4.5673,0.0,0.0,-4.7776,-4.8543,-4.8906,-4.9381,-5.0171,-5.0294,-5.0294,-5.0294,-5.0645,-5.0891,-5.0891,-5.1224,-5.1425,-5.136,-5.1817,-5.2091,-5.2091,-5.2542,-5.2835,-5.2909,-5.3197,-5.3356,-5.3356,-5.3356,-5.3563,-5.396,-5.396,-5.4149,-5.4494,-5.4132,-5.396,-5.3942,-5.3546,-5.3356,-5.3339,-5.2959,-5.2804,-5.2701,-5.1563,-5.089,-5.0562,-5.0562,-5.0321,-5.0011,-5.0011,-4.9935,-4.986,-4.986,-4.9666,-4.9441,-4.9381,-4.9229,-4.9094,-4.9032,-4.9001,-4.9001,-4.9001,-4.9001,-4.9001,-4.9001,-4.9001,-4.9001,-4.9001,-4.9001,-4.9001,-4.9001,-4.9001,-4.9001,-4.9001,-4.9001,-4.9001,-4.9001,-4.9001,-4.9001,-4.9001,-4.9001,-4.9001,-4.9001,-4.9001,-4.9001,-4.9001,-4.8338,-4.7754,-4.7372,-4.6334,-4.5387,-4.458,-4.3376,-4.2443,-4.1925,-4.0656,-4.0012,-3.9903,-3.9574,-3.9388,-3.9373,-3.8701,-3.8407,0.0,0.0,0.0,0.0,0.0,0.0,0.0,0.0,-4.5183,-4.4794,-4.5918,-4.6996,-4.6971,-4.8003,-4.9115,-4.9775,-4.9899,-5.018,-5.0803,-5.0891,-5.0891,-5.0891,-5.0891,-5.0943,-5.1101,-5.1663,-5.2001,-5.199,-5.2608,-5.2938,-5.2909,-5.3385,-5.3739,-5.3827,-5.4278,-5.4512,-5.4512,-5.4512,-5.4512,-5.4512,-5.4512,-5.4512,-5.4512,-5.4512,-5.4512,-5.4512,-5.4512,-5.4512,-5.446,-5.3873,-5.3615,-5.3546,-5.2908,-5.2218,-5.1545,-5.136,-5.0856,-5.0218,-5.0218,-5.0131,-5.0011,-4.9964,-4.9813,-4.9619,-4.9488,-4.932,-4.9138,-4.9032,-4.9001,-4.9001,-4.9001,-4.9001,-4.9001,-4.9001,-4.9001,-4.9001,-4.9001,-4.9001,-4.9001,-4.9001,-4.9001,-4.9001,-4.9001,-4.9001,-4.9001,-4.9001,-4.9001,-4.9001,-4.9001,-4.9001,-4.9001,-4.9001,-4.9001,-4.894,-4.8798,-4.8096,-4.7372,-4.6638,-4.6005,-4.5588,-4.5282,-4.3992,-4.3109,-4.2782,-4.1388,-4.0628,-4.0591,-4.0053,-3.9738,-3.9568,-3.9568,-3.9508,-4.402,-4.4231,0.0,-4.4233,-4.4605,-4.489,0.0,0.0,-4.6641,-4.6247,-4.7403,-4.841,-4.8309,-4.9003,-4.9618,-4.9706,-5.032,-5.0785,-5.0873,-5.0891,-5.0891,-5.0891,-5.0891,-5.1154,-5.1821,-5.1961,-5.2211,-5.2735,-5.3492,-5.3858,-5.3691,-5.4287,-5.4658,-5.4658,-5.4572,-5.4512,-5.4512,-5.4512,-5.4512,-5.4512,-5.4512,-5.4512,-5.4512,-5.4512,-5.4512,-5.4512,-5.4512,-5.4512,-5.4494,-5.4425,-5.4391,-5.4374,-5.4287,-5.3804,-5.3063,-5.2356,-5.1602,-5.0994,-5.0994,-5.0562,-4.9964,-4.9784,-4.9637,-4.9488,-4.929,-4.9138,-4.9032,-4.9001,-4.9001,-4.9001,-4.9001,-4.9001,-4.9001,-4.9001,-4.9001,-4.9001,-4.9001,-4.9001,-4.9001,-4.9001,-4.9001,-4.9001,-4.9001,-4.9001,-4.9001,-4.9001,-4.9001,-4.9001,-4.9001,-4.9001,-4.9001,-4.9001,-4.9001,-4.8719,-4.8096,-4.7355,-4.6604,-4.5877,-4.5733,-4.5316,-4.4449,-4.4314,-4.3753,-4.2728,-4.1965,-4.1483,-4.1265,-4.119,-4.0861,-4.0292,-4.0292,-3.9978,-4.4029,0.0,0.0,0.0,-4.5013,-4.5383,-4.6083,-4.682,-4.741,-4.7593,-4.851,-4.924,-4.9205,-4.9855,-5.0382,0.0,-5.0662,-5.0891,-5.0891,-5.0891,-5.1049,-5.1487,-5.154,-5.1663,-5.1979,-5.2822,-5.3403,-5.3591,-5.4308,-5.4685,-5.4504,-5.4682,-5.4797,-5.4797,-5.4606,-5.4718,-5.515,-5.515,-5.5391,-5.5839,-5.5839,-5.5839,-5.5822,-5.5357,-5.4925,-5.4512,-5.4512,-5.4512,-5.4512,-5.4512,-5.4512,-5.4512,-5.4512,-5.4322,-5.396,-5.3184,-5.2425,-5.1722,-5.1722,-5.1269,-5.0619,-5.0543,-5.0056,-4.9488,-4.9398,-4.9216,-4.9001,-4.9001,-4.9001,-4.9001,-4.9001,-4.9001,-4.9001,-4.9001,-4.9001,-4.9001,-4.9001,-4.9001,-4.9001,-4.9001,-4.9001,-4.9001,-4.9001,-4.9001,-4.9001,-4.9001,-4.9001,-4.9001,-4.9001,-4.9001,-4.9001,-4.9001,-4.9001,-4.8861,-4.8576,-4.7852,-4.7119,-4.6394,-4.5949,-4.5405,-4.4805,-4.4392,-4.4012,-4.3747,-4.2666,-4.2083,-4.1991,-4.1602,-4.1272,-4.0965,-4.0965,-4.0831,-4.4181,0.0,0.0,-4.5513,-4.5811,-4.6227,-4.7583,-4.8041,-4.8315,-4.8731,-4.9469,-5.0013,-5.0013,-5.0531,-5.0891,-5.0891,-5.0891,-5.0891,-5.0891,-5.0891,-5.1171,-5.1926,-5.2207,-5.2418,-5.2628,-5.3647,-5.4343,-5.4395,-5.4932,-5.5187,-5.5022,-5.4917,-5.4929,-5.5092,-5.4917,-5.5184,-5.5926,-5.5943,-5.6219,-5.6805,-5.6805,-5.6805,-5.6788,-5.6202,-5.5529,-5.4805,-5.4805,-5.4701,-5.4512,-5.4512,-5.4512,-5.4512,-5.4512,-5.4512,-5.4443,-5.3908,-5.3218,-5.2515,-5.2515,-5.2046,-5.1395,-5.1365,-5.0699,-4.9872,-4.9782,-4.9399,-4.9063,-4.9001,-4.9001,-4.9001,-4.9001,-4.9001,-4.9001,-4.9001,-4.9001,-4.9001,-4.9001,-4.9001,-4.9001,-4.9001,-4.9001,-4.9001,-4.9001,-4.9001,-4.9001,-4.9001,-4.9001,-4.9001,-4.9001,-4.9001,-4.9001,-4.9001,-4.9001,-4.9001,-4.9001,-4.8338,-4.7589,-4.6846,-4.6127,-4.5442,-4.4902,-4.4305,-4.4089,-4.4274,-4.3217,-4.2626,-4.2626,-4.2147,-4.1833,-4.1692,-4.1692,-4.1587,0.0,0.0,-4.598,-4.6608,-4.7055,-4.7538,-4.838,-4.9126,-4.9653,-4.9671,-5.0294,-5.0855,-5.0855,-5.0873,-5.0891,-5.0891,-5.0891,-5.0891,-5.0891,-5.0891,-5.1171,-5.1926,-5.2681,-5.3436,0.0,-5.4279,-5.4554,-5.5142,-5.5383,-5.5341,-5.5022,-5.4992,-5.5278,-5.5837,-5.5662,-5.596,-5.6753,-5.6753,-5.6788,-5.6805,-5.6805,-5.6805,-5.6805,-5.6771,-5.634,-5.5581,-5.5581,-5.5167,-5.4512,-5.4512,-5.4512,-5.4512,-5.4512,-5.4512,-5.4512,-5.4477,-5.4011,-5.3356,-5.3356,-5.2856,-5.2153,-5.2001,-5.1459,-5.078,-5.0475,-4.9824,-4.9168,-4.9032,-4.9001,-4.9001,-4.9001,-4.9001,-4.9001,-4.9001,-4.9001,-4.9001,-4.9001,-4.9001,-4.9001,-4.9001,-4.9001,-4.9001,-4.9001,-4.9001,-4.9001,-4.9001,-4.9001,-4.9001,-4.9001,-4.9001,-4.9001,-4.9001,-4.9001,-4.9001,-4.9001,-4.8338,-4.7589,-4.6846,-4.6127,-4.5274,-4.4358,-4.4127,-4.391,-4.3729,-4.3448,-4.326,-4.326,-4.3245,-4.2955,-4.2366,-4.2366,-4.2036,-4.5325,0.0,-4.6598,-4.7084,-4.7656,-4.8345,-4.9135,-4.9504,-4.9837,-5.0408,-5.0697,-5.0918,-5.1025,-5.0972,-5.0918,-5.1025,-5.0972,-5.0891,-5.0891,-5.1312,-5.1926,-5.2699,-5.3471,0.0,0.0,0.0,0.0,-5.5366,-5.5478,-5.5341,-5.5022,-5.5462,-5.5737,-5.5712,-5.6165,-5.6771,-5.7529,-5.7529,-5.7788,-5.8271,-5.8271,-5.8012,-5.7529,-5.7529,-5.7116,-5.6408,-5.6408,-5.596,-5.5236,-5.5236,-5.496,-5.4512,-5.4512,-5.4512,-5.4512,-5.4512,-5.4339,-5.4132,-5.4132,-5.3632,-5.3011,-5.295,-5.2341,-5.148,-5.0752,-5.0274,-4.9862,-4.9185,-4.9001,-4.9001,-4.9001,-4.9001,-4.9001,-4.9001,-4.9001,-4.9001,-4.9001,-4.9001,-4.9001,-4.9001,-4.9001,-4.9001,-4.9001,-4.9001,-4.9001,-4.9001,-4.9001,-4.9001,-4.9001,-4.9001,-4.9001,-4.9001,-4.9001,-4.9001,-4.9001,-4.875,-4.8113,-4.688,-4.6569,-4.5805,-4.4358,-4.4243,-4.405,-4.3729,-4.3596,-4.3463,-4.329,-4.329,-4.3185,-4.3015,-4.3015,-4.2895,-4.5946,-4.6634,-4.7269,-4.8043,-4.8573,-4.9135,-4.9943,-5.0145,-5.0259,-5.0785,-5.0945,-5.0998,-5.1079,-5.1079,-5.1061,-5.1158,-5.1105,-5.1025,-5.0972,-5.1622,-5.235,-5.3113,-5.384,0.0,0.0,0.0,0.0,-5.5507,-5.5507,-5.5464,-5.5405,-5.5844,-5.6209,-5.6426,-5.6926,-5.7547,-5.8288,-5.8288,-5.853,-5.9012,-5.9012,-5.8754,-5.8288,-5.8288,-5.7892,-5.7185,-5.7185,-5.6598,-5.5615,-5.5615,-5.5184,-5.4512,-5.4512,-5.4512,-5.4512,-5.4512,-5.4512,-5.4512,-5.4512,-5.4201,-5.3787,-5.3787,-5.3225,-5.2362,-5.1693,-5.1025,-5.0345,-4.9667,-4.9252,-4.9001,-4.9001,-4.9001,-4.9001,-4.9001,-4.9001,-4.9001,-4.9001,-4.9001,-4.9001,-4.9001,-4.9001,-4.9001,-4.9001,-4.9001,-4.9001,-4.9001,-4.9001,-4.9001,-4.9001,-4.9001,-4.9001,-4.9001,-4.9001,-4.9001,-4.9001,-4.9001,-4.8386,-4.688,-4.6811,-4.6076,-4.4458,-4.4358,-4.4127,-4.3793,-4.3729,-4.3557,-4.329,-4.329,-4.329,-4.329,-4.329,-4.329,-4.6488,-4.7233,-4.7995,-4.9363,-4.9741,-4.9969,-5.0715,-5.0891,-5.0873,-5.0865,-5.0946,-5.1052,0.0,0.0,-5.1245,-5.1281,-5.1298,-5.1246,-5.1105,-5.1713,-5.2443,0.0,0.0,0.0,0.0,0.0,0.0,-5.5507,0.0,-5.5674,-5.6102,-5.614,-5.6712,-5.7891,-5.7943,-5.8288,-5.9012,-5.9012,-5.9012,-5.9012,-5.9012,-5.9012,-5.9012,-5.9012,-5.8633,-5.7961,-5.7961,-5.7116,-5.5719,-5.5701,-5.5236,-5.4563,-5.4529,-5.4512,-5.4512,-5.4512,-5.4512,-5.4512,-5.4512,-5.4512,-5.4512,-5.4512,-5.4029,-5.3411,-5.3169,-5.1967,-5.0602,-5.0433,-4.9718,-4.9001,-4.9001,-4.9001,-4.9001,-4.9001,-4.9001,-4.9001,-4.9001,-4.9001,-4.9001,-4.9001,-4.9001,-4.9001,-4.9001,-4.9001,-4.9001,-4.9001,-4.9001,-4.9001,-4.9001,-4.9001,-4.9001,-4.9001,-4.9001,-4.9001,-4.9001,-4.9001,-4.8386,-4.688,-4.6811,-4.6147,-4.4648,-4.4435,-4.4205,-4.4026,-4.3793,-4.3596,-4.329,-4.329,-4.329,-4.329,-4.329,-4.329,-4.7032,-4.7819,-4.8494,-4.946,-5.0136,-5.0645,-5.0838,-5.0891,-5.0742,-5.0251,-5.018,-5.0258,0.0,0.0,0.0,-5.1192,-5.1141,0.0,-5.0945,-5.1595,0.0,-5.3113,0.0,-5.463,-5.5437,-5.5507,0.0,0.0,-5.5507,-5.5752,-5.6274,-5.6743,-5.7349,-5.8092,-5.8511,-5.8823,-5.9012,-5.9012,-5.9012,-5.9012,-5.9012,-5.9012,-5.9012,-5.9012,-5.8909,-5.8737,-5.8737,-5.8185,-5.7271,-5.6719,-5.6029,-5.527,-5.4718,-5.4512,-5.4512,-5.4512,-5.4512,-5.4512,-5.4512,-5.4512,-5.4512,-5.4512,-5.4374,-5.4052,-5.32,-5.2267,-5.1301,-5.0428,-4.9608,-4.9001,-4.9001,-4.9001,-4.9001,-4.9001,-4.9001,-4.9001,-4.9001,-4.9001,-4.9001,-4.9001,-4.9001,-4.9001,-4.9001,-4.9001,-4.9001,-4.9001,-4.9001,-4.9001,-4.9001,-4.9001,-4.9001,-4.9001,-4.9001,-4.9001,-4.9001,-4.9001,-4.8386,-4.688,-4.6811,-4.6147,-4.4648,-4.4549,-4.4358,-4.4026,-4.3949,-4.3699,-4.329,-4.329,-4.329,-4.329,-4.329,-4.329,-4.7555,-4.8256,-4.8819,-4.9925,-5.0584,-5.0812,-5.0532,-5.0471,-5.0268,-4.9605,-4.9454,0.0,0.0,0.0,0.0,0.0,0.0,0.0,-5.0998,-5.1605,-5.2378,0.0,-5.384,0.0,-5.5437,-5.5507,-5.5507,0.0,-5.5806,-5.6255,-5.6842,-5.7454,-5.8044,-5.866,-5.8874,-5.9012,-5.9012,-5.9012,-5.9012,-5.9012,-5.9012,-5.9012,-5.9012,-5.9012,-5.9012,-5.9012,0.0,-5.8581,-5.784,-5.7098,-5.634,-5.5546,-5.4805,-5.4512,-5.4512,-5.4512,-5.4512,-5.4512,-5.4512,-5.4512,-5.4512,-5.4512,-5.4512,-5.4362,-5.3678,-5.29,-5.2053,-5.1034,-5.0113,-4.9407,-4.9086,-4.9001,-4.9001,-4.9001,-4.9001,-4.9001,-4.9001,-4.9001,-4.9001,-4.9001,-4.9001,-4.9001,-4.9001,-4.9001,-4.9001,-4.9001,-4.9001,-4.9001,-4.9001,-4.9001,-4.9001,-4.9001,-4.9001,-4.9001,-4.9001,-4.9001,-4.8513,-4.7355,-4.6983,-4.6288,-4.5142,-4.4685,-4.432,-4.4026,-4.391,-4.366,-4.329,-4.329,-4.329,-4.329,-4.329,-4.329,-4.7949,-4.8556,-4.896,-5.0504,-5.0891,-5.0751,-5.0198,-4.9977,-4.9703,-4.9078,0.0,-4.8834,-4.9088,-4.9575,-5.0014,-5.0371,0.0,-5.1193,-5.1079,-5.1625,-5.231,-5.3113,-5.3752,-5.4507,-5.542,-5.5507,-5.5507,-5.5507,-5.6192,-5.6886,-5.752,-5.8099,-5.867,-5.925,-5.9081,-5.9012,-5.9012,-5.9012,-5.9012,-5.9012,-5.9012,-5.9012,-5.9012,-5.9012,-5.9012,-5.9012,0.0,0.0,-5.784,-5.7098,-5.634,-5.5546,-5.4805,-5.4512,-5.4512,-5.4512,-5.4512,-5.4512,-5.4512,-5.4512,-5.4512,-5.4512,-5.4512,-5.4463,-5.4271,-5.3597,-5.2684,-5.1758,-5.0835,-4.9915,-4.9187,-4.9001,-4.9001,-4.9001,-4.9001,-4.9001,-4.9001,-4.9001,-4.9001,-4.9001,-4.9001,-4.9001,-4.9001,-4.9001,-4.9001,-4.9001,-4.9001,-4.9001,-4.9001,-4.9001,-4.9001,-4.9001,-4.9001,-4.9001,-4.9001,-4.9001,-4.8688,-4.795,-4.7288,-4.6604,-4.5841,-4.5014,-4.4496,-4.4266,-4.4089,-4.3895,-4.363,-4.363,-4.3551,-4.3448,-4.3448,-4.3409,-4.8117,-4.8556,-4.8907,-5.0504,-5.0891,-5.0909,-5.0902,-5.0382,0.0,0.0,-4.8487,-4.8256,-4.9114,-4.9082,-4.9419,-5.0899,0.0,0.0,0.0,0.0,-5.1638,0.0,0.0,0.0,0.0,0.0,0.0,0.0,0.0,0.0,-5.7724,-5.8163,-5.8604,-5.9029,-5.9012,-5.9012,-5.9012,-5.9012,-5.9012,-5.9012,-5.9012,-5.9012,-5.9012,-5.9012,-5.9012,-5.9012,0.0,0.0,-5.784,-5.7098,-5.634,-5.5546,-5.4805,-5.4512,-5.4512,-5.4512,-5.4512,-5.4512,-5.4512,-5.4512,-5.4512,-5.4512,-5.4512,-5.4463,-5.4271,-5.3597,-5.2684,-5.1758,-5.0835,-4.9915,-4.9187,-4.9001,-4.9001,-4.9001,-4.9001,-4.9001,-4.9001,-4.9001,-4.9001,-4.9001,-4.9001,-4.9001,-4.9001,-4.9001,-4.9001,-4.9001,-4.9001,-4.9001,-4.9001,-4.9001,-4.9001,-4.9001,-4.9001,-4.9001,-4.9001,-4.9001,-4.8688,-4.795,-4.7787,-4.7305,-4.6413,-4.6202,-4.5969,-4.5676,-4.564,-4.5494,-4.5295,-4.5295,-4.4962,-4.4297,-4.4297,-4.3927,-4.7643,-4.7959,-4.831,-4.9872,-5.0259,-5.0207,-4.9985,0.0,0.0,0.0,-4.7565,-4.7441,-4.7915,0.0,0.0,0.0,0.0,0.0,0.0,0.0,0.0,0.0,0.0,0.0,0.0,0.0,0.0,0.0,0.0,0.0,-5.7772,-5.8564,-5.9038,-5.8995,-5.9012,-5.9012,-5.9012,-5.9012,-5.9012,-5.9012,-5.9012,-5.9012,-5.9012,-5.9012,-5.9012,-5.9012,0.0,0.0,-5.784,-5.7098,-5.634,-5.5546,-5.4805,-5.4512,-5.4512,-5.4512,-5.4512,-5.4512,-5.4512,-5.4512,-5.4512,-5.4512,-5.4512,-5.4463,-5.4271,-5.3597,-5.2684,-5.1758,-5.0835,-4.9915,-4.9187,-4.9001,-4.9001,-4.9001,-4.9001,-4.9001,-4.9001,-4.9001,-4.9001,-4.9001,-4.9001,-4.9001,-4.9001,-4.9001,-4.9001,-4.9001,-4.9001,-4.9001,-4.9001,-4.9001,-4.9001,-4.9001,-4.9001,-4.9001,-4.9001,-4.9001,-4.8861,-4.8482,-4.8129,-4.7721,-4.7238,-4.6641,-4.6272,-4.6111,-4.5949,-4.5805,-4.5697,-4.5697,-4.5295,-4.451,-4.451,-4.4066,-4.7134,-4.7397,-4.7731,-4.91,-4.9434,-4.9354,-4.8993,-4.8778,0.0,0.0,-4.6925,-4.6849,-4.7026,0.0,-4.8119,0.0,0.0,0.0,0.0,0.0,0.0,0.0,0.0,0.0,0.0,0.0,0.0,0.0,0.0,0.0,0.0,-5.9018,-5.9437,-5.9081,-5.9012,-5.9012,-5.9012,-5.9012,-5.9012,-5.9012,-5.9012,-5.9012,-5.9012,-5.9012,-5.9012,-5.9012,0.0,0.0,0.0,-5.6857,-5.6081,-5.5322,-5.4736,-5.4512,-5.4512,-5.4512,-5.4512,-5.4512,-5.4512,-5.4512,-5.4512,-5.4512,-5.4512,-5.448,-5.4303,-5.3629,-5.2701,-5.1838,-5.0866,-4.9915,-4.9187,-4.9001,-4.9001,-4.9001,-4.9001,-4.9001,-4.9001,-4.9001,-4.9001,-4.9001,-4.9001,-4.9001,-4.9001,-4.9001,-4.9001,-4.9001,-4.9001,-4.9001,-4.9001,-4.9001,-4.9001,-4.9001,-4.9001,-4.9001,-4.9001,-4.9001,-4.9001,-4.9001,-4.845,-4.8129,-4.8096,-4.7238,-4.6726,-4.6622,-4.6359,-4.6234,-4.6198,-4.6198,-4.5805,-4.4983,-4.4849,-4.4335,-4.7043,-4.7397,-4.759,-4.8415,-4.86,-4.866,-4.8851,0.0,0.0,-4.8057,-4.7387,-4.7009,-4.7773,-4.7831,-4.8271,0.0,0.0,-5.0318,0.0,0.0,0.0,0.0,0.0,0.0,0.0,0.0,0.0,0.0,0.0,0.0,0.0,-5.9249,-5.9504,-5.9268,-5.9098,-5.9012,-5.9012,-5.9012,-5.9012,-5.9012,-5.9012,-5.9012,-5.9012,-5.9012,-5.9012,-5.8978,0.0,0.0,0.0,-5.6046,-5.5288,-5.4598,-5.4529,-5.4512,-5.4512,-5.4512,-5.4512,-5.4512,-5.4512,-5.4512,-5.4512,-5.4512,-5.4512,-5.4512,-5.448,-5.3724,-5.2733,-5.1996,-5.0961,-4.9915,-4.9187,-4.9001,-4.9001,-4.9001,-4.9001,-4.9001,-4.9001,-4.9001,-4.9001,-4.9001,-4.9001,-4.9001,-4.9001,-4.9001,-4.9001,-4.9001,-4.9001,-4.9001,-4.9001,-4.9001,-4.9001,-4.9001,-4.9001,-4.9001,-4.9001,-4.9001,-4.9001,-4.9001,-4.894,-4.8846,-4.8738,-4.8627,-4.8388,-4.8016,-4.7984,-4.7902,-4.7787,-4.7787,-4.7387,-4.6569,-4.5897,-4.5147,-4.6273,-4.657,-4.677,-4.7618,-4.7836,-4.7789,-4.7561,0.0,-4.7576,-4.6806,-4.6717,-4.6861,-4.711,-4.7115,-4.7446,-4.8635,0.0,0.0,0.0,0.0,0.0,0.0,0.0,0.0,0.0,0.0,0.0,0.0,0.0,0.0,0.0,-5.834,-5.9,-5.9301,-5.9081,-5.9012,-5.9012,-5.9012,-5.9012,-5.9012,-5.9012,-5.9012,-5.8995,-5.8547,-5.834,-5.8305,0.0,0.0,0.0,-5.5753,-5.5184,-5.4512,-5.4512,-5.4512,-5.4512,-5.4512,-5.4512,-5.4512,-5.4512,-5.4512,-5.4512,-5.4512,-5.4201,-5.3839,-5.3839,-5.3149,-5.2189,-5.1326,-5.0342,-4.948,-4.9117,-4.9001,-4.9001,-4.9001,-4.9001,-4.9001,-4.9001,-4.9001,-4.9001,-4.9001,-4.9001,-4.9001,-4.9001,-4.9001,-4.9001,-4.9001,-4.9001,-4.9001,-4.9001,-4.9001,-4.9001,-4.9001,-4.9001,-4.9001,-4.9001,-4.9001,-4.9001,-4.9001,-4.9001,-4.8987,-4.8909,-4.8721,-4.8547,-4.8388,-4.8179,-4.8049,-4.8001,-4.8001,-4.7588,-4.6777,-4.604,-4.5258,-4.576,-4.5972,-4.6112,-4.6755,-4.6821,-4.6586,0.0,0.0,-4.6519,-4.5521,-4.5912,-4.6417,-4.6259,-4.6478,-4.6927,-4.779,0.0,-4.8713,0.0,0.0,0.0,0.0,0.0,0.0,0.0,0.0,0.0,0.0,0.0,0.0,0.0,0.0,-5.8025,-5.8692,-5.8683,-5.8685,-5.8685,-5.8909,-5.8909,-5.8685,-5.8685,-5.8564,-5.834,-5.7823,-5.7581,0.0,0.0,0.0,0.0,-5.5374,-5.4977,-5.4512,-5.4512,-5.4512,-5.4512,-5.4512,-5.4512,-5.4512,-5.4512,-5.4512,-5.4477,-5.4253,-5.3822,-5.3322,-5.2873,-5.2217,-5.1545,-5.0874,-4.996,-4.9168,-4.9032,-4.9001,-4.9001,-4.9001,-4.9001,-4.9001,-4.9001,-4.9001,-4.9001,-4.9001,-4.9001,-4.9001,-4.9001,-4.9001,-4.9001,-4.9001,-4.9001,-4.9001,-4.9001,-4.9001,-4.9001,-4.9001,-4.9001,-4.9001,-4.9001,-4.9001,-4.9001,-4.9001,-4.9001,-4.9001,-4.9001,-4.8767,-4.861,-4.8515,-4.8276,-4.8099,-4.8001,-4.8001,-4.7704,-4.7118,-4.6147,-4.5147,-4.5621,-4.5897,-4.5795,-4.5812,-4.5421,-4.5069,0.0,-4.4873,-4.4543,-4.4599,-4.5138,-4.5577,-4.5421,-4.6152,-4.7039,-4.7694,-4.865,0.0,0.0,0.0,0.0,0.0,0.0,0.0,0.0,0.0,0.0,0.0,0.0,0.0,0.0,0.0,-5.6488,-5.7306,-5.7695,-5.7926,-5.7926,-5.865,-5.8633,-5.7926,-5.7926,-5.7529,-5.6822,-5.6805,0.0,0.0,0.0,0.0,0.0,-5.4822,-5.4512,-5.4512,-5.4512,-5.4512,-5.4512,-5.4512,-5.4512,-5.4512,-5.4512,-5.4512,-5.4391,-5.3649,-5.3408,-5.3115,-5.1597,-5.1012,-5.0892,-5.0922,-5.0068,-4.9168,-4.9032,-4.9001,-4.9001,-4.9001,-4.9001,-4.9001,-4.9001,-4.9001,-4.9001,-4.9001,-4.9001,-4.9001,-4.9001,-4.9001,-4.9001,-4.9001,-4.9001,-4.9001,-4.9001,-4.9001,-4.9001,-4.9001,-4.9001,-4.9001,-4.9001,-4.9001,-4.9001,-4.9001,-4.9001,-4.9001,-4.9001,-4.9001,-4.8846,-4.8515,-4.8483,-4.8324,-4.8001,-4.8001,-4.8001,-4.7968,-4.641,-4.4849,-4.4378,-4.4611,-4.4515,-4.4611,-4.4583,-4.4405,-4.401,-4.4205,-4.4383,-4.3939,-4.4716,-4.5468,-4.5404,-4.6035,-4.6808,-4.767,-4.8151,0.0,0.0,0.0,0.0,0.0,0.0,0.0,0.0,0.0,0.0,0.0,0.0,0.0,0.0,0.0,-5.5869,-5.7044,-5.7144,-5.715,-5.715,-5.7391,-5.7391,-5.715,-5.715,-5.7029,-5.6788,-5.6236,0.0,0.0,0.0,0.0,0.0,-5.4615,-5.4512,-5.4512,-5.4512,-5.4512,-5.4512,-5.4512,-5.4512,-5.4512,-5.4512,-5.4184,-5.3718,-5.3477,-5.2701,-5.1752,-5.1269,-5.1085,-5.0892,-5.0151,-4.9568,-4.9168,-4.9032,-4.9001,-4.9001,-4.9001,-4.9001,-4.9001,-4.9001,-4.9001,-4.9001,-4.9001,-4.9001,-4.9001,-4.9001,-4.9001,-4.9001,-4.9001,-4.9001,-4.9001,-4.9001,-4.9001,-4.9001,-4.9001,-4.9001,-4.9001,-4.9001,-4.9001,-4.9001,-4.9001,-4.9001,-4.9001,-4.9001,-4.8925,-4.8801,-4.8707,-4.8564,-4.8388,-4.8147,-4.8147,-4.7538,-4.6426,-4.5913,-4.4601,0.0,-4.3945,-4.378,-4.3916,-4.3849,0.0,0.0,-4.345,-4.3558,-4.3123,-4.409,-4.4974,-4.4974,-4.577,-4.6605,-4.7238,-4.7985,0.0,0.0,0.0,0.0,0.0,0.0,0.0,0.0,0.0,0.0,0.0,0.0,0.0,0.0,0.0,-5.5365,-5.6148,-5.6299,-5.6357,-5.6357,-5.665,-5.665,-5.6357,-5.6357,-5.6202,-5.5926,0.0,0.0,0.0,0.0,0.0,0.0,-5.4512,-5.4512,-5.4512,-5.4512,-5.4512,-5.4512,-5.4512,-5.4322,-5.408,-5.408,-5.3598,-5.2908,-5.2632,-5.1701,-5.0683,-5.0683,-5.0683,-5.0538,-4.9714,-4.9411,-4.926,-4.9063,-4.9001,-4.9001,-4.9001,-4.9001,-4.9001,-4.9001,-4.9001,-4.9001,-4.9001,-4.9001,-4.9001,-4.9001,-4.9001,-4.9001,-4.9001,-4.9001,-4.9001,-4.9001,-4.9001,-4.9001,-4.9001,-4.9001,-4.9001,-4.9001,-4.9001,-4.9001,-4.9001,-4.9001,-4.9001,-4.9001,-4.8925,-4.8832,-4.8818,-4.8675,-4.8515,-4.8324,-4.7993,-4.6947,-4.5279,-4.5279,-4.4405,0.0,-4.3734,0.0,0.0,0.0,0.0,-4.3006,-4.2654,0.0,-4.2358,-4.3415,-4.4342,-4.4355,-4.5505,-4.6464,-4.6637,0.0,0.0,0.0,0.0,0.0,0.0,0.0,0.0,0.0,0.0,0.0,0.0,0.0,0.0,0.0,0.0,0.0,-5.4842,-5.528,-5.5546,-5.5497,-5.6271,-5.6271,-5.5497,-5.5497,-5.5167,-5.4512,0.0,0.0,0.0,0.0,0.0,0.0,-5.4512,-5.4512,-5.4512,-5.4512,-5.4477,-5.4425,-5.4425,-5.396,-5.3322,-5.3322,-5.2804,-5.1981,-5.1269,-5.0562,-5.0011,-5.0011,-5.0011,-4.9935,-4.9607,-4.9518,-4.9411,-4.9094,-4.9001,-4.9001,-4.9001,-4.9001,-4.9001,-4.9001,-4.9001,-4.9001,-4.9001,-4.9001,-4.9001,-4.9001,-4.9001,-4.9001,-4.9001,-4.9001,-4.9001,-4.9001,-4.9001,-4.9001,-4.9001,-4.9001,-4.9001,-4.9001,-4.9001,-4.9001,-4.9001,-4.9001,-4.9001,-4.9001,-4.9001,-4.8923,-4.8733,-4.8652,-4.8524,-4.8333,-4.7523,-4.6253,-4.4592,-4.4592,-4.4194,-4.259,0.0,-4.2396,-4.2282,-4.2273,-4.2303,0.0,-4.2308,-4.2445,-4.2963,-4.3806,-4.4569,-4.4987,-4.5876,-4.6737,0.0,0.0,0.0,0.0,0.0,0.0,0.0,0.0,0.0,0.0,0.0,0.0,0.0,0.0,0.0,0.0,0.0,0.0,-5.5126,-5.5029,-5.4914,-5.477,-5.496,-5.496,-5.477,-5.477,-5.4684,-5.4512,0.0,0.0,0.0,0.0,0.0,0.0,-5.4512,-5.4512,-5.4512,-5.4512,-5.4167,-5.3667,-5.3667,-5.3166,-5.2494,-5.2494,-5.1981,-5.1252,-5.0511,-5.0149,-5.0011,-5.0011,-5.0011,-4.9935,-4.9725,-4.956,-4.9458,-4.9199,-4.9094,-4.9001,-4.9001,-4.9001,-4.9001,-4.9001,-4.9001,-4.9001,-4.9001,-4.9001,-4.9001,-4.9001,-4.9001,-4.9001,-4.9001,-4.9001,-4.9001,-4.9001,-4.9001,-4.9001,-4.9001,-4.9001,-4.9001,-4.9001,-4.9001,-4.9001,-4.9001,-4.9001,-4.9001,-4.9001,-4.9001,-4.8686,-4.7959,-4.7158,-4.6719,-4.6672,-4.6302,-4.5598,-4.4592,-4.4592,-4.3938,-4.2127,-4.2019,-4.2065,-4.2264,-4.2114,-4.2062,-4.248,-4.237,-4.2397,-4.307,-4.3606,-4.4219,-4.5123,0.0,0.0,0.0,0.0,0.0,0.0,0.0,0.0,0.0,0.0,0.0,0.0,0.0,0.0,0.0,0.0,0.0,0.0,0.0,0.0,0.0,-5.4992,-5.4793,-5.4655,-5.4543,-5.4512,-5.4512,-5.4512,-5.4512,-5.4512,0.0,0.0,0.0,0.0,0.0,-5.4512,-5.4512,-5.4305,-5.4011,-5.4011,-5.3529,-5.2856,-5.2856,-5.2373,-5.1718,-5.1718,-5.1218,-5.0545,-5.0131,-5.0011,-5.0011,-5.0011,-5.0011,-4.9964,-4.9755,-4.9649,-4.953,-4.926,-4.9138,-4.9094,-4.9001,-4.9001,-4.9001,-4.9001,-4.9001,-4.9001,-4.9001,-4.9001,-4.9001,-4.9001,-4.9001,-4.9001,-4.9001,-4.9001,-4.9001,-4.9001,-4.9001,-4.9001,-4.9001,-4.9001,-4.9001,-4.9001,-4.9001,-4.9001,-4.9001,-4.9001,-4.8849,-4.8528,-4.8511,-4.8048,-4.7184,-4.6582,-4.6049,-4.561,-4.5485,-4.4979,-4.4132,-4.4132,-4.3731,-4.2044,-4.1962,-4.2228,-4.2749,-4.2339,-4.2035,-4.2882,-4.2544,-4.2285,-4.3059,0.0,0.0,0.0,-4.5522,0.0,0.0,0.0,0.0,0.0,0.0,0.0,0.0,0.0,0.0,0.0,0.0,0.0,0.0,0.0,0.0,0.0,0.0,0.0,0.0,-5.4747,-5.4613,-5.4526,-5.4516,-5.4543,-5.4512,-5.4512,-5.4512,-5.4512,-5.4512,0.0,0.0,0.0,0.0,-5.4322,-5.4201,-5.3787,-5.3218,-5.3218,-5.2735,-5.2015,-5.2015,-5.158,-5.0942,-5.0942,-5.0528,-5.0011,-5.0011,-5.0011,-5.0011,-5.0011,-5.0011,-4.9964,-4.9755,-4.9679,-4.959,-4.932,-4.9199,-4.9138,-4.9032,-4.9001,-4.9001,-4.9001,-4.9001,-4.9001,-4.9001,-4.9001,-4.9001,-4.9001,-4.9001,-4.9001,-4.9001,-4.9001,-4.9001,-4.9001,-4.9001,-4.9001,-4.9001,-4.9001,-4.9001,-4.9001,-4.89,-4.8832,-4.8832,-4.8832,-4.8511,-4.7753,-4.7601,-4.714,-4.6316,-4.6169,-4.5667,-4.4797,-4.4797,-4.4391,-4.3598,-4.3598,-4.3598,-4.187,-4.2304,-4.2969,-4.2853,-4.2313,-4.2013,-4.2772,-4.237,-4.2207,0.0,0.0,0.0,0.0,-4.6465,0.0,0.0,0.0,0.0,0.0,0.0,0.0,0.0,0.0,0.0,0.0,0.0,0.0,0.0,0.0,0.0,0.0,0.0,0.0,0.0,0.0,-5.3201,-5.3189,-5.4244,-5.4686,-5.4512,-5.4512,-5.4512,-5.4512,-5.4512,-5.4512,0.0,0.0,0.0,-5.3529,-5.2839,-5.2481,-5.236,-5.236,-5.1912,-5.1287,-5.1287,-5.0804,-5.0183,-5.0183,-5.0097,-5.0011,-5.0011,-5.0011,-5.0011,-5.0011,-5.0011,-4.9964,-4.9755,-4.9619,-4.9518,-4.9488,-4.9246,-4.9032,-4.9001,-4.9001,-4.9001,-4.9001,-4.9001,-4.9001,-4.9001,-4.9001,-4.9001,-4.9001,-4.9001,-4.9001,-4.9001,-4.9001,-4.9001,-4.9001,-4.9001,-4.9001,-4.9001,-4.9001,-4.9001,-4.9001,-4.8443,-4.8058,-4.8058,-4.8058,-4.775,-4.7005,-4.6199,-4.5648,-4.5395,-4.4662,-4.4134,-4.3823,-4.3823,-4.3727,-4.3598,-4.3598,-4.3598,-4.1805,-4.2048,-4.2617,-4.3144,-4.2999,-4.2929,-4.3693,-4.332,-4.3138,0.0,0.0,0.0,0.0,0.0,0.0,0.0,0.0,0.0,0.0,0.0,0.0,0.0,0.0,0.0,0.0,0.0,0.0,0.0,0.0,0.0,0.0,0.0,0.0,0.0,0.0,0.0,-5.2909,-5.3479,-5.3636,-5.341,-5.3318,-5.327,-5.327,-5.327,-5.327,0.0,0.0,-5.277,-5.2735,-5.2343,-5.1964,-5.1602,-5.1602,-5.1166,-5.0528,-5.0528,-5.0304,-5.0011,-5.0011,-5.0011,-5.0011,-5.0011,-5.0011,-5.0011,-5.0011,-5.0011,-4.9982,-4.9889,-4.9725,-4.956,-4.9381,-4.9229,-4.9094,-4.9001,-4.9001,-4.9001,-4.9001,-4.9001,-4.9001,-4.9001,-4.9001,-4.9001,-4.9001,-4.9001,-4.9001,-4.9001,-4.9001,-4.9001,-4.9001,-4.9001,-4.9001,-4.9001,-4.9001,-4.8849,-4.8443,-4.8075,-4.775,-4.7344,-4.6938,-4.6566,-4.621,-4.5306,-4.4786,-4.4728,-4.4165,-4.3868,-4.3763,-4.3658,-4.3598,-4.3598,-4.3598,-4.3598,-4.1784,-4.1903,-4.2396,-4.3249,-4.3242,-4.3328,-4.4446,-4.4025,-4.3661,-4.4614,0.0,0.0,0.0,0.0,0.0,0.0,0.0,0.0,0.0,0.0,0.0,0.0,0.0,0.0,0.0,0.0,0.0,0.0,0.0,0.0,0.0,0.0,0.0,0.0,0.0,0.0,-5.2442,-5.2356,-5.2376,-5.2493,-5.2356,-5.2248,-5.2188,-5.2188,-5.2188,-5.217,-5.1998,-5.1929,-5.1912,-5.174,-5.1343,-5.0856,-5.0856,-5.0511,-5.0011,-5.0011,-5.0011,-5.0011,-5.0011,-5.0011,-5.0011,-5.0011,-5.0011,-5.0011,-5.0011,-5.0011,-5.0011,-4.9935,-4.9813,-4.9649,-4.935,-4.9229,-4.9168,-4.9032,-4.9001,-4.9001,-4.9001,-4.9001,-4.9001,-4.9001,-4.9001,-4.9001,-4.9001,-4.9001,-4.9001,-4.9001,-4.9001,-4.9001,-4.9001,-4.9001,-4.9001,-4.9001,-4.8849,-4.8376,-4.7449,-4.7365,-4.7073,-4.6329,-4.5754,-4.5449,-4.5449,-4.4744,-4.4338,-4.431,-4.4097,-4.3969,-4.3898,-4.3734,-4.3658,-4.3598,-4.3598,-4.3598,-4.1827,-4.2357,-4.3054,-4.2741,-4.2211,-4.2269,-4.4251,-4.3558,-4.2873,-4.4262,0.0,0.0,0.0,0.0,0.0,0.0,0.0,0.0,0.0,0.0,0.0,0.0,0.0,0.0,0.0,0.0,0.0,0.0,0.0,0.0,0.0,0.0,0.0,0.0,0.0,0.0,-5.1049,-5.0756,-5.1245,-5.2493,-5.2493,-5.2386,-5.2188,-5.2188,-5.2188,-5.2153,-5.1464,-5.1183,-5.1132,-5.0442,-5.0131,-5.008,-5.008,-5.0062,-5.0011,-5.0011,-5.0011,-5.0011,-5.0011,-5.0011,-5.0011,-5.0011,-5.0011,-5.0011,-5.0011,-5.0011,-4.9964,-4.9784,-4.9708,-4.9679,-4.9518,-4.932,-4.9168,-4.9032,-4.9001,-4.9001,-4.9001,-4.9001,-4.9001,-4.9001,-4.9001,-4.9001,-4.9001,-4.9001,-4.9001,-4.9001,-4.9001,-4.9001,-4.9001,-4.9001,-4.9001,-4.9001,-4.8409,-4.7411,-4.5991,-4.5872,-4.5534,-4.4801,-4.4716,-4.4682,-4.4682,-4.4604,-4.4468,-4.431,-4.4281,-4.4155,-4.3898,-4.3898,-4.3763,-4.3598,-4.3598,-4.3598,-4.1762,-4.1837,-4.2153,-4.2515,-4.2043,-4.2014,-4.4111,-4.4131,-4.3984,-4.4991,-4.507,0.0,0.0,0.0,0.0,0.0,0.0,0.0,0.0,0.0,0.0,0.0,0.0,0.0,0.0,0.0,0.0,0.0,0.0,0.0,0.0,0.0,0.0,0.0,0.0,0.0,0.0,-5.0647,-5.075,-5.1199,-5.1031,-5.0914,-5.0838,-5.0838,-5.0838,-5.0838,-5.0545,-5.0424,-5.0407,-5.0114,-5.0011,-5.0011,-5.0011,-5.0011,-5.0011,-5.0011,-5.0011,-5.0011,-5.0011,-5.0011,-5.0011,-5.0011,-5.0011,-5.0011,-5.0011,-5.0011,-4.9964,-4.9906,-4.9889,-4.9801,-4.9411,-4.926,-4.9168,-4.9032,-4.9001,-4.9001,-4.9001,-4.9001,-4.9001,-4.9001,-4.9001,-4.9001,-4.9001,-4.9001,-4.9001,-4.9001,-4.9001,-4.9001,-4.9001,-4.9001,-4.9001,-4.9001,-4.7936,-4.6802,-4.5788,-4.528,-4.4919,-4.4632,-4.4615,-4.4615,-4.4615,-4.4468,-4.4367,-4.431,-4.4126,-4.3998,-4.3898,-4.3763,-4.3658,-4.3598,-4.3598,-4.3598,-4.1736,-4.1582,-4.166,-4.2107,-4.1805,-4.1876,-4.3724,-4.4168,-4.4445,-4.5347,-4.5856,-4.6251,-4.6598,0.0,0.0,0.0,0.0,0.0,0.0,0.0,0.0,0.0,0.0,0.0,0.0,0.0,0.0,0.0,0.0,0.0,0.0,0.0,0.0,0.0,0.0,0.0,0.0,-5.0647,-5.0492,-5.0415,-5.0138,-5.0011,-5.0011,-5.0011,-5.0011,-5.0011,-5.0011,-5.0011,-5.0011,-5.0011,-5.0011,-5.0011,-5.0011,-5.0011,-5.0011,-5.0011,-5.0011,-5.0011,-5.0011,-5.0011,-5.0011,-5.0011,-5.0011,-5.0011,-5.0011,-5.0011,-5.0011,-5.0011,-5.0011,-4.9906,-4.9471,-4.932,-4.9277,-4.9077,-4.9032,-4.9001,-4.9001,-4.9001,-4.9001,-4.9001,-4.9001,-4.9001,-4.9001,-4.9001,-4.9001,-4.9001,-4.9001,-4.9001,-4.9001,-4.9001,-4.8917,-4.868,-4.753,-4.6498,-4.5771,-4.501,-4.4615,-4.4615,-4.4615,-4.4615,-4.4615,-4.4468,-4.4395,-4.4395,-4.4155,-4.3998,-4.3969,-4.3793,-4.3658,-4.3598,-4.3598,-4.3598,-4.1736,-4.174,-4.1809,-4.1475,0.0,0.0,-4.3006,-4.3385,-4.386,-4.5139,-4.6621,-4.7503,-4.6896,0.0,0.0,0.0,0.0,0.0,0.0,0.0,0.0,0.0,0.0,0.0,0.0,0.0,0.0,0.0,0.0,0.0,0.0,0.0,0.0,0.0,0.0,0.0,0.0,-5.0554,-5.0415,-5.0415,-5.0138,-5.0011,-5.0011,-5.0011,-5.0011,-5.0011,-5.0011,-5.0011,-5.0011,-5.0011,-5.0011,-5.0011,-5.0011,-5.0011,-5.0011,-5.0011,-5.0011,-5.0011,-5.0011,-5.0011,-5.0011,-5.0011,-4.9993,-4.9993,-4.9993,-4.9993,-4.9993,-4.9993,-4.9993,-4.9947,-4.972,-4.9573,-4.9424,-4.9243,-4.9077,-4.8984,-4.8984,-4.8984,-4.8984,-4.8984,-4.8984,-4.8984,-4.8984,-4.8984,-4.8984,-4.8984,-4.8984,-4.9001,-4.9001,-4.9001,-4.8731,-4.7973,-4.7242,-4.6498,-4.5771,-4.501,-4.4615,-4.4615,-4.4615,-4.4615,-4.4615,-4.4615,-4.4615,-4.4615,-4.4395,-4.4224,-4.4097,-4.3985,-4.3793,-4.3598,-4.3598,-4.3598,-4.1692,-4.152,0.0,-4.1386,0.0,0.0,0.0,-4.3328,0.0,0.0,-4.6207,-4.6872,-4.6702,0.0,0.0,0.0,0.0,0.0,0.0,0.0,0.0,0.0,0.0,0.0,0.0,0.0,0.0,0.0,0.0,0.0,0.0,0.0,0.0,0.0,0.0,0.0,0.0,0.0,-5.0492,-5.0415,-5.0217,-5.0092,-5.0011,-5.0011,-5.0011,-5.0011,-5.0011,-5.0011,-5.0011,-5.0011,-5.0011,-5.0011,-5.0011,-5.0011,-5.0011,-5.0011,-5.0011,-5.0011,-5.0011,-5.0011,-5.0011,-5.0011,-4.9631,-4.9154,-4.9154,-4.8775,-4.8361,-4.8361,-4.8361,-4.8333,-4.8192,-4.8014,-4.796,-4.8341,-4.8327,-4.8088,-4.7564,-4.7445,-4.7445,-4.7445,-4.7445,-4.7445,-4.7445,-4.7445,-4.7631,-4.8156,-4.824,-4.8426,-4.8934,-4.9001,-4.8731,-4.7973,-4.7686,-4.7073,-4.5821,-4.55,-4.5145,-4.4632,-4.4615,-4.4615,-4.4615,-4.4615,-4.4542,-4.4395,-4.4338,-4.4224,-4.4097,-4.3985,-4.3868,-4.3793,-4.3658,-4.3598,-4.1582,-4.1386,0.0,-4.1267,-4.1186,-4.1468,-4.2926,0.0,0.0,0.0,0.0,0.0,0.0,0.0,0.0,0.0,0.0,0.0,0.0,0.0,0.0,0.0,0.0,0.0,0.0,0.0,0.0,0.0,0.0,0.0,0.0,0.0,0.0,0.0,0.0,0.0,0.0,0.0,0.0,-5.0415,-5.0274,-5.012,-5.0011,-5.0011,-5.0011,-5.0011,-5.0011,-5.0011,-5.0011,-5.0011,-5.0011,-5.0011,-5.0011,-5.0011,-4.9959,-4.9648,-4.9528,-4.9493,-4.92,-4.9097,-4.9097,-4.9097,-4.8769,-4.8344,-4.8344,-4.8034,-4.7689,-4.7689,-4.7689,-4.7662,-4.7522,-4.7364,-4.7278,-4.7576,-4.7564,-4.7344,-4.6887,-4.6786,-4.6786,-4.6786,-4.6786,-4.6786,-4.6786,-4.6786,-4.7056,-4.777,-4.8142,-4.8511,-4.8951,-4.9001,-4.8832,-4.8392,-4.8058,-4.7428,-4.6244,-4.5872,-4.5382,-4.4649,-4.4615,-4.4615,-4.4615,-4.4615,-4.4542,-4.4412,-4.4338,-4.4253,-4.4184,-4.4039,-4.3956,-4.3898,-4.3763,-4.3674,-4.1426,-4.138,0.0,-4.114,-4.1215,0.0,-4.2904,-4.4337,-4.5397,0.0,0.0,0.0,0.0,0.0,0.0,0.0,0.0,0.0,0.0,0.0,0.0,0.0,0.0,0.0,0.0,0.0,0.0,0.0,0.0,0.0,0.0,0.0,0.0,0.0,0.0,0.0,0.0,0.0,0.0,0.0,-5.0274,-5.0149,-5.0011,-5.0011,-5.0011,-5.0011,-5.0011,-5.0011,-4.9993,-4.9924,-4.9907,-4.989,-4.9821,-4.9804,-4.9717,-4.8965,-4.8689,-4.8586,-4.7913,-4.7689,-4.7689,-4.7689,-4.7638,-4.7586,-4.7586,-4.7534,-4.7482,-4.7482,-4.7482,-4.7455,-4.7316,-4.7141,-4.6982,-4.6827,-4.675,-4.6667,-4.6599,-4.6583,-4.6583,-4.6583,-4.6583,-4.6583,-4.6583,-4.6583,-4.687,-4.7699,-4.8494,-4.8984,-4.8917,-4.89,-4.8883,-4.8815,-4.8206,-4.7513,-4.6752,-4.6092,-4.5382,-4.4649,-4.4615,-4.4615,-4.4615,-4.4615,-4.4615,-4.4615,-4.4412,-4.4338,-4.4338,-4.4184,-4.4027,-4.3927,-4.3898,-4.3763,-4.1403,-4.1284,0.0,0.0,-4.1923,-4.2817,-4.312,-4.4337,0.0,0.0,0.0,0.0,0.0,0.0,0.0,0.0,0.0,0.0,0.0,0.0,0.0,0.0,0.0,0.0,0.0,0.0,0.0,0.0,0.0,0.0,0.0,0.0,0.0,0.0,0.0,0.0,-5.0891,-5.0846,-5.0692,0.0,-5.0387,-5.0235,-5.0011,-5.0011,-5.0011,-5.0011,-5.0011,-5.0011,-4.9959,-4.9309,-4.9051,-4.8999,-4.8413,-4.8172,-4.8155,-4.7982,-4.7931,-4.7896,-4.7741,-4.7689,-4.7689,-4.7689,-4.7293,-4.6855,-4.6855,-4.6397,-4.588,-4.588,-4.588,-4.5853,-4.5746,-4.5674,-4.5566,-4.5335,-4.5614,-4.5788,-4.5207,-4.5089,-4.5089,-4.5089,-4.5089,-4.5089,-4.5089,-4.5089,-4.55,-4.6836,-4.8156,-4.8798,-4.8193,-4.8125,-4.7919,-4.7327,-4.7124,-4.6735,-4.6007,-4.5788,-4.5382,-4.4649,-4.4615,-4.4615,-4.4615,-4.4615,-4.4615,-4.4615,-4.4542,-4.4542,-4.4542,-4.4241,-4.4085,-4.4056,-4.3793,-4.3628,-4.1307,0.0,0.0,-4.1029,0.0,-4.2723,-4.3103,-4.4087,0.0,0.0,0.0,0.0,0.0,0.0,0.0,0.0,0.0,0.0,0.0,0.0,0.0,0.0,0.0,0.0,0.0,0.0,0.0,0.0,0.0,0.0,0.0,0.0,0.0,0.0,0.0,0.0,-5.0891,-5.0891,-5.0747,-5.0492,-5.0425,-5.0263,-4.9993,-4.9614,-4.9441,-4.9424,-4.9062,-4.8907,-4.8872,-4.843,-4.8258,-4.8224,-4.7844,-4.7689,-4.7655,-4.732,-4.7182,-4.7103,-4.6724,-4.6586,-4.6586,-4.6586,-4.6328,-4.6017,-4.6017,-4.5725,-4.5397,-4.5397,-4.5397,-4.5371,-4.523,-4.5167,-4.5059,-4.4858,-4.5026,-4.5128,-4.4699,-4.4615,-4.4615,-4.4615,-4.4615,-4.4615,-4.4615,-4.4874,-4.5382,-4.616,-4.7225,-4.78,-4.7428,-4.7378,-4.7225,-4.6836,-4.6786,-4.6498,-4.5771,-4.5703,-4.5382,-4.4649,-4.4615,-4.4615,-4.4615,-4.4615,-4.4615,-4.4615,-4.4615,-4.4615,-4.4615,-4.4429,-4.4298,-4.4196,-4.4023,-4.3864,-4.1192,0.0,-4.1094,-4.0918,-4.144,0.0,-4.2844,0.0,0.0,0.0,0.0,0.0,0.0,0.0,0.0,0.0,0.0,0.0,0.0,0.0,0.0,0.0,0.0,0.0,0.0,0.0,0.0,0.0,0.0,0.0,0.0,0.0,0.0,0.0,0.0,-5.0582,-5.0846,-5.0873,-5.0774,-5.0557,-5.0397,-5.0206,-4.9976,-4.9154,-4.8879,-4.8965,-4.8344,-4.8086,-4.8096,-4.7931,-4.7879,-4.7862,-4.7741,-4.7689,-4.762,-4.7,-4.6803,-4.6672,-4.6017,-4.5793,-4.5793,-4.5793,-4.5793,-4.5793,-4.5793,-4.5793,-4.5793,-4.5793,-4.5793,-4.5767,-4.5642,-4.5404,-4.5166,-4.5035,-4.4905,-4.4748,-4.4626,-4.4615,-4.4615,-4.4615,-4.4615,-4.4615,-4.4615,-4.5213,-4.5703,-4.5703,-4.6329,-4.6735,-4.6616,-4.6599,-4.6549,-4.6413,-4.6413,-4.616,-4.5568,-4.5517,-4.5246,-4.4649,-4.4615,-4.4615,-4.4615,-4.4615,-4.4615,-4.4615,-4.4615,-4.4615,-4.4615,-4.457,-4.444,-4.4253,-4.4253,-4.4097,0.0,0.0,-4.0912,0.0,-4.1367,-4.2033,0.0,0.0,0.0,0.0,0.0,0.0,0.0,0.0,0.0,0.0,0.0,0.0,0.0,0.0,0.0,0.0,0.0,0.0,0.0,0.0,0.0,0.0,0.0,0.0,0.0,0.0,-5.0189,-5.0217,-5.0436,0.0,-5.063,-5.0819,-5.0737,-5.0425,-5.0178,-5.0022,-4.9976,-4.9154,-4.9172,-4.9838,-4.9752,-4.97,-4.9648,-4.893,-4.8637,-4.8586,-4.7948,-4.7689,-4.77,-4.7569,-4.7534,-4.7562,-4.7414,-4.7379,-4.7379,-4.7379,-4.7379,-4.7379,-4.7379,-4.7379,-4.7379,-4.7379,-4.7379,-4.7351,-4.723,-4.667,-4.6056,-4.5801,-4.5252,-4.4748,-4.4626,-4.4615,-4.4615,-4.4615,-4.4615,-4.4615,-4.4615,-4.5213,-4.5703,-4.5703,-4.6329,-4.6566,-4.5923,-4.5855,-4.5602,-4.497,-4.4902,-4.4852,-4.4767,-4.475,-4.4716,-4.4615,-4.4615,-4.4615,-4.4615,-4.4615,-4.4615,-4.4615,-4.4615,-4.4615,-4.4615,-4.444,-4.4253,-4.4126,-4.3998,-4.3852,-4.1175,-4.0918,-4.0655,0.0,-4.0937,-4.1395,0.0,0.0,0.0,0.0,0.0,0.0,0.0,0.0,0.0,0.0,0.0,0.0,0.0,0.0,0.0,0.0,0.0,0.0,0.0,0.0,0.0,0.0,0.0,0.0,0.0,-4.8774,-4.8823,-4.8889,-4.9462,0.0,-4.9881,-5.0372,-5.0499,-5.0302,-5.0178,-5.008,-4.9993,-4.9648,-4.9441,-4.9292,-4.8879,-4.8717,-4.8683,-4.8327,-4.8172,-4.8137,-4.781,-4.7689,-4.7689,-4.7689,-4.7689,-4.7689,-4.7689,-4.7689,-4.7689,-4.7689,-4.7689,-4.7689,-4.7689,-4.7689,-4.7689,-4.7689,-4.7396,-4.7069,-4.7014,-4.6275,-4.5538,-4.5418,-4.5031,-4.4682,-4.4598,-4.4615,-4.4615,-4.4615,-4.4615,-4.4615,-4.4615,-4.4886,-4.5077,-4.5077,-4.5348,-4.5432,-4.5111,-4.5077,-4.4942,-4.4632,-4.4615,-4.4615,-4.4615,-4.4615,-4.4615,-4.4615,-4.4615,-4.4615,-4.4615,-4.4615,-4.4615,-4.4615,-4.4615,-4.4615,-4.4615,-4.4514,-4.4457,-4.4372,-4.4315,-4.4143,0.0,0.0,-4.0583,-4.0534,-4.0583,-4.0851,0.0,0.0,0.0,0.0,0.0,0.0,0.0,0.0,0.0,0.0,0.0,0.0,0.0,0.0,0.0,0.0,0.0,0.0,0.0,0.0,0.0,0.0,0.0,0.0,-4.7689,-4.7689,-4.7745,-4.7847,-4.8474,-4.8851,-4.8933,-4.949,-4.9816,-4.994,-4.9866,-4.9901,-5.0011,-5.0011,-4.9683,-4.9068,-4.8517,-4.8286,-4.8286,-4.8286,-4.8286,-4.8286,-4.8286,-4.8286,-4.8286,-4.8286,-4.8286,-4.8286,-4.8286,-4.8286,-4.8286,-4.8286,-4.8286,-4.8286,-4.8286,-4.8286,-4.8252,-4.8034,-4.7569,-4.7103,-4.6886,-4.6069,-4.5306,-4.5296,-4.4967,-4.4626,-4.4615,-4.4615,-4.4615,-4.4615,-4.4615,-4.4615,-4.4615,-4.4615,-4.4615,-4.4615,-4.4615,-4.4615,-4.4615,-4.4615,-4.4615,-4.4615,-4.4615,-4.4615,-4.4615,-4.4615,-4.4615,-4.4615,-4.4615,-4.4615,-4.4615,-4.4615,-4.4615,-4.4615,-4.4615,-4.4615,-4.4615,-4.4615,-4.457,-4.4542,-4.4542,-4.4355,0.0,-4.0982,0.0,-4.0558,0.0,0.0,0.0,0.0,0.0,0.0,0.0,0.0,0.0,0.0,0.0,0.0,0.0,0.0,0.0,0.0,0.0,0.0,0.0,0.0,0.0,0.0,0.0,0.0,0.0,0.0,-4.7689,-4.7689,-4.7717,-4.7717,-4.7855,-4.7981,-4.7964,-4.8016,-4.8414,-4.916,-4.8974,-4.9269,-5.0011,-5.0011,-4.9993,-4.9942,-4.9907,-4.989,-4.989,-4.989,-4.989,-4.989,-4.989,-4.989,-4.989,-4.989,-4.989,-4.989,-4.989,-4.989,-4.989,-4.989,-4.989,-4.989,-4.989,-4.989,-4.9735,-4.8947,-4.8706,-4.8488,-4.7687,-4.6842,-4.6213,-4.6082,-4.5414,-4.4748,-4.4643,-4.4615,-4.4615,-4.4615,-4.4615,-4.4615,-4.4615,-4.4615,-4.4615,-4.4615,-4.4615,-4.4615,-4.4615,-4.4615,-4.4615,-4.4615,-4.4615,-4.4615,-4.4615,-4.4615,-4.4615,-4.4615,-4.4615,-4.4615,-4.4615,-4.4615,-4.4615,-4.4615,-4.4615,-4.4615,-4.4615,-4.4615,-4.4497,-4.431,-4.431,-4.4224,0.0,0.0,0.0,-4.0558,0.0,0.0,0.0,0.0,0.0,0.0,0.0,0.0,0.0,0.0,0.0,0.0,0.0,0.0,0.0,0.0,0.0,0.0,0.0,0.0,0.0,0.0,0.0,0.0,0.0,0.0,-4.6207,-4.6207,-4.6207,-4.6207,-4.6771,-4.7299,-4.7782,-4.7782,-4.7921,-4.8197,-4.8114,-4.8224,-4.8528,-4.8528,-4.8528,-4.8528,-4.8528,-4.9097,-5.0011,-5.0011,-5.0011,-5.0011,-5.0011,-5.0011,-5.0011,-5.0011,-5.0011,-5.0011,-5.0011,-5.0011,-5.0011,-5.0011,-5.0011,-5.0011,-5.0011,-4.9648,-4.9154,-4.8879,-4.8103,-4.731,-4.6997,-4.6189,-4.5398,-4.5184,-4.4913,-4.4654,-4.4598,-4.4615,-4.4615,-4.4615,-4.4615,-4.4615,-4.4615,-4.4615,-4.4615,-4.4615,-4.4615,-4.4615,-4.4615,-4.4615,-4.4615,-4.4615,-4.4615,-4.4615,-4.4615,-4.4615,-4.4615,-4.4615,-4.4615,-4.4615,-4.4615,-4.4615,-4.4615,-4.4615,-4.4615,-4.4615,-4.4615,-4.4615,-4.457,-4.4497,-4.4497,-4.4412,-4.1198,0.0,0.0,0.0,0.0,0.0,0.0,0.0,0.0,0.0,0.0,0.0,0.0,0.0,0.0,0.0,0.0,0.0,0.0,0.0,0.0,0.0,0.0,0.0,0.0,0.0,0.0,0.0,0.0,0.0,-4.5397,-4.5397,-4.5397,-4.5397,-4.5914,-4.6414,-4.6914,-4.6914,-4.7052,-4.731,-4.731,-4.7448,-4.7689,-4.7689,-4.7689,-4.7689,-4.7689,-4.8286,-4.9235,-4.9235,-4.9235,-4.9235,-4.9235,-4.9235,-4.9269,-4.9528,-4.9614,-4.9648,-4.9907,-5.0011,-5.0011,-5.0011,-5.0011,-5.0011,-5.0011,-4.9459,-4.8741,-4.8499,-4.7534,-4.6517,-4.6215,-4.5562,-4.4923,-4.4737,-4.4654,-4.4654,-4.4598,-4.4615,-4.4615,-4.4615,-4.4615,-4.4615,-4.4615,-4.4615,-4.4615,-4.4615,-4.4615,-4.4615,-4.4615,-4.4615,-4.4615,-4.4615,-4.4615,-4.4615,-4.4615,-4.4615,-4.4615,-4.4615,-4.4615,-4.4615,-4.4615,-4.4615,-4.4615,-4.4615,-4.4615,-4.4615,-4.4615,-4.4615,-4.4615,-4.4615,-4.4615,-4.4542,0.0,0.0,0.0,0.0,0.0,0.0,0.0,0.0,0.0,0.0,0.0,0.0,0.0,0.0,0.0,0.0,0.0,0.0,0.0,0.0,0.0,0.0,0.0,0.0,0.0,0.0,0.0,0.0,0.0,-4.5397,-4.5397,-4.5397,-4.5397,-4.5397,-4.5397,-4.5397,-4.5397,-4.5397,-4.5793,-4.6562,-4.6562,-4.6958,-4.762,-4.762,-4.762,-4.762,-4.762,-4.762,-4.762,-4.7672,-4.7689,-4.7689,-4.7689,-4.7689,-4.7775,-4.8499,-4.8758,-4.8861,-4.9666,-4.9971,-4.9988,-5.0005,-5.0034,-5.0051,-5.0051,-4.9499,-4.8694,-4.7969,-4.7254,-4.6468,-4.5524,-4.5167,-4.5005,-4.4886,-4.4858,-4.4803,-4.4682,-4.4626,-4.4626,-4.4598,-4.4615,-4.4615,-4.4615,-4.4615,-4.4615,-4.4615,-4.4615,-4.4615,-4.4615,-4.4615,-4.4615,-4.4615,-4.4615,-4.4615,-4.4615,-4.4615,-4.4615,-4.4615,-4.4615,-4.4615,-4.4615,-4.4615,-4.4615,-4.4615,-4.4615,-4.4615,-4.4615,-4.4615,-4.4615,-4.4615,-4.4615,-4.4615,-4.1648,0.0,0.0,0.0,0.0,0.0,0.0,0.0,0.0,0.0,0.0,0.0,0.0,0.0,0.0,0.0,0.0,0.0,0.0,0.0,0.0,0.0,0.0,0.0,0.0,0.0,0.0,0.0,0.0,-4.5397,-4.5397,-4.5397,-4.5397,-4.5397,-4.5397,-4.5397,-4.5397,-4.5397,-4.5518,-4.5725,-4.5725,-4.5828,-4.6035,-4.6035,-4.6035,-4.6035,-4.6035,-4.6035,-4.6121,-4.7224,-4.7689,-4.7689,-4.7689,-4.7689,-4.7707,-4.7913,-4.8,-4.81,-4.8667,-4.922,-4.9755,-5.0153,-5.0698,-5.1158,-5.1158,-5.0592,-4.9928,-4.9715,-4.9114,-4.8335,-4.74,-4.6685,-4.6189,-4.6007,-4.5925,-4.5868,-4.5835,-4.5451,-4.5008,-4.4682,-4.4615,-4.4615,-4.4615,-4.4615,-4.4615,-4.4615,-4.4615,-4.4615,-4.4615,-4.4615,-4.4615,-4.4615,-4.4615,-4.4615,-4.4615,-4.4615,-4.4615,-4.4615,-4.4615,-4.4615,-4.4615,-4.4615,-4.4615,-4.4615,-4.4615,-4.4615,-4.4615,-4.4615,-4.4615,-4.4615,-4.4615,-4.4615,-4.0895,-4.081,0.0,0.0,0.0,0.0,0.0,-3.9493,0.0,0.0,0.0,0.0,0.0,0.0,0.0,0.0,0.0,0.0,0.0,0.0,0.0,0.0,0.0,0.0,0.0,0.0,0.0,0.0,-4.4836,-4.5096,-4.538,-4.5397,-4.5397,-4.5397,-4.5397,-4.5397,-4.5397,-4.5397,-4.5397,-4.5397,-4.5397,-4.5397,-4.5397,-4.5397,-4.5397,-4.5397,-4.5397,-4.5397,-4.5492,-4.6612,-4.6922,-4.6724,-4.6724,-4.6724,-4.6786,-4.7322,-4.7533,-4.7665,-4.8448,-4.925,-4.9998,-5.03,-5.0934,-5.1601,-5.1601,-5.103,-5.0412,-5.0412,-4.9817,-4.9097,-4.8544,-4.801,-4.7488,-4.6991,-4.6824,-4.6698,-4.6308,-4.5724,-4.5294,-4.5249,-4.4896,-4.4654,-4.4852,-4.4748,-4.4615,-4.4615,-4.4615,-4.4615,-4.4615,-4.4615,-4.4615,-4.4615,-4.4615,-4.4615,-4.4615,-4.4615,-4.4615,-4.4615,-4.4615,-4.4615,-4.4615,-4.4615,-4.4615,-4.4615,-4.4615,-4.4615,-4.4615,-4.4615,-4.4615,-4.4615,-4.4615,-4.4615,-3.9854,-3.9716,-3.956,0.0,0.0,0.0,-3.941,-3.9376,0.0,0.0,0.0,0.0,0.0,0.0,0.0,0.0,0.0,0.0,0.0,0.0,0.0,0.0,0.0,0.0,0.0,0.0,0.0,-4.3854,-4.4096,-4.4569,-4.5303,-4.5303,-4.5337,-4.5485,-4.5502,-4.5511,-4.5563,-4.5563,-4.5563,-4.5563,-4.5563,-4.5563,-4.5563,-4.5563,-4.5563,-4.5563,-4.5563,-4.5563,-4.5598,-4.6087,-4.598,-4.5485,-4.5537,-4.5563,-4.571,-4.684,-4.7262,-4.7424,-4.8603,-4.9615,-5.0371,-5.0444,-5.1034,-5.1793,-5.1793,-5.1274,-5.0725,-5.0725,-5.0086,-4.9412,-4.9412,-4.9264,-4.8894,-4.8039,-4.7807,-4.7563,-4.6617,-4.6015,-4.5727,-4.6189,-4.5381,-4.4748,-4.5152,-4.4879,-4.4615,-4.4615,-4.4615,-4.4615,-4.4615,-4.4615,-4.4615,-4.4615,-4.4615,-4.4615,-4.4615,-4.4615,-4.4615,-4.4615,-4.4615,-4.4615,-4.4615,-4.4615,-4.4615,-4.4615,-4.4615,-4.4615,-4.4615,-4.4615,-4.4615,-4.4615,-4.4615,-4.4615,0.0,0.0,0.0,0.0,0.0,0.0,-3.845,-3.8381,0.0,0.0,0.0,0.0,0.0,0.0,0.0,0.0,0.0,0.0,0.0,0.0,0.0,0.0,0.0,0.0,0.0,0.0,-4.2945,-4.3914,-4.3877,-4.4136,-4.4878,-4.4654,-4.4974,-4.5995,-4.6038,-4.6235,-4.6607,-4.6607,-4.6607,-4.6607,-4.6607,-4.6607,-4.6607,-4.6607,-4.6607,-4.6607,-4.6607,-4.6607,-4.6607,-4.6724,-4.6483,-4.6087,-4.6465,-4.6607,-4.6649,-4.6902,-4.6979,-4.7066,-4.7687,-4.8854,-5.015,-5.0593,-5.1703,-5.289,-5.289,-5.278,-5.2634,-5.2634,-5.205,-5.1429,-5.1429,-5.0833,-5.022,-5.0053,-4.9847,-4.9458,-4.8677,-4.801,-4.7518,-4.7405,-4.5877,-4.4626,-4.472,-4.4654,-4.4615,-4.4615,-4.4615,-4.4615,-4.4615,-4.4615,-4.4615,-4.4615,-4.4615,-4.4615,-4.4615,-4.4615,-4.4615,-4.4615,-4.4615,-4.4615,-4.4615,-4.4615,-4.4615,-4.4615,-4.4615,-4.4615,-4.4615,-4.4615,-4.4615,-4.4615,-4.4615,-4.4615,0.0,0.0,0.0,-3.816,0.0,0.0,0.0,-3.8073,0.0,0.0,0.0,0.0,0.0,0.0,0.0,0.0,0.0,0.0,0.0,0.0,0.0,0.0,0.0,0.0,0.0,0.0,-4.2144,-4.3075,-4.3477,-4.3915,-4.453,-4.4454,-4.4876,-4.5911,-4.5953,-4.6264,-4.689,-4.6908,-4.6908,-4.6908,-4.6908,-4.6908,-4.6908,-4.6908,-4.6908,-4.6908,-4.6908,-4.6908,-4.6908,-4.7138,-4.7115,-4.689,-4.6908,-4.6908,-4.6931,-4.716,-4.7248,-4.7313,-4.7795,-4.9013,-5.0422,-5.0723,-5.1903,-5.3185,-5.3185,-5.3185,-5.3185,-5.3185,-5.2913,-5.2601,-5.2601,-5.2205,-5.1682,-5.1216,-5.0976,-5.0624,-4.9782,-4.9127,-4.8536,-4.8012,-4.6836,-4.5891,-4.577,-4.5284,-4.5052,-4.5328,-4.4906,-4.4776,-4.5275,-4.4923,-4.4692,-4.4917,-4.4748,-4.4615,-4.4615,-4.4615,-4.4615,-4.4615,-4.4615,-4.4615,-4.4615,-4.4615,-4.4615,-4.4615,-4.4615,-4.4615,-4.4615,-4.4615,-4.4615,-4.4615,-4.4615,-4.4615,0.0,0.0,0.0,0.0,0.0,-3.7494,0.0,0.0,0.0,0.0,0.0,0.0,0.0,0.0,0.0,0.0,0.0,0.0,0.0,0.0,0.0,0.0,0.0,0.0,0.0,0.0,-4.16,-4.223,-4.2957,-4.3613,-4.4147,-4.4252,-4.4696,-4.5591,-4.5609,-4.6028,-4.6944,-4.6944,-4.7016,-4.716,-4.716,-4.716,-4.716,-4.716,-4.716,-4.716,-4.716,-4.716,-4.7182,-4.7569,-4.7736,-4.7695,-4.7331,-4.716,-4.7222,-4.7591,-4.7736,-4.7795,-4.8172,-4.9407,-5.0802,-5.0802,-5.1903,-5.3185,-5.3185,-5.3185,-5.3185,-5.3185,-5.3185,-5.3185,-5.3185,-5.3103,-5.2812,-5.205,-5.181,-5.15,-5.0598,-5.0051,-4.9505,-4.8693,-4.8182,-4.7623,-4.6866,-4.6024,-4.5614,-4.6024,-4.5416,-4.5169,-4.5992,-4.539,-4.5025,-4.5407,-4.5115,-4.4896,-4.4896,-4.4896,-4.4896,-4.4896,-4.4896,-4.4896,-4.4896,-4.4786,-4.4692,-4.4615,-4.4615,-4.4615,-4.4615,-4.4615,-4.4615,-4.4615,-4.4615,-4.4615,0.0,0.0,0.0,0.0,-3.7577,0.0,0.0,0.0,0.0,0.0,0.0,0.0,0.0,0.0,0.0,0.0,0.0,0.0,0.0,0.0,0.0,0.0,0.0,0.0,0.0,0.0,0.0,-4.2219,-4.2391,-4.2908,-4.3709,-4.356,-4.4005,-4.5224,-4.526,-4.5842,-4.7052,-4.709,-4.7437,-4.8132,-4.8132,-4.8132,-4.8132,-4.8132,-4.8132,-4.8132,-4.8132,-4.8132,-4.8152,-4.8191,-4.821,-4.8229,-4.8152,-4.8132,-4.8152,-4.8191,-4.821,-4.823,-4.8287,-4.9407,-5.0802,-5.0802,-5.1903,-5.3185,-5.3185,-5.3185,-5.3185,-5.3185,-5.3185,-5.3185,-5.3185,-5.3103,-5.2962,-5.2889,-5.2744,-5.2437,-5.1595,-5.1391,-5.1093,-5.0274,-5.0036,-4.9154,-4.6629,-4.6074,-4.6024,-4.6074,-4.6017,-4.5968,-4.6091,-4.6017,-4.5943,-4.6,-4.5968,-4.5943,-4.5943,-4.5943,-4.5943,-4.5943,-4.5943,-4.5943,-4.5943,-4.5459,-4.5035,-4.4598,-4.4615,-4.4615,-4.4615,-4.4615,-4.4615,-4.4615,-4.4615,-4.4615,0.0,0.0,0.0,0.0,0.0,0.0,0.0,0.0,-3.7595,0.0,0.0,0.0,0.0,0.0,0.0,0.0,0.0,0.0,0.0,0.0,0.0,0.0,0.0,0.0,0.0,0.0,0.0,0.0,0.0,-4.2719,-4.3484,-4.3466,-4.3868,-4.4874,-4.4911,-4.5388,-4.6397,-4.6856,-4.7278,-4.7608,-4.8067,-4.8306,-4.8306,-4.8306,-4.8306,-4.8306,-4.8306,-4.8306,-4.8306,-4.8306,-4.8306,-4.8306,-4.8306,-4.8306,-4.8306,-4.8306,-4.8306,-4.8306,-4.8306,-4.9407,-5.0949,-5.1903,-5.2656,-5.3185,-5.3185,-5.3185,-5.3185,-5.3185,-5.3185,-5.3185,-5.3185,-5.3103,-5.2999,-5.2999,-5.2912,-5.2714,-5.2368,-5.2313,-5.2054,-5.1206,-5.1035,-5.0456,-4.8711,-4.7796,-4.7216,-4.7048,-4.6501,-4.6334,-4.6954,-4.6478,-4.6238,-4.6525,-4.6286,-4.6098,-4.6098,-4.6098,-4.6098,-4.6098,-4.6098,-4.6098,-4.6098,-4.5875,-4.5665,-4.5451,-4.5468,-4.5311,-4.5008,-4.5008,-4.4879,-4.4615,-4.4615,-4.4615,-3.9372,0.0,0.0,0.0,0.0,0.0,0.0,0.0,0.0,0.0,0.0,0.0,0.0,0.0,0.0,0.0,0.0,0.0,0.0,0.0,0.0,0.0,0.0,0.0,0.0,0.0,0.0,0.0,-4.2233,0.0,-4.3304,-4.3445,-4.3754,-4.436,-4.4378,-4.4764,-4.5571,-4.614,-4.6654,-4.7113,-4.7681,-4.8104,-4.8306,-4.8306,-4.8306,-4.8306,-4.8306,-4.8306,-4.8306,-4.8306,-4.8306,-4.8306,-4.8306,-4.8306,-4.8306,-4.8306,-4.8306,-4.8306,-4.8306,-4.9407,-5.1077,-5.2692,-5.3185,-5.3185,-5.3185,-5.3185,-5.3185,-5.3185,-5.3185,-5.3185,-5.3185,-5.3124,-5.3042,-5.3042,-5.2977,-5.2912,-5.2912,-5.2912,-5.2704,-5.2029,-5.1875,-5.1554,-5.0627,-4.9465,-4.8569,-4.8399,-4.7527,-4.716,-4.7919,-4.7165,-4.6683,-4.7084,-4.6776,-4.6525,-4.6525,-4.6525,-4.6525,-4.6525,-4.6525,-4.6478,-4.6334,-4.6334,-4.6189,-4.5893,-4.5875,-4.5614,-4.5098,-4.5098,-4.4917,-4.4615,-4.4615,-4.4615,0.0,0.0,0.0,-3.9138,0.0,0.0,0.0,0.0,-3.7667,0.0,0.0,0.0,0.0,0.0,-3.7595,-3.7595,0.0,0.0,0.0,0.0,0.0,0.0,0.0,0.0,0.0,0.0,0.0,0.0,-4.1723,0.0,-4.3142,-4.3375,-4.3515,-4.3551,-4.3551,-4.392,-4.4728,-4.4746,-4.5553,-4.7094,-4.7131,-4.7553,-4.8306,-4.8306,-4.8306,-4.8306,-4.8306,-4.8306,-4.8306,-4.8306,-4.8306,-4.8306,-4.8306,-4.8306,-4.8306,-4.8306,-4.8306,-4.8306,-4.8306,-4.9407,-5.1077,-5.2692,-5.3185,-5.3185,-5.3185,-5.3185,-5.3185,-5.3185,-5.3185,-5.3185,-5.3185,-5.3185,-5.3185,-5.3185,-5.3185,-5.3185,-5.3185,-5.3185,-5.3124,-5.2984,-5.2853,-5.2488,-5.1591,-5.0663,-5.0035,-5.0017,-4.9343,-4.8815,-4.8855,-4.8146,-4.7657,-4.7678,-4.7657,-4.7657,-4.7657,-4.7657,-4.7657,-4.7657,-4.7657,-4.7407,-4.6908,-4.6886,-4.6382,-4.5355,-4.5329,-4.5072,-4.4626,-4.4626,-4.4598,-4.4615,-4.4615,-4.4615,0.0,0.0,-4.0778,-4.0708,0.0,0.0,0.0,0.0,0.0,0.0,0.0,0.0,0.0,0.0,-3.7595,-3.7595,-3.7595,-3.7613,0.0,0.0,0.0,0.0,0.0,0.0,0.0,0.0,0.0,-4.1086,-4.1595,-4.212,0.0,-4.3169,-4.3515,-4.3515,-4.3515,-4.3643,-4.3901,-4.4433,-4.4966,-4.5517,-4.6581,-4.7241,-4.7516,-4.8067,-4.8306,-4.8306,-4.8306,-4.8306,-4.8306,-4.8306,-4.8306,-4.8306,-4.8306,-4.8306,-4.8306,-4.8306,-4.8306,-4.8379,-4.8948,-4.9866,-5.0986,-5.2068,-5.2766,-5.3185,-5.3185,-5.3185,-5.3185,-5.3185,-5.3185,-5.3185,-5.3185,-5.3185,-5.3185,-5.3185,-5.3185,-5.3185,-5.3185,-5.3185,-5.2999,-5.2343,-5.2169,-5.1849,-5.0939,-5.0511,-5.0064,-4.9405,-4.8623,-4.8094,-4.8094,-4.788,-4.7717,-4.7717,-4.7717,-4.7717,-4.7717,-4.7717,-4.7717,-4.7717,-4.7717,-4.7615,-4.7446,-4.7428,-4.7258,-4.6908,-4.6886,-4.6637,-4.6133,-4.6133,-4.5935,-4.558,-4.558,-4.5249,-4.2395,-4.2083,0.0,0.0,-4.1017,0.0,-4.0312,0.0,0.0,0.0,0.0,0.0,0.0,0.0,-3.7631,-3.7631,-3.7631,-3.7649,0.0,-3.781,0.0,0.0,0.0,0.0,0.0,0.0,-4.0111,-4.0319,-4.0757,-4.1373,0.0,0.0,-4.3185,-4.3496,-4.3515,-4.3515,-4.3515,-4.4011,-4.4415,-4.4727,-4.5737,-4.6544,-4.7113,-4.7626,-4.8031,-4.8306,-4.8306,-4.8306,-4.8306,-4.8306,-4.8306,-4.8306,-4.8306,-4.8306,-4.8306,-4.8306,-4.8306,-4.8416,-4.9317,-4.9941,-5.0545,-5.1646,-5.2344,-5.2839,-5.3115,-5.3185,-5.313,-5.2858,-5.2986,-5.3133,-5.2858,-5.3004,-5.3133,-5.2839,-5.2766,-5.2692,-5.2417,-5.2362,-5.2155,-5.1501,-5.137,-5.1164,-5.0508,-5.0159,-4.9822,-4.9434,-4.8705,-4.8176,-4.8134,-4.788,-4.7717,-4.7717,-4.7717,-4.7717,-4.7717,-4.7717,-4.7717,-4.7717,-4.7717,-4.7717,-4.7717,-4.7717,-4.7615,-4.7407,-4.7407,-4.7151,-4.6613,-4.6613,-4.643,-4.6098,-4.6098,-4.5742]},{"header":{"parameterUnit":"m.s-1","parameterCategory":1,"la1":30.6,"la2":29.2853,"lo1":-89.7004,"lo2":-87.6739,"dy":0.0162,"dx":0.0183,"nx":112,"ny":82,"refTime":"2023-07-10T12:00:00:Z","depth":0,"parameterNumber":3,"parameterNumberName":"V-component_of_WINDS"},"data":[0.0,0.0,0.0,0.0,0.0,0.0,0.0,0.0,0.0,0.0,0.0,0.0,0.0,0.0,0.0,0.0,0.0,0.0,0.0,0.0,0.0,0.0,0.0,0.0,0.0,0.0,0.0,0.0,0.0,0.0,0.0,0.0,0.0,0.0,0.0,0.0,0.0,0.0,0.0,0.0,0.0,0.0,0.0,0.0,0.0,0.0,0.0,0.0,0.0,0.0,0.0,0.0,0.0,0.0,0.0,0.0,0.0,0.0,0.0,0.0,0.0,0.0,0.0,0.0,0.0,0.0,0.0,0.0,0.0,0.0,0.0,0.0,0.0,0.0,0.0,0.0,0.0,0.0,0.0,0.0,0.0,0.0,0.0,0.0,0.0,0.0,0.0,0.0,0.0,0.0,0.0,-2.1846,-2.1885,-2.1738,-2.1327,-2.1239,-2.1103,-2.083,0.0,0.0,0.0,0.0,0.0,0.0,0.0,0.0,0.0,0.0,0.0,0.0,0.0,0.0,0.0,0.0,0.0,0.0,0.0,0.0,0.0,0.0,0.0,0.0,0.0,0.0,0.0,0.0,0.0,0.0,0.0,0.0,0.0,0.0,0.0,0.0,0.0,0.0,0.0,0.0,0.0,0.0,0.0,0.0,0.0,0.0,0.0,0.0,0.0,0.0,0.0,0.0,0.0,0.0,0.0,0.0,0.0,0.0,0.0,0.0,0.0,0.0,0.0,0.0,0.0,0.0,0.0,0.0,0.0,0.0,0.0,0.0,0.0,0.0,0.0,0.0,0.0,0.0,0.0,0.0,0.0,0.0,0.0,0.0,0.0,0.0,0.0,0.0,0.0,0.0,0.0,0.0,0.0,0.0,0.0,0.0,0.0,0.0,0.0,0.0,0.0,0.0,0.0,0.0,-2.1816,-2.1875,-2.1885,-2.1855,-2.1787,-2.1445,-2.1317,-2.167,0.0,0.0,0.0,0.0,0.0,0.0,0.0,0.0,0.0,0.0,0.0,0.0,0.0,0.0,0.0,0.0,0.0,0.0,0.0,0.0,0.0,0.0,0.0,0.0,0.0,0.0,0.0,0.0,0.0,0.0,0.0,0.0,0.0,0.0,0.0,0.0,0.0,0.0,0.0,0.0,0.0,0.0,0.0,0.0,0.0,0.0,0.0,0.0,0.0,0.0,0.0,0.0,0.0,0.0,0.0,0.0,0.0,0.0,0.0,0.0,0.0,0.0,0.0,0.0,0.0,0.0,0.0,0.0,0.0,0.0,0.0,0.0,0.0,0.0,0.0,0.0,0.0,0.0,0.0,0.0,0.0,0.0,0.0,0.0,0.0,0.0,0.0,0.0,0.0,0.0,0.0,0.0,0.0,0.0,0.0,0.0,0.0,0.0,0.0,0.0,0.0,0.0,0.0,-2.2227,-2.2314,-2.2539,-2.2568,-2.2471,-2.2246,-2.2041,-2.1914,-2.1885,-2.1279,0.0,0.0,0.0,0.0,0.0,0.0,0.0,0.0,0.0,0.0,0.0,0.0,0.0,0.0,0.0,0.0,0.0,0.0,0.0,0.0,0.0,0.0,0.0,0.0,0.0,0.0,0.0,0.0,0.0,0.0,0.0,0.0,0.0,0.0,0.0,0.0,0.0,0.0,0.0,0.0,0.0,0.0,0.0,0.0,0.0,0.0,0.0,0.0,0.0,0.0,0.0,0.0,0.0,0.0,0.0,0.0,0.0,0.0,0.0,0.0,0.0,0.0,0.0,0.0,0.0,0.0,0.0,0.0,0.0,0.0,0.0,0.0,0.0,0.0,0.0,0.0,0.0,0.0,0.0,0.0,0.0,0.0,0.0,0.0,0.0,0.0,0.0,0.0,0.0,0.0,0.0,0.0,0.0,0.0,0.0,0.0,0.0,0.0,0.0,0.0,0.0,0.0,-2.2656,-2.274,-2.3062,-2.3091,-2.2964,-2.2685,-2.2568,-2.2412,-2.2197,-2.1541,0.0,0.0,0.0,0.0,0.0,0.0,0.0,0.0,0.0,0.0,0.0,0.0,0.0,0.0,0.0,0.0,0.0,0.0,0.0,0.0,0.0,0.0,0.0,0.0,0.0,0.0,0.0,0.0,0.0,0.0,0.0,0.0,0.0,0.0,0.0,0.0,0.0,0.0,0.0,0.0,0.0,0.0,0.0,0.0,0.0,0.0,0.0,0.0,0.0,0.0,0.0,0.0,0.0,0.0,0.0,0.0,0.0,0.0,0.0,0.0,0.0,0.0,0.0,0.0,0.0,0.0,0.0,0.0,0.0,0.0,0.0,0.0,0.0,0.0,0.0,0.0,0.0,0.0,0.0,0.0,0.0,0.0,0.0,0.0,0.0,0.0,0.0,0.0,0.0,0.0,0.0,0.0,0.0,0.0,0.0,0.0,0.0,0.0,0.0,0.0,0.0,0.0,-2.3052,-2.3062,-2.3091,-2.3091,-2.3081,-2.3052,-2.2734,-2.2666,-2.2984,-2.1863,0.0,0.0,0.0,0.0,0.0,0.0,0.0,0.0,0.0,0.0,0.0,0.0,0.0,0.0,0.0,0.0,0.0,0.0,0.0,0.0,0.0,0.0,0.0,0.0,0.0,0.0,0.0,0.0,0.0,0.0,0.0,0.0,0.0,0.0,0.0,0.0,0.0,0.0,0.0,0.0,0.0,0.0,0.0,0.0,0.0,0.0,0.0,0.0,0.0,0.0,0.0,0.0,0.0,0.0,0.0,0.0,0.0,0.0,0.0,0.0,0.0,0.0,0.0,0.0,0.0,0.0,0.0,0.0,0.0,0.0,0.0,0.0,0.0,0.0,0.0,0.0,0.0,0.0,0.0,0.0,0.0,0.0,0.0,0.0,0.0,0.0,0.0,0.0,0.0,0.0,0.0,0.0,0.0,0.0,0.0,0.0,0.0,0.0,0.0,0.0,0.0,0.0,-2.3091,-2.3091,0.0,-2.3091,-2.3091,-2.3091,-2.2955,-2.2925,-2.3081,0.0,0.0,0.0,0.0,0.0,0.0,0.0,0.0,0.0,0.0,0.0,0.0,0.0,0.0,0.0,0.0,0.0,0.0,0.0,0.0,0.0,0.0,0.0,0.0,0.0,0.0,0.0,0.0,0.0,0.0,0.0,0.0,0.0,0.0,0.0,0.0,0.0,0.0,0.0,0.0,0.0,0.0,0.0,0.0,0.0,0.0,0.0,0.0,0.0,0.0,0.0,0.0,0.0,0.0,0.0,0.0,0.0,0.0,0.0,0.0,0.0,0.0,0.0,0.0,0.0,0.0,0.0,0.0,0.0,0.0,0.0,0.0,0.0,0.0,0.0,0.0,0.0,0.0,0.0,0.0,0.0,0.0,0.0,0.0,0.0,0.0,0.0,0.0,0.0,0.0,0.0,0.0,0.0,0.0,0.0,0.0,0.0,0.0,0.0,0.0,0.0,0.0,-2.3062,-2.3091,-2.3091,0.0,-2.3091,-2.3091,-2.3091,-2.3091,-2.3091,-2.3091,0.0,0.0,0.0,0.0,0.0,0.0,0.0,0.0,0.0,0.0,0.0,0.0,0.0,0.0,0.0,0.0,0.0,0.0,0.0,0.0,0.0,0.0,0.0,0.0,0.0,0.0,0.0,0.0,0.0,0.0,0.0,0.0,0.0,0.0,0.0,0.0,0.0,0.0,0.0,0.0,0.0,0.0,0.0,0.0,0.0,0.0,0.0,0.0,0.0,0.0,0.0,0.0,0.0,0.0,0.0,0.0,0.0,0.0,0.0,0.0,0.0,0.0,0.0,0.0,0.0,0.0,0.0,0.0,0.0,0.0,0.0,0.0,0.0,0.0,0.0,0.0,0.0,0.0,0.0,0.0,0.0,0.0,0.0,0.0,0.0,0.0,0.0,0.0,0.0,0.0,0.0,0.0,0.0,0.0,0.0,0.0,0.0,0.0,0.0,0.0,0.0,0.0,-2.3091,-2.3091,-2.3091,-2.3091,-2.3091,-2.3091,-2.3091,-2.3091,-2.3091,0.0,0.0,0.0,0.0,0.0,0.0,0.0,0.0,0.0,0.0,0.0,0.0,0.0,0.0,0.0,0.0,0.0,0.0,0.0,0.0,0.0,0.0,0.0,0.0,0.0,0.0,0.0,0.0,0.0,0.0,0.0,0.0,0.0,0.0,0.0,0.0,0.0,0.0,0.0,0.0,0.0,0.0,0.0,0.0,0.0,0.0,0.0,0.0,0.0,0.0,0.0,0.0,0.0,0.0,0.0,0.0,0.0,0.0,0.0,0.0,0.0,0.0,0.0,0.0,0.0,0.0,0.0,0.0,0.0,0.0,0.0,0.0,0.0,0.0,0.0,0.0,0.0,0.0,0.0,0.0,0.0,0.0,0.0,0.0,0.0,0.0,0.0,0.0,0.0,0.0,0.0,0.0,0.0,0.0,0.0,0.0,0.0,0.0,0.0,0.0,0.0,0.0,0.0,-2.3091,-2.3091,-2.3091,-2.3091,-2.3091,-2.3091,-2.3091,-2.3091,-2.3091,-2.3091,0.0,0.0,0.0,0.0,0.0,0.0,0.0,0.0,0.0,0.0,0.0,0.0,0.0,0.0,0.0,0.0,0.0,0.0,0.0,0.0,0.0,0.0,0.0,0.0,0.0,0.0,0.0,0.0,0.0,0.0,0.0,0.0,0.0,0.0,0.0,0.0,0.0,0.0,0.0,0.0,0.0,0.0,0.0,0.0,0.0,0.0,0.0,0.0,0.0,0.0,0.0,0.0,0.0,0.0,0.0,0.0,0.0,0.0,0.0,0.0,0.0,0.0,0.0,0.0,0.0,0.0,0.0,0.0,0.0,0.0,0.0,0.0,0.0,0.0,0.0,0.0,0.0,0.0,0.0,0.0,0.0,0.0,0.0,0.0,0.0,0.0,0.0,0.0,0.0,0.0,0.0,0.0,0.0,0.0,0.0,0.0,0.0,0.0,0.0,0.0,0.0,0.0,-2.3091,-2.3091,-2.3091,-2.3091,-2.3091,-2.3091,-2.3091,-2.3091,-2.3091,-2.3091,0.0,0.0,0.0,0.0,0.0,0.0,0.0,0.0,0.0,0.0,0.0,0.0,0.0,0.0,0.0,0.0,0.0,0.0,0.0,0.0,0.0,0.0,0.0,0.0,0.0,0.0,0.0,0.0,0.0,0.0,0.0,0.0,0.0,0.0,0.0,0.0,0.0,0.0,0.0,0.0,0.0,0.0,0.0,0.0,0.0,0.0,0.0,0.0,0.0,0.0,0.0,0.0,0.0,0.0,0.0,0.0,0.0,0.0,0.0,0.0,0.0,0.0,0.0,0.0,0.0,0.0,0.0,0.0,0.0,0.0,0.0,0.0,0.0,0.0,0.0,0.0,0.0,0.0,0.0,0.0,0.0,0.0,0.0,0.0,0.0,0.0,0.0,0.0,0.0,0.0,0.0,0.0,0.0,0.0,0.0,0.0,0.0,0.0,0.0,0.0,0.0,0.0,-2.3149,-2.3149,-2.3169,-2.3208,-2.3208,-2.3198,-2.3159,-2.3149,-2.314,-2.3091,0.0,0.0,0.0,0.0,0.0,0.0,0.0,0.0,0.0,0.0,0.0,0.0,0.0,0.0,0.0,0.0,0.0,0.0,0.0,0.0,0.0,0.0,0.0,0.0,0.0,0.0,0.0,0.0,0.0,0.0,0.0,0.0,0.0,0.0,0.0,0.0,0.0,0.0,0.0,0.0,0.0,0.0,0.0,0.0,0.0,0.0,0.0,0.0,0.0,0.0,0.0,0.0,0.0,0.0,0.0,0.0,0.0,0.0,0.0,0.0,-1.9338,0.0,0.0,0.0,0.0,0.0,0.0,0.0,0.0,0.0,0.0,0.0,0.0,0.0,0.0,0.0,0.0,0.0,0.0,0.0,0.0,0.0,0.0,0.0,0.0,0.0,0.0,0.0,0.0,0.0,0.0,0.0,0.0,0.0,0.0,0.0,0.0,0.0,0.0,0.0,0.0,0.0,-2.3603,-2.3652,-2.3779,-2.4111,-2.4095,-2.4014,-2.3682,-2.3652,-2.3506,-2.312,0.0,0.0,0.0,0.0,0.0,0.0,0.0,0.0,0.0,0.0,0.0,0.0,0.0,0.0,0.0,0.0,0.0,0.0,0.0,0.0,0.0,0.0,0.0,0.0,0.0,0.0,0.0,0.0,0.0,0.0,0.0,0.0,0.0,0.0,0.0,0.0,0.0,0.0,0.0,0.0,0.0,0.0,0.0,0.0,0.0,0.0,0.0,0.0,0.0,0.0,0.0,0.0,0.0,0.0,0.0,0.0,0.0,0.0,0.0,0.0,0.0,-1.9882,0.0,0.0,0.0,0.0,0.0,0.0,0.0,0.0,0.0,0.0,0.0,0.0,0.0,0.0,0.0,0.0,0.0,0.0,0.0,0.0,0.0,0.0,0.0,0.0,0.0,0.0,0.0,0.0,0.0,0.0,0.0,0.0,0.0,0.0,0.0,0.0,0.0,0.0,0.0,0.0,-2.4062,-2.4092,-2.418,-2.4394,-2.4414,-2.4326,-2.4111,-2.4092,-2.3906,-2.3477,-2.3879,0.0,0.0,0.0,0.0,0.0,0.0,0.0,0.0,0.0,0.0,0.0,0.0,0.0,0.0,0.0,0.0,0.0,0.0,0.0,0.0,0.0,0.0,0.0,0.0,0.0,0.0,0.0,0.0,0.0,0.0,0.0,0.0,0.0,0.0,0.0,0.0,0.0,0.0,0.0,0.0,0.0,0.0,0.0,0.0,0.0,0.0,0.0,0.0,0.0,0.0,0.0,0.0,0.0,0.0,0.0,-2.1185,-2.1116,-2.1348,-2.1696,-2.1032,-2.0809,-2.0946,0.0,0.0,0.0,0.0,0.0,0.0,0.0,0.0,0.0,0.0,0.0,0.0,0.0,0.0,0.0,0.0,0.0,0.0,0.0,0.0,0.0,0.0,0.0,0.0,0.0,-2.3149,-2.3208,0.0,0.0,0.0,0.0,0.0,0.0,0.0,0.0,0.0,0.0,0.0,0.0,-2.4521,-2.4531,-2.456,-2.4639,-2.4648,-2.4609,-2.4531,-2.4531,-2.4355,-2.3926,-2.3998,-2.4147,0.0,0.0,0.0,0.0,0.0,0.0,0.0,0.0,0.0,0.0,0.0,0.0,0.0,0.0,0.0,0.0,0.0,0.0,0.0,0.0,0.0,0.0,0.0,0.0,0.0,0.0,0.0,0.0,0.0,0.0,0.0,0.0,-1.6257,-1.6433,0.0,0.0,0.0,0.0,0.0,0.0,0.0,0.0,0.0,0.0,0.0,0.0,0.0,0.0,-2.1139,-2.1186,-2.1432,-2.197,-2.2164,-2.2333,-2.238,-2.2537,-2.2659,-2.2706,-2.2597,0.0,-2.197,-2.1733,0.0,0.0,0.0,0.0,0.0,0.0,0.0,0.0,0.0,0.0,0.0,0.0,0.0,0.0,0.0,0.0,0.0,0.0,0.0,0.0,0.0,0.0,-2.3091,-2.3091,-2.3428,-2.3701,0.0,-2.3408,-2.3091,-2.3091,0.0,0.0,0.0,0.0,0.0,0.0,0.0,0.0,-2.4979,-2.5028,-2.5127,-2.5469,-2.5518,-2.54,-2.5057,-2.5028,-2.4795,-2.4365,-2.4675,-2.4621,-2.3925,-2.4524,0.0,0.0,0.0,0.0,0.0,0.0,0.0,0.0,0.0,0.0,0.0,0.0,0.0,0.0,0.0,0.0,0.0,0.0,0.0,0.0,0.0,0.0,0.0,0.0,0.0,0.0,0.0,0.0,0.0,-1.738,-1.8003,-1.8208,-1.7757,-1.7674,0.0,0.0,0.0,0.0,0.0,0.0,0.0,0.0,0.0,-2.1126,-2.1268,-2.1678,-2.2456,-2.2544,-2.2852,-2.3329,-2.3663,-2.3821,-2.383,-2.4157,-2.4317,-2.4317,-2.4317,-2.4208,-2.3936,-2.2733,-2.2167,-2.2016,0.0,0.0,0.0,0.0,0.0,-2.2244,-2.2327,0.0,0.0,0.0,0.0,0.0,0.0,0.0,0.0,0.0,0.0,0.0,0.0,0.0,0.0,-2.3812,-2.4004,-2.4141,-2.4141,-2.3994,-2.3812,0.0,-2.4014,-2.4141,-2.4141,0.0,0.0,0.0,0.0,0.0,-2.542,-2.5439,-2.5518,-2.5664,-2.5693,-2.5615,-2.5459,-2.5439,-2.5482,-2.5623,-2.5273,-2.5169,-2.5357,-2.5209,-2.5447,0.0,0.0,0.0,0.0,0.0,0.0,0.0,0.0,0.0,0.0,0.0,0.0,0.0,0.0,0.0,0.0,0.0,0.0,0.0,0.0,0.0,0.0,0.0,0.0,0.0,0.0,0.0,0.0,-1.8868,-1.9445,-1.9729,-1.9188,-1.9082,0.0,0.0,0.0,0.0,0.0,0.0,-2.1309,-2.1423,-2.1807,-2.2532,-2.2668,-2.3059,-2.3768,-2.3916,-2.4161,-2.4523,-2.4785,-2.4931,-2.4941,-2.5234,-2.5424,-2.5424,-2.5424,-2.5424,-2.528,-2.3813,-2.312,-2.2908,-2.2955,-2.2904,0.0,-2.2953,-2.2901,-2.2857,-2.2857,-2.2904,-2.2904,-2.2998,0.0,-2.3561,-2.3728,0.0,0.0,0.0,0.0,-2.4414,-2.4414,0.0,-2.4414,-2.4414,-2.4502,-2.458,-2.458,-2.4668,-2.4687,0.0,-2.4502,-2.458,-2.458,0.0,0.0,0.0,0.0,-2.5693,-2.5693,-2.5693,-2.5693,-2.5693,-2.5693,-2.5693,-2.5693,-2.5693,-2.5875,-2.636,-2.5816,-2.5721,-2.6199,-2.5802,-2.5989,-2.6875,0.0,0.0,0.0,0.0,0.0,0.0,0.0,0.0,0.0,0.0,0.0,0.0,0.0,0.0,0.0,0.0,0.0,0.0,0.0,0.0,0.0,0.0,0.0,0.0,0.0,0.0,0.0,0.0,0.0,-2.0246,-2.0019,0.0,0.0,0.0,0.0,-2.0659,-2.0925,-2.1318,-2.2025,-2.2287,-2.3022,-2.4215,-2.4293,-2.4594,-2.5271,-2.528,-2.5341,-2.5359,-2.5387,-2.5387,-2.5396,-2.5414,-2.5424,-2.5424,-2.5424,-2.5424,-2.5362,-2.502,-2.488,-2.4792,-2.419,-2.3714,-2.3349,-2.3228,-2.2937,-2.265,-2.2857,-2.2904,-2.2951,-2.3214,-2.3626,-2.4054,-2.4054,-2.4239,0.0,0.0,-2.4414,-2.4414,-2.4414,-2.4414,-2.4414,-2.4414,-2.4736,-2.5077,-2.5077,-2.5371,-2.5372,0.0,-2.4756,-2.5077,-2.5077,0.0,-2.5654,-2.5654,-2.5674,-2.5693,-2.5693,-2.5693,-2.5693,-2.5693,-2.5693,-2.5693,-2.5693,-2.5693,-2.5723,-2.5752,-2.6222,-2.6145,-2.5236,-2.6294,-2.6797,-2.6517,-2.7521,0.0,0.0,0.0,0.0,0.0,0.0,0.0,0.0,0.0,0.0,0.0,0.0,0.0,0.0,0.0,0.0,0.0,0.0,0.0,0.0,0.0,0.0,0.0,0.0,0.0,0.0,0.0,0.0,-2.0643,-2.0622,0.0,0.0,-2.1391,-2.1739,-2.2173,-2.2663,-2.327,-2.393,-2.405,-2.4389,-2.503,-2.5039,-2.5292,-2.58,-2.58,-2.5938,-2.6151,-2.6151,-2.6151,-2.6151,-2.6151,-2.6151,-2.6151,-2.6151,-2.6151,-2.6151,-2.6044,-2.5733,-2.5249,-2.499,-2.4793,-2.4666,-2.4623,-2.4528,-2.44,-2.45,-2.451,-2.451,-2.4601,-2.4992,-2.5431,-2.5431,-2.5738,-2.6094,-2.6094,-2.6094,-2.6094,-2.6094,-2.6094,-2.6094,-2.6094,-2.6211,-2.6318,-2.6318,-2.6445,-2.6465,-2.6152,-2.5996,-2.5918,-2.5918,-2.6269,-2.6562,-2.6562,-2.6562,-2.6562,-2.6562,-2.6562,-2.6562,-2.6562,-2.6562,-2.6445,-2.6182,-2.6162,-2.631,-2.6658,-2.6267,-2.633,-2.6988,-2.7553,-2.7942,-2.8157,-2.9039,-2.9509,0.0,0.0,0.0,0.0,0.0,0.0,0.0,0.0,0.0,0.0,0.0,0.0,0.0,0.0,0.0,0.0,0.0,0.0,0.0,0.0,0.0,0.0,0.0,0.0,0.0,0.0,-2.0626,-2.1011,-2.1174,-2.1396,-2.1756,-2.2397,-2.2979,-2.3354,-2.3976,-2.4607,-2.5169,-2.5302,-2.548,-2.5775,-2.5784,-2.5903,-2.6223,-2.6223,-2.637,-2.6591,-2.6591,-2.6591,-2.6591,-2.6591,-2.6591,-2.6591,-2.6591,-2.6591,-2.6591,-2.6591,-2.627,-2.5784,-2.5784,-2.5693,-2.5617,-2.5617,-2.5534,-2.5424,-2.5424,-2.5476,-2.5528,-2.5622,-2.5975,-2.6326,-2.6439,-2.6695,-2.7012,-2.7012,-2.7012,-2.7012,-2.7012,-2.7012,-2.7012,-2.7012,-2.7012,-2.7012,-2.7012,-2.7012,-2.7012,-2.7012,-2.6787,-2.6602,-2.6602,-2.6836,-2.7012,-2.7012,-2.7012,-2.7012,-2.7012,-2.7012,-2.7012,-2.7012,-2.7012,-2.6904,-2.6621,-2.6602,-2.6695,-2.6901,-2.661,-2.6822,-2.7774,-2.7922,-2.84,-2.9276,-3.0141,-3.049,-3.0331,0.0,0.0,0.0,0.0,0.0,0.0,0.0,0.0,0.0,0.0,0.0,0.0,0.0,0.0,0.0,0.0,0.0,0.0,0.0,0.0,0.0,0.0,0.0,-2.0585,-2.0751,-2.1045,-2.1405,-2.179,-2.2175,-2.2594,-2.3245,-2.3782,-2.4079,-2.471,-2.5196,-2.5576,-2.587,-2.6214,-2.6582,-2.6591,-2.6591,-2.6591,-2.6591,-2.6591,-2.6609,-2.6609,-2.6619,-2.6628,-2.6609,-2.6609,-2.6609,-2.6591,-2.6591,-2.6591,-2.6591,-2.6591,-2.6591,-2.6591,-2.6334,-2.603,-2.603,-2.5791,-2.546,-2.546,-2.5617,-2.5876,-2.6168,-2.6416,-2.6683,-2.6948,-2.7051,-2.7051,-2.7051,-2.7051,-2.7051,-2.7051,-2.7051,-2.7051,-2.7051,-2.7051,-2.7051,-2.7051,-2.7051,-2.7051,-2.7051,-2.7051,-2.7051,-2.7041,-2.7041,-2.7051,-2.7051,-2.7051,0.0,-2.7051,-2.7051,-2.7051,-2.7051,-2.7051,-2.7051,-2.7041,-2.7031,-2.6855,-2.6435,-2.7308,-2.7658,-2.7278,-2.7309,-2.8128,-2.9729,-3.0664,-3.097,-3.0633,0.0,0.0,0.0,0.0,0.0,0.0,0.0,0.0,0.0,0.0,0.0,0.0,0.0,0.0,0.0,0.0,0.0,0.0,0.0,0.0,0.0,0.0,-2.1259,-2.1156,-2.1459,-2.1824,-2.2242,-2.2578,-2.2963,-2.3348,-2.399,-2.4463,-2.4506,-2.5317,-2.5847,-2.5955,-2.6245,-2.6472,-2.6582,-2.6591,-2.6591,-2.6591,-2.6591,-2.6738,-2.7013,-2.7013,-2.7169,-2.7435,-2.7141,-2.7013,-2.7004,-2.671,-2.6591,-2.6591,-2.6591,-2.6591,-2.6591,-2.6591,-2.6518,-2.6417,-2.6417,-2.6344,-2.6252,-2.6252,-2.6458,-2.6663,-2.6761,-2.7134,-2.7559,-2.7612,-2.7781,-2.7939,-2.7939,-2.7939,-2.7939,-2.7939,-2.7939,-2.7939,-2.7939,-2.7939,-2.7939,-2.7939,-2.7939,-2.7939,-2.7939,-2.7939,-2.7851,-2.7539,-2.7744,-2.7939,-2.7939,0.0,0.0,-2.7939,-2.7939,-2.7939,-2.7939,-2.7939,-2.7822,-2.751,-2.749,-2.7305,0.0,-2.6793,-2.7374,-2.8657,-2.8617,-2.9409,-3.1272,-3.1531,-3.1531,0.0,0.0,0.0,0.0,0.0,0.0,0.0,0.0,0.0,0.0,0.0,0.0,0.0,0.0,0.0,0.0,0.0,0.0,0.0,0.0,0.0,0.0,-2.1737,-2.1996,-2.2321,-2.2287,-2.2474,-2.3006,-2.3348,-2.3674,-2.3905,-2.4527,-2.4907,-2.4907,-2.5664,-2.6127,-2.6127,-2.6573,-2.6839,-2.6839,-2.6995,-2.7077,-2.7077,-2.7077,-2.7196,-2.7426,-2.7426,-2.7545,-2.7813,-2.7583,-2.7426,0.0,-2.7178,-2.7077,-2.7077,-2.7077,-2.6985,0.0,0.0,0.0,0.0,0.0,-2.6591,-2.6591,-2.6591,-2.6691,-2.6836,-2.6935,-2.726,-2.7584,-2.7799,-2.8014,-2.8184,-2.8291,-2.8291,-2.8291,-2.8291,-2.8291,-2.8291,-2.8291,-2.8291,-2.8291,-2.8291,-2.8291,-2.8291,-2.8291,0.0,0.0,-2.7969,-2.8135,-2.8291,-2.8291,-2.8291,-2.8291,0.0,-2.8291,-2.8291,-2.8291,-2.8291,-2.8193,-2.7949,-2.8383,0.0,0.0,0.0,-2.796,-2.8812,-3.0075,0.0,0.0,0.0,-3.2176,0.0,0.0,0.0,0.0,-3.0306,-3.0118,0.0,0.0,0.0,0.0,0.0,0.0,0.0,0.0,0.0,0.0,0.0,0.0,0.0,0.0,0.0,0.0,-2.2486,-2.298,-2.3657,-2.3169,-2.3032,-2.3701,-2.4068,-2.4244,-2.4244,-2.4818,-2.5165,-2.5165,-2.5778,-2.6135,-2.6135,0.0,0.0,0.0,0.0,-2.7822,-2.7822,-2.7822,-2.7849,-2.7895,-2.7895,-2.7914,-2.7902,-2.7914,-2.7895,-2.7895,-2.784,-2.7822,-2.7822,-2.7822,-2.761,-2.7196,-2.6756,-2.6591,-2.6591,-2.6591,-2.6591,0.0,0.0,0.0,0.0,-2.6944,-2.7043,-2.7206,-2.7745,-2.7906,-2.8014,-2.8237,-2.8291,-2.8291,-2.8291,-2.8291,-2.8291,-2.8291,-2.8291,-2.8291,-2.8291,-2.8291,-2.8291,-2.8291,-2.8291,-2.8291,-2.8291,-2.8291,-2.8291,-2.8291,-2.8291,0.0,-2.8291,-2.8291,-2.8291,-2.8291,0.0,0.0,-2.8291,-2.926,-2.935,-2.8016,-2.889,-2.9218,-2.8619,-3.1425,-3.2495,-3.1543,-3.2519,-3.283,-3.2303,-3.2303,-3.2064,-3.1574,-3.1449,-3.1386,0.0,0.0,0.0,0.0,0.0,0.0,0.0,0.0,0.0,0.0,0.0,0.0,0.0,0.0,0.0,-2.2826,-2.3254,-2.3605,-2.4068,-2.3999,-2.3956,-2.4102,-2.447,-2.471,-2.471,-2.4825,-2.4868,-2.4868,-2.5749,-2.6252,-2.6252,-2.7144,0.0,-2.7711,-2.7785,-2.7822,-2.7822,-2.7822,-2.7939,-2.8269,0.0,0.0,-2.8737,-2.8416,-2.8269,-2.8251,-2.7911,-2.7822,-2.7822,-2.7822,-2.7776,-2.7638,-2.6866,-2.6591,-2.6591,-2.6591,-2.6591,-2.6591,-2.6591,-2.6736,-2.6935,-2.6989,-2.7314,-2.7745,-2.7853,-2.8067,0.0,-2.8291,-2.8291,-2.8291,-2.8291,-2.8291,-2.8291,-2.8291,-2.8291,-2.8291,-2.8291,-2.8291,-2.8291,-2.8291,-2.8291,-2.8291,-2.8291,-2.8291,-2.8291,-2.8291,-2.8291,-2.8291,-2.8291,-2.8291,-2.8291,-2.8291,-2.8291,-2.8291,-2.8291,-2.926,-2.9786,-2.9495,-3.0111,-3.0702,-3.1106,-3.1391,-3.1974,-3.2804,-3.2816,-3.2846,-3.2918,-3.2918,-3.2855,-3.2729,-3.1813,-3.1386,0.0,0.0,0.0,0.0,0.0,0.0,0.0,0.0,0.0,0.0,0.0,-2.1056,0.0,0.0,-2.2916,-2.3349,-2.3721,-2.4085,-2.447,-2.453,-2.453,-2.453,-2.4701,-2.4821,-2.4821,-2.4984,-2.5151,-2.5328,-2.6118,-2.6613,-2.6613,-2.757,-2.8019,-2.7837,-2.8211,-2.837,-2.837,-2.837,-2.848,-2.8691,-2.8691,-2.8792,-2.8975,-2.8783,-2.8691,-2.8682,-2.8471,-2.837,-2.8361,-2.8159,-2.8077,-2.8022,-2.7416,-2.7059,-2.6885,-2.6885,-2.6756,-2.6591,-2.6591,-2.6691,-2.6791,-2.6791,-2.7107,-2.7476,-2.7584,-2.7853,-2.813,-2.8237,-2.8291,-2.8291,-2.8291,-2.8291,-2.8291,-2.8291,-2.8291,-2.8291,-2.8291,-2.8291,-2.8291,-2.8291,-2.8291,-2.8291,-2.8291,-2.8291,-2.8291,-2.8291,-2.8291,-2.8291,-2.8291,-2.8291,-2.8291,-2.8291,-2.8291,-2.8291,-2.8291,-2.926,-3.013,-3.0691,-3.1548,-3.1854,-3.1506,-3.2464,-3.3011,-3.2977,-3.3217,-3.3352,-3.3483,-3.3206,-3.3124,-3.3111,-3.2546,-3.2227,0.0,0.0,0.0,0.0,0.0,0.0,0.0,0.0,-1.9763,-2.0769,-2.1595,-2.2102,-2.2153,-2.2896,-2.3558,-2.3808,-2.4136,-2.4407,-2.4778,-2.4821,-2.4821,-2.4821,-2.4821,-2.4847,-2.4924,-2.5198,-2.5574,-2.5992,-2.6589,-2.6973,-2.7031,-2.7939,-2.8273,-2.802,-2.8633,-2.8984,-2.8984,-2.8984,-2.8984,-2.8984,-2.8984,-2.8984,-2.8984,-2.8984,-2.8984,-2.8984,-2.8984,-2.8984,-2.8957,-2.8645,-2.8507,-2.8471,-2.8132,-2.7765,-2.7407,-2.7381,-2.704,-2.6701,-2.6701,-2.6655,-2.6591,-2.6636,-2.6836,-2.7152,-2.7431,-2.7691,-2.8014,-2.8237,-2.8291,-2.8291,-2.8291,-2.8291,-2.8291,-2.8291,-2.8291,-2.8291,-2.8291,-2.8291,-2.8291,-2.8291,-2.8291,-2.8291,-2.8291,-2.8291,-2.8291,-2.8291,-2.8291,-2.8291,-2.8291,-2.8291,-2.8291,-2.8291,-2.8291,-2.8398,-2.8601,-2.9618,-3.0691,-3.183,-3.2739,-3.2818,-3.2002,-3.3528,-3.4061,-3.3275,-3.374,-3.4016,-3.406,-3.3608,-3.3345,-3.3275,-3.3275,-3.3224,-1.425,-1.5284,0.0,-1.7312,-1.7909,-1.8709,0.0,0.0,-2.0766,-2.1812,-2.261,-2.322,-2.3431,-2.3834,-2.4133,-2.4176,-2.4475,-2.477,-2.4812,-2.4821,-2.4821,-2.4821,-2.4821,-2.4949,-2.5275,-2.5343,-2.5677,-2.6292,-2.6743,-2.7147,-2.7431,-2.811,-2.8453,-2.8453,-2.8788,-2.8984,-2.8984,-2.8984,-2.8984,-2.8984,-2.8984,-2.8984,-2.8984,-2.8984,-2.8984,-2.8984,-2.8984,-2.8984,-2.8975,-2.8938,-2.892,-2.8911,-2.8865,-2.8608,-2.8214,-2.7838,-2.7509,-2.7114,-2.7114,-2.6885,-2.6636,-2.689,-2.7161,-2.7431,-2.7745,-2.8014,-2.8237,-2.8291,-2.8291,-2.8291,-2.8291,-2.8291,-2.8291,-2.8291,-2.8291,-2.8291,-2.8291,-2.8291,-2.8291,-2.8291,-2.8291,-2.8291,-2.8291,-2.8291,-2.8291,-2.8291,-2.8291,-2.8291,-2.8291,-2.8291,-2.8291,-2.8291,-2.8291,-2.8698,-2.9618,-3.0753,-3.188,-3.2951,-3.3151,-3.3685,-3.4727,-3.3621,-3.3648,-3.491,-3.4516,-3.4424,-3.4625,-3.4562,-3.4286,-3.3809,-3.3809,-3.3545,-1.5971,0.0,0.0,0.0,-2.01,-2.0563,-2.1611,-2.1832,-2.2045,-2.2892,-2.3464,-2.3883,-2.3999,-2.4316,-2.4573,0.0,-2.471,-2.4821,-2.4821,-2.4821,-2.4898,-2.5112,-2.5138,-2.5198,-2.5352,-2.5763,-2.6263,-2.672,-2.7077,-2.7414,-2.7771,-2.8239,-2.8526,-2.8526,-2.8806,-2.9094,-2.9324,-2.9324,-2.9452,-2.969,-2.969,-2.969,-2.9681,-2.9434,-2.9204,-2.8984,-2.8984,-2.8984,-2.8984,-2.8984,-2.8984,-2.8984,-2.8984,-2.8883,-2.8691,-2.8278,-2.7875,-2.7574,-2.7574,-2.726,-2.6986,-2.7087,-2.7249,-2.7431,-2.7593,-2.7916,-2.8291,-2.8291,-2.8291,-2.8291,-2.8291,-2.8291,-2.8291,-2.8291,-2.8291,-2.8291,-2.8291,-2.8291,-2.8291,-2.8291,-2.8291,-2.8291,-2.8291,-2.8291,-2.8291,-2.8291,-2.8291,-2.8291,-2.8291,-2.8291,-2.8291,-2.8291,-2.8291,-2.8495,-2.89,-2.9974,-3.1114,-3.2185,-3.2851,-3.3598,-3.4458,-3.445,-3.4619,-3.4954,-3.5015,-3.5078,-3.5157,-3.4831,-3.4555,-3.4374,-3.4374,-3.4261,-1.7015,0.0,0.0,-2.0982,-2.1728,-2.2173,-2.2823,-2.3043,-2.3239,-2.3768,-2.4127,-2.4393,-2.4393,-2.4578,-2.4821,-2.4821,-2.4821,-2.4821,-2.4821,-2.4821,-2.4958,-2.5326,-2.5463,-2.5566,-2.5669,-2.6165,-2.6652,-2.712,-2.7313,-2.759,-2.796,-2.8208,-2.8442,-2.8679,-2.897,-2.9342,-2.9736,-2.9745,-2.9892,-3.0204,-3.0204,-3.0204,-3.0195,-2.9883,-2.9525,-2.914,-2.914,-2.9085,-2.8984,-2.8984,-2.8984,-2.8984,-2.8984,-2.8984,-2.8948,-2.8663,-2.8297,-2.7996,-2.7996,-2.7673,-2.7399,-2.7455,-2.7456,-2.7503,-2.7666,-2.7949,-2.8184,-2.8291,-2.8291,-2.8291,-2.8291,-2.8291,-2.8291,-2.8291,-2.8291,-2.8291,-2.8291,-2.8291,-2.8291,-2.8291,-2.8291,-2.8291,-2.8291,-2.8291,-2.8291,-2.8291,-2.8291,-2.8291,-2.8291,-2.8291,-2.8291,-2.8291,-2.8291,-2.8291,-2.8291,-2.926,-3.039,-3.1524,-3.26,-3.3549,-3.4299,-3.5163,-3.5464,-3.5138,-3.5546,-3.5768,-3.5768,-3.5366,-3.5102,-3.4906,-3.4906,-3.4818,0.0,0.0,-2.0232,-2.0934,-2.2067,-2.3186,-2.3597,-2.3894,-2.415,-2.4159,-2.453,-2.4804,-2.4804,-2.4812,-2.4821,-2.4821,-2.4821,-2.4821,-2.4821,-2.4821,-2.4958,-2.5326,-2.5694,-2.6062,0.0,-2.6473,-2.6755,-2.7418,-2.7237,-2.7366,-2.796,-2.802,-2.8318,-2.9067,-2.9441,-2.9755,-3.0176,-3.0176,-3.0195,-3.0204,-3.0204,-3.0204,-3.0204,-3.0185,-2.9956,-2.9553,-2.9553,-2.9333,-2.8984,-2.8984,-2.8984,-2.8984,-2.8984,-2.8984,-2.8984,-2.8966,-2.8718,-2.837,-2.837,-2.8104,-2.7803,-2.8087,-2.794,-2.7715,-2.8267,-2.8189,-2.796,-2.8237,-2.8291,-2.8291,-2.8291,-2.8291,-2.8291,-2.8291,-2.8291,-2.8291,-2.8291,-2.8291,-2.8291,-2.8291,-2.8291,-2.8291,-2.8291,-2.8291,-2.8291,-2.8291,-2.8291,-2.8291,-2.8291,-2.8291,-2.8291,-2.8291,-2.8291,-2.8291,-2.8291,-2.926,-3.039,-3.1524,-3.26,-3.3808,-3.5126,-3.5416,-3.5716,-3.5968,-3.6216,-3.638,-3.638,-3.6367,-3.6044,-3.547,-3.547,-3.5194,-1.837,0.0,-2.1052,-2.2144,-2.2987,-2.358,-2.3965,-2.4145,-2.4307,-2.4518,-2.4727,-2.4765,-2.4543,-2.4654,-2.4765,-2.4543,-2.4654,-2.4821,-2.4821,-2.5026,-2.5326,-2.5703,-2.608,0.0,0.0,0.0,0.0,-2.7228,-2.7133,-2.7366,-2.796,-2.8259,-2.8706,-2.9389,-2.9785,-3.0185,-3.0589,-3.0589,-3.0726,-3.0983,-3.0983,-3.0846,-3.0589,-3.0589,-3.0369,-2.9993,-2.9993,-2.9755,-2.9369,-2.9369,-2.9223,-2.8984,-2.8984,-2.8984,-2.8984,-2.8984,-2.8893,-2.8783,-2.8783,-2.8517,-2.8187,-2.8302,-2.8197,-2.8024,-2.8132,-2.8227,-2.8282,-2.8325,-2.8291,-2.8291,-2.8291,-2.8291,-2.8291,-2.8291,-2.8291,-2.8291,-2.8291,-2.8291,-2.8291,-2.8291,-2.8291,-2.8291,-2.8291,-2.8291,-2.8291,-2.8291,-2.8291,-2.8291,-2.8291,-2.8291,-2.8291,-2.8291,-2.8291,-2.8291,-2.8291,-2.8644,-2.9628,-3.1472,-3.1931,-3.3051,-3.5126,-3.5271,-3.5512,-3.5968,-3.6098,-3.6228,-3.6405,-3.6405,-3.6317,-3.6094,-3.6094,-3.5994,-1.9918,-2.1068,-2.1979,-2.3173,-2.3691,-2.3965,-2.4359,-2.439,-2.4513,-2.477,-2.471,-2.4599,-2.4432,-2.4432,-2.4423,-2.4264,-2.4376,-2.4543,-2.4654,-2.4969,-2.5392,-2.5833,-2.6259,0.0,0.0,0.0,0.0,-2.7073,-2.7073,-2.7427,-2.8154,-2.8454,-2.9027,-3.0002,-3.0268,-3.0598,-3.0992,-3.0992,-3.1121,-3.1377,-3.1377,-3.124,-3.0992,-3.0992,-3.0781,-3.0406,-3.0406,-3.0094,-2.9571,-2.9571,-2.9342,-2.8984,-2.8984,-2.8984,-2.8984,-2.8984,-2.8984,-2.8984,-2.8984,-2.8819,-2.8599,-2.8599,-2.8449,-2.8282,-2.8286,-2.8284,-2.8339,-2.8387,-2.8364,-2.8291,-2.8291,-2.8291,-2.8291,-2.8291,-2.8291,-2.8291,-2.8291,-2.8291,-2.8291,-2.8291,-2.8291,-2.8291,-2.8291,-2.8291,-2.8291,-2.8291,-2.8291,-2.8291,-2.8291,-2.8291,-2.8291,-2.8291,-2.8291,-2.8291,-2.8291,-2.8291,-2.9217,-3.1472,-3.1575,-3.2639,-3.4969,-3.5126,-3.5416,-3.586,-3.5968,-3.6146,-3.6405,-3.6405,-3.6405,-3.6405,-3.6405,-3.6405,-2.082,-2.1963,-2.2957,-2.3943,-2.4193,-2.4304,-2.4735,-2.4821,-2.4812,-2.474,-2.4573,-2.4351,0.0,0.0,-2.3896,-2.3913,-2.3921,-2.4033,-2.4376,-2.4735,-2.5155,0.0,0.0,0.0,0.0,0.0,0.0,-2.7073,0.0,-2.7531,-2.8508,-2.8605,-2.9287,-3.07,-3.0809,-3.0992,-3.1377,-3.1377,-3.1377,-3.1377,-3.1377,-3.1377,-3.1377,-3.1377,-3.1176,-3.0818,-3.0818,-3.0369,-2.9626,-2.9617,-2.9369,-2.9012,-2.8993,-2.8984,-2.8984,-2.8984,-2.8984,-2.8984,-2.8984,-2.8984,-2.8984,-2.8984,-2.8728,-2.8474,-2.8719,-2.8436,-2.8121,-2.8461,-2.8416,-2.8291,-2.8291,-2.8291,-2.8291,-2.8291,-2.8291,-2.8291,-2.8291,-2.8291,-2.8291,-2.8291,-2.8291,-2.8291,-2.8291,-2.8291,-2.8291,-2.8291,-2.8291,-2.8291,-2.8291,-2.8291,-2.8291,-2.8291,-2.8291,-2.8291,-2.8291,-2.8291,-2.9217,-3.1472,-3.1575,-3.2538,-3.4726,-3.503,-3.532,-3.5572,-3.586,-3.6098,-3.6405,-3.6405,-3.6405,-3.6405,-3.6405,-3.6405,-2.1932,-2.2873,-2.3587,-2.4056,-2.4453,-2.4701,-2.4795,-2.4821,-2.468,-2.4171,-2.4002,-2.3838,0.0,0.0,0.0,-2.3871,-2.4256,0.0,-2.471,-2.5025,0.0,-2.5833,0.0,-2.6645,-2.7039,-2.7073,0.0,0.0,-2.7073,-2.7418,-2.8211,-2.8756,-2.9458,-3.0402,-3.0947,-3.1277,-3.1377,-3.1377,-3.1377,-3.1377,-3.1377,-3.1377,-3.1377,-3.1377,-3.1322,-3.1231,-3.1231,-3.0937,-3.0451,-3.0158,-2.9791,-2.9388,-2.9094,-2.8984,-2.8984,-2.8984,-2.8984,-2.8984,-2.8984,-2.8984,-2.8984,-2.8984,-2.8911,-2.8891,-2.9111,-2.8823,-2.851,-2.8749,-2.8569,-2.8291,-2.8291,-2.8291,-2.8291,-2.8291,-2.8291,-2.8291,-2.8291,-2.8291,-2.8291,-2.8291,-2.8291,-2.8291,-2.8291,-2.8291,-2.8291,-2.8291,-2.8291,-2.8291,-2.8291,-2.8291,-2.8291,-2.8291,-2.8291,-2.8291,-2.8291,-2.8291,-2.9217,-3.1472,-3.1575,-3.2538,-3.4726,-3.4884,-3.5126,-3.5572,-3.5668,-3.5943,-3.6405,-3.6405,-3.6405,-3.6405,-3.6405,-3.6405,-2.2746,-2.3406,-2.3811,-2.435,-2.4603,-2.4714,-2.4442,-2.4344,-2.4179,-2.3528,-2.339,0.0,0.0,0.0,0.0,0.0,0.0,0.0,-2.4599,-2.496,-2.5335,0.0,-2.6259,0.0,-2.7039,-2.7073,-2.7073,0.0,-2.7218,-2.7589,-2.834,-2.9038,-2.9815,-3.0537,-3.1139,-3.1377,-3.1377,-3.1377,-3.1377,-3.1377,-3.1377,-3.1377,-3.1377,-3.1377,-3.1377,-3.1377,0.0,-3.1148,-3.0754,-3.036,-2.9956,-2.9534,-2.914,-2.8984,-2.8984,-2.8984,-2.8984,-2.8984,-2.8984,-2.8984,-2.8984,-2.8984,-2.8984,-2.9057,-2.9296,-2.9172,-2.8928,-2.8947,-2.8787,-2.8525,-2.834,-2.8291,-2.8291,-2.8291,-2.8291,-2.8291,-2.8291,-2.8291,-2.8291,-2.8291,-2.8291,-2.8291,-2.8291,-2.8291,-2.8291,-2.8291,-2.8291,-2.8291,-2.8291,-2.8291,-2.8291,-2.8291,-2.8291,-2.8291,-2.8291,-2.8291,-2.9006,-3.0753,-3.1319,-3.2336,-3.4017,-3.4677,-3.5175,-3.5572,-3.5716,-3.5991,-3.6405,-3.6405,-3.6405,-3.6405,-3.6405,-3.6405,-2.3322,-2.3682,-2.3879,-2.4633,-2.4821,-2.4616,-2.401,-2.3838,-2.3641,-2.2951,0.0,-2.2642,-2.2371,-2.2855,-2.3255,-2.3088,0.0,-2.4144,-2.4432,-2.4693,-2.5161,-2.5833,-2.6217,-2.6585,-2.703,-2.7073,-2.7073,-2.7073,-2.7407,-2.7899,-2.86,-2.9364,-3.0136,-3.0926,-3.1249,-3.1377,-3.1377,-3.1377,-3.1377,-3.1377,-3.1377,-3.1377,-3.1377,-3.1377,-3.1377,-3.1377,0.0,0.0,-3.0754,-3.036,-2.9956,-2.9534,-2.914,-2.8984,-2.8984,-2.8984,-2.8984,-2.8984,-2.8984,-2.8984,-2.8984,-2.8984,-2.8984,-2.9035,-2.939,-2.9404,-2.9279,-2.9134,-2.8981,-2.8818,-2.8398,-2.8291,-2.8291,-2.8291,-2.8291,-2.8291,-2.8291,-2.8291,-2.8291,-2.8291,-2.8291,-2.8291,-2.8291,-2.8291,-2.8291,-2.8291,-2.8291,-2.8291,-2.8291,-2.8291,-2.8291,-2.8291,-2.8291,-2.8291,-2.8291,-2.8291,-2.8751,-2.9817,-3.0856,-3.188,-3.3001,-3.4152,-3.492,-3.5211,-3.5464,-3.5704,-3.5966,-3.5966,-3.6061,-3.6216,-3.6216,-3.6263,-2.3468,-2.3682,-2.3853,-2.4633,-2.4821,-2.4693,-2.4347,-2.4031,0.0,0.0,-2.2417,-2.231,-2.2124,-2.2757,-2.3374,-2.3667,0.0,0.0,0.0,0.0,-2.5116,0.0,0.0,0.0,0.0,0.0,0.0,0.0,0.0,0.0,-2.8232,-2.9237,-3.0264,-3.1304,-3.1377,-3.1377,-3.1377,-3.1377,-3.1377,-3.1377,-3.1377,-3.1377,-3.1377,-3.1377,-3.1377,-3.1377,0.0,0.0,-3.0754,-3.036,-2.9956,-2.9534,-2.914,-2.8984,-2.8984,-2.8984,-2.8984,-2.8984,-2.8984,-2.8984,-2.8984,-2.8984,-2.8984,-2.9035,-2.939,-2.9404,-2.9279,-2.9134,-2.8981,-2.8818,-2.8398,-2.8291,-2.8291,-2.8291,-2.8291,-2.8291,-2.8291,-2.8291,-2.8291,-2.8291,-2.8291,-2.8291,-2.8291,-2.8291,-2.8291,-2.8291,-2.8291,-2.8291,-2.8291,-2.8291,-2.8291,-2.8291,-2.8291,-2.8291,-2.8291,-2.8291,-2.8751,-2.9817,-3.0078,-3.0794,-3.2123,-3.2426,-3.2789,-3.3262,-3.3312,-3.3511,-3.3747,-3.3747,-3.419,-3.5078,-3.5078,-3.5571,-2.3237,-2.3391,-2.3562,-2.4324,-2.4513,-2.4352,-2.3775,0.0,0.0,0.0,-2.1802,-2.1745,-2.1647,0.0,0.0,0.0,0.0,0.0,0.0,0.0,0.0,0.0,0.0,0.0,0.0,0.0,0.0,0.0,0.0,0.0,-2.8177,-2.9439,-3.0488,-3.1368,-3.1377,-3.1377,-3.1377,-3.1377,-3.1377,-3.1377,-3.1377,-3.1377,-3.1377,-3.1377,-3.1377,-3.1377,0.0,0.0,-3.0754,-3.036,-2.9956,-2.9534,-2.914,-2.8984,-2.8984,-2.8984,-2.8984,-2.8984,-2.8984,-2.8984,-2.8984,-2.8984,-2.8984,-2.9035,-2.939,-2.9404,-2.9279,-2.9134,-2.8981,-2.8818,-2.8398,-2.8291,-2.8291,-2.8291,-2.8291,-2.8291,-2.8291,-2.8291,-2.8291,-2.8291,-2.8291,-2.8291,-2.8291,-2.8291,-2.8291,-2.8291,-2.8291,-2.8291,-2.8291,-2.8291,-2.8291,-2.8291,-2.8291,-2.8291,-2.8291,-2.8291,-2.8495,-2.9059,-2.9565,-3.0182,-3.0897,-3.1757,-3.2325,-3.2588,-3.2851,-3.3051,-3.3201,-3.3201,-3.3747,-3.4775,-3.4775,-3.5367,-2.2989,-2.3117,-2.328,-2.3948,-2.411,-2.3872,-2.3041,-2.281,0.0,0.0,-2.1323,-2.135,-2.1431,0.0,-2.2374,0.0,0.0,0.0,0.0,0.0,0.0,0.0,0.0,0.0,0.0,0.0,0.0,0.0,0.0,0.0,0.0,-2.9667,-3.0694,-3.1249,-3.1377,-3.1377,-3.1377,-3.1377,-3.1377,-3.1377,-3.1377,-3.1377,-3.1377,-3.1377,-3.1377,-3.1377,0.0,0.0,0.0,-3.0231,-2.9819,-2.9415,-2.9104,-2.8984,-2.8984,-2.8984,-2.8984,-2.8984,-2.8984,-2.8984,-2.8984,-2.8984,-2.8984,-2.9044,-2.9331,-2.9346,-2.9288,-2.9031,-2.8925,-2.8818,-2.8398,-2.8291,-2.8291,-2.8291,-2.8291,-2.8291,-2.8291,-2.8291,-2.8291,-2.8291,-2.8291,-2.8291,-2.8291,-2.8291,-2.8291,-2.8291,-2.8291,-2.8291,-2.8291,-2.8291,-2.8291,-2.8291,-2.8291,-2.8291,-2.8291,-2.8291,-2.8291,-2.8291,-2.9112,-2.9565,-2.9618,-3.0897,-3.1666,-3.1819,-3.2235,-3.2448,-3.2499,-3.2499,-3.3051,-3.4129,-3.4337,-3.503,-2.2818,-2.3117,-2.3211,-2.3614,-2.377,-2.3602,-2.2975,0.0,0.0,-2.1522,-2.1346,-2.1423,-2.1771,-2.2114,-2.2509,0.0,0.0,-2.3665,0.0,0.0,0.0,0.0,0.0,0.0,0.0,0.0,0.0,0.0,0.0,0.0,0.0,-2.9945,-3.0564,-3.0935,-3.1258,-3.1377,-3.1377,-3.1377,-3.1377,-3.1377,-3.1377,-3.1377,-3.1377,-3.1377,-3.1377,-3.1359,0.0,0.0,0.0,-2.98,-2.9397,-2.903,-2.8993,-2.8984,-2.8984,-2.8984,-2.8984,-2.8984,-2.8984,-2.8984,-2.8984,-2.8984,-2.8984,-2.8984,-2.9044,-2.917,-2.9231,-2.8748,-2.8759,-2.8818,-2.8398,-2.8291,-2.8291,-2.8291,-2.8291,-2.8291,-2.8291,-2.8291,-2.8291,-2.8291,-2.8291,-2.8291,-2.8291,-2.8291,-2.8291,-2.8291,-2.8291,-2.8291,-2.8291,-2.8291,-2.8291,-2.8291,-2.8291,-2.8291,-2.8291,-2.8291,-2.8291,-2.8291,-2.8398,-2.8558,-2.8781,-2.893,-2.929,-2.9858,-2.9911,-3.0078,-3.0297,-3.0297,-3.0847,-3.1931,-3.2889,-3.3944,-2.2882,-2.3029,-2.3065,-2.3289,-2.3331,-2.3115,-2.2368,0.0,-2.2059,-2.1208,-2.1167,-2.1418,-2.1718,-2.1845,-2.2061,-2.2421,0.0,0.0,0.0,0.0,0.0,0.0,0.0,0.0,0.0,0.0,0.0,0.0,0.0,0.0,0.0,-2.9406,-3.0306,-3.087,-3.1249,-3.1377,-3.1377,-3.1377,-3.1377,-3.1377,-3.1377,-3.1377,-3.1368,-3.113,-3.102,-3.1002,0.0,0.0,0.0,-2.9644,-2.9342,-2.8984,-2.8984,-2.8984,-2.8984,-2.8984,-2.8984,-2.8984,-2.8984,-2.8984,-2.8984,-2.8984,-2.8819,-2.8627,-2.8627,-2.8633,-2.8558,-2.8304,-2.8265,-2.828,-2.8286,-2.8291,-2.8291,-2.8291,-2.8291,-2.8291,-2.8291,-2.8291,-2.8291,-2.8291,-2.8291,-2.8291,-2.8291,-2.8291,-2.8291,-2.8291,-2.8291,-2.8291,-2.8291,-2.8291,-2.8291,-2.8291,-2.8291,-2.8291,-2.8291,-2.8291,-2.8291,-2.8291,-2.8291,-2.8354,-2.8451,-2.8771,-2.9026,-2.929,-2.9669,-2.9879,-2.9994,-2.9994,-3.0536,-3.1626,-3.2689,-3.3796,-2.2815,-2.3046,-2.3116,-2.3184,-2.2963,-2.2596,0.0,0.0,-2.1507,-2.0685,-2.0863,-2.1215,-2.151,-2.155,-2.1696,-2.1968,0.0,-2.2393,0.0,0.0,0.0,0.0,0.0,0.0,0.0,0.0,0.0,0.0,0.0,0.0,0.0,0.0,-2.9725,-3.0391,-3.0956,-3.1203,-3.1203,-3.1322,-3.1322,-3.1203,-3.1203,-3.1139,-3.102,-3.0745,-3.0616,0.0,0.0,0.0,0.0,-2.9443,-2.9232,-2.8984,-2.8984,-2.8984,-2.8984,-2.8984,-2.8984,-2.8984,-2.8984,-2.8984,-2.8966,-2.8847,-2.8618,-2.8352,-2.8113,-2.8057,-2.7986,-2.791,-2.7908,-2.796,-2.8237,-2.8291,-2.8291,-2.8291,-2.8291,-2.8291,-2.8291,-2.8291,-2.8291,-2.8291,-2.8291,-2.8291,-2.8291,-2.8291,-2.8291,-2.8291,-2.8291,-2.8291,-2.8291,-2.8291,-2.8291,-2.8291,-2.8291,-2.8291,-2.8291,-2.8291,-2.8291,-2.8291,-2.8291,-2.8291,-2.8291,-2.8654,-2.892,-2.9079,-2.9511,-2.9837,-2.9994,-2.9994,-3.0391,-3.1187,-3.2538,-3.3944,-2.2746,-2.3197,-2.3397,-2.3406,-2.2708,-2.1921,0.0,-2.0925,-2.0241,-1.9973,-2.0393,-2.0891,-2.118,-2.1276,-2.1499,-2.2177,-2.2107,0.0,0.0,0.0,0.0,0.0,0.0,0.0,0.0,0.0,0.0,0.0,0.0,0.0,0.0,0.0,-2.8782,-2.9199,-3.0275,-3.08,-3.08,-3.1185,-3.1176,-3.08,-3.08,-3.0589,-3.0213,-3.0204,0.0,0.0,0.0,0.0,0.0,-2.9149,-2.8984,-2.8984,-2.8984,-2.8984,-2.8984,-2.8984,-2.8984,-2.8984,-2.8984,-2.8984,-2.892,-2.8526,-2.8397,-2.8242,-2.7435,-2.741,-2.7632,-2.7577,-2.7753,-2.796,-2.8237,-2.8291,-2.8291,-2.8291,-2.8291,-2.8291,-2.8291,-2.8291,-2.8291,-2.8291,-2.8291,-2.8291,-2.8291,-2.8291,-2.8291,-2.8291,-2.8291,-2.8291,-2.8291,-2.8291,-2.8291,-2.8291,-2.8291,-2.8291,-2.8291,-2.8291,-2.8291,-2.8291,-2.8291,-2.8291,-2.8291,-2.8291,-2.8558,-2.9079,-2.9132,-2.9396,-2.9994,-2.9994,-2.9994,-3.0047,-3.2196,-3.4337,-2.1645,-2.1879,-2.2073,-2.1879,-2.1444,-2.1002,-2.0464,-2.0321,-2.0168,-1.9678,-2.0378,-2.1081,-2.1172,-2.1528,-2.1951,-2.2229,-2.2071,0.0,0.0,0.0,0.0,0.0,0.0,0.0,0.0,0.0,0.0,0.0,0.0,0.0,0.0,0.0,-2.862,-2.9537,-3.0065,-3.0387,-3.0387,-3.0516,-3.0516,-3.0387,-3.0387,-3.0323,-3.0195,-2.9901,0.0,0.0,0.0,0.0,0.0,-2.9039,-2.8984,-2.8984,-2.8984,-2.8984,-2.8984,-2.8984,-2.8984,-2.8984,-2.8984,-2.881,-2.8563,-2.8434,-2.8022,-2.7517,-2.726,-2.7234,-2.7345,-2.7442,-2.7688,-2.796,-2.8237,-2.8291,-2.8291,-2.8291,-2.8291,-2.8291,-2.8291,-2.8291,-2.8291,-2.8291,-2.8291,-2.8291,-2.8291,-2.8291,-2.8291,-2.8291,-2.8291,-2.8291,-2.8291,-2.8291,-2.8291,-2.8291,-2.8291,-2.8291,-2.8291,-2.8291,-2.8291,-2.8291,-2.8291,-2.8291,-2.8291,-2.8461,-2.8674,-2.8834,-2.9036,-2.929,-2.9722,-2.9722,-3.0578,-3.2207,-3.2901,-3.4147,0.0,-2.1374,-2.1709,-2.1478,-2.1033,0.0,0.0,-1.9859,-1.9621,-1.9256,-2.0151,-2.1031,-2.1031,-2.1587,-2.2105,-2.209,-2.2058,0.0,0.0,0.0,0.0,0.0,0.0,0.0,0.0,0.0,0.0,0.0,0.0,0.0,0.0,0.0,-2.8362,-2.9229,-2.9699,-2.9965,-2.9965,-3.0121,-3.0121,-2.9965,-2.9965,-2.9883,-2.9736,0.0,0.0,0.0,0.0,0.0,0.0,-2.8984,-2.8984,-2.8984,-2.8984,-2.8984,-2.8984,-2.8984,-2.8883,-2.8755,-2.8755,-2.8498,-2.8132,-2.7985,-2.749,-2.6949,-2.6949,-2.6949,-2.7013,-2.7345,-2.753,-2.7799,-2.8184,-2.8291,-2.8291,-2.8291,-2.8291,-2.8291,-2.8291,-2.8291,-2.8291,-2.8291,-2.8291,-2.8291,-2.8291,-2.8291,-2.8291,-2.8291,-2.8291,-2.8291,-2.8291,-2.8291,-2.8291,-2.8291,-2.8291,-2.8291,-2.8291,-2.8291,-2.8291,-2.8291,-2.8291,-2.8291,-2.8291,-2.8461,-2.8621,-2.8684,-2.8887,-2.9079,-2.9396,-2.9338,-3.027,-3.2074,-3.2074,-3.2783,0.0,-2.1271,0.0,0.0,0.0,0.0,-2.0168,-1.9439,0.0,-1.8859,-1.9842,-2.0677,-2.0742,-2.1462,-2.2038,-2.1809,0.0,0.0,0.0,0.0,0.0,0.0,0.0,0.0,0.0,0.0,0.0,0.0,0.0,0.0,0.0,0.0,0.0,-2.8397,-2.9161,-2.9534,-2.9586,-2.992,-2.992,-2.9586,-2.9586,-2.9333,-2.8984,0.0,0.0,0.0,0.0,0.0,0.0,-2.8984,-2.8984,-2.8984,-2.8984,-2.8966,-2.8938,-2.8938,-2.8691,-2.8352,-2.8352,-2.8077,-2.7711,-2.726,-2.6885,-2.6591,-2.6591,-2.6591,-2.6691,-2.7215,-2.7377,-2.753,-2.813,-2.8291,-2.8291,-2.8291,-2.8291,-2.8291,-2.8291,-2.8291,-2.8291,-2.8291,-2.8291,-2.8291,-2.8291,-2.8291,-2.8291,-2.8291,-2.8291,-2.8291,-2.8291,-2.8291,-2.8291,-2.8291,-2.8291,-2.8291,-2.8291,-2.8291,-2.8291,-2.8291,-2.8291,-2.8291,-2.8291,-2.8291,-2.8388,-2.8635,-2.8658,-2.8797,-2.9041,-2.8909,-2.9325,-3.0219,-3.0219,-3.073,-1.9297,0.0,-1.9995,-2.0281,-1.9937,-1.9502,0.0,-1.9114,-1.8953,-1.9467,-2.0021,-2.0605,-2.1277,-2.1637,-2.1918,0.0,0.0,0.0,0.0,0.0,0.0,0.0,0.0,0.0,0.0,0.0,0.0,0.0,0.0,0.0,0.0,0.0,0.0,-2.7711,-2.8418,-2.8892,-2.9122,-2.9223,-2.9223,-2.9122,-2.9122,-2.9076,-2.8984,0.0,0.0,0.0,0.0,0.0,0.0,-2.8984,-2.8984,-2.8984,-2.8984,-2.8801,-2.8535,-2.8535,-2.8269,-2.7911,-2.7911,-2.7711,-2.7251,-2.6857,-2.6664,-2.6591,-2.6591,-2.6591,-2.6691,-2.6999,-2.726,-2.7485,-2.7906,-2.813,-2.8291,-2.8291,-2.8291,-2.8291,-2.8291,-2.8291,-2.8291,-2.8291,-2.8291,-2.8291,-2.8291,-2.8291,-2.8291,-2.8291,-2.8291,-2.8291,-2.8291,-2.8291,-2.8291,-2.8291,-2.8291,-2.8291,-2.8291,-2.8291,-2.8291,-2.8291,-2.8291,-2.8291,-2.8291,-2.8291,-2.8251,-2.8179,-2.8266,-2.835,-2.8391,-2.8583,-2.9189,-3.0219,-3.0219,-3.0552,-1.9088,-1.9371,-1.9504,-2.0046,-1.9862,-1.9558,-1.9584,-1.9309,-1.9154,-1.9798,-1.9987,-2.0385,-2.1402,0.0,0.0,0.0,0.0,0.0,0.0,0.0,0.0,0.0,0.0,0.0,0.0,0.0,0.0,0.0,0.0,0.0,0.0,0.0,0.0,0.0,-2.802,-2.8448,-2.8755,-2.8925,-2.8984,-2.8984,-2.8984,-2.8984,-2.8984,0.0,0.0,0.0,0.0,0.0,-2.8984,-2.8984,-2.8874,-2.8718,-2.8718,-2.8462,-2.8104,-2.8104,-2.7847,-2.7499,-2.7499,-2.7233,-2.6875,-2.6655,-2.6591,-2.6591,-2.6591,-2.6591,-2.6636,-2.6944,-2.7098,-2.7314,-2.7799,-2.8014,-2.813,-2.8291,-2.8291,-2.8291,-2.8291,-2.8291,-2.8291,-2.8291,-2.8291,-2.8291,-2.8291,-2.8291,-2.8291,-2.8291,-2.8291,-2.8291,-2.8291,-2.8291,-2.8291,-2.8291,-2.8291,-2.8291,-2.8291,-2.8291,-2.8291,-2.8291,-2.8291,-2.8203,-2.8018,-2.8008,-2.795,-2.7724,-2.7782,-2.7874,-2.7881,-2.801,-2.8379,-2.8866,-2.8866,-2.9014,-1.9271,-1.9679,-1.9803,-2.039,-2.0252,-1.9937,-2.011,-1.9726,-1.9494,-2.0193,0.0,0.0,0.0,-2.1835,0.0,0.0,0.0,0.0,0.0,0.0,0.0,0.0,0.0,0.0,0.0,0.0,0.0,0.0,0.0,0.0,0.0,0.0,0.0,0.0,-2.7595,-2.7902,-2.8158,-2.8683,-2.8925,-2.8984,-2.8984,-2.8984,-2.8984,-2.8984,0.0,0.0,0.0,0.0,-2.8883,-2.8819,-2.8599,-2.8297,-2.8297,-2.804,-2.773,-2.773,-2.7426,-2.7086,-2.7086,-2.6866,-2.6591,-2.6591,-2.6591,-2.6591,-2.6591,-2.6591,-2.6636,-2.6944,-2.7043,-2.7206,-2.7691,-2.7906,-2.8014,-2.8237,-2.8291,-2.8291,-2.8291,-2.8291,-2.8291,-2.8291,-2.8291,-2.8291,-2.8291,-2.8291,-2.8291,-2.8291,-2.8291,-2.8291,-2.8291,-2.8291,-2.8291,-2.8291,-2.8291,-2.8291,-2.8291,-2.8232,-2.8193,-2.8193,-2.8193,-2.8008,-2.764,-2.7552,-2.7491,-2.735,-2.7331,-2.7372,-2.7452,-2.7452,-2.7403,-2.7309,-2.7309,-2.7309,-1.9691,-2.0008,-1.9923,-2.067,-2.0352,-1.9983,-2.0344,-2.0096,-2.0075,0.0,0.0,0.0,0.0,-2.2977,0.0,0.0,0.0,0.0,0.0,0.0,0.0,0.0,0.0,0.0,0.0,0.0,0.0,0.0,0.0,0.0,0.0,0.0,0.0,0.0,0.0,-2.667,-2.6737,-2.7937,-2.8696,-2.8984,-2.8984,-2.8984,-2.8984,-2.8984,-2.8984,0.0,0.0,0.0,-2.8462,-2.8095,-2.7978,-2.7914,-2.7914,-2.7675,-2.727,-2.727,-2.7013,-2.6683,-2.6683,-2.6637,-2.6591,-2.6591,-2.6591,-2.6591,-2.6591,-2.6591,-2.6636,-2.6944,-2.7152,-2.7377,-2.7431,-2.7862,-2.8237,-2.8291,-2.8291,-2.8291,-2.8291,-2.8291,-2.8291,-2.8291,-2.8291,-2.8291,-2.8291,-2.8291,-2.8291,-2.8291,-2.8291,-2.8291,-2.8291,-2.8291,-2.8291,-2.8291,-2.8291,-2.8291,-2.8291,-2.7969,-2.7816,-2.7816,-2.7816,-2.7568,-2.7139,-2.701,-2.7023,-2.7142,-2.7035,-2.7112,-2.7318,-2.7318,-2.7324,-2.7309,-2.7309,-2.7309,-1.9828,-2.0,-1.9986,-2.1101,-2.1263,-2.1228,-2.1666,-2.1363,-2.1156,0.0,0.0,0.0,0.0,0.0,0.0,0.0,0.0,0.0,0.0,0.0,0.0,0.0,0.0,0.0,0.0,0.0,0.0,0.0,0.0,0.0,0.0,0.0,0.0,0.0,0.0,0.0,-2.638,-2.7029,-2.7624,-2.8101,-2.8275,-2.8324,-2.8324,-2.8324,-2.8324,0.0,0.0,-2.8058,-2.804,-2.7904,-2.7702,-2.7509,-2.7509,-2.7205,-2.6866,-2.6866,-2.6747,-2.6591,-2.6591,-2.6591,-2.6591,-2.6591,-2.6591,-2.6591,-2.6591,-2.6591,-2.6646,-2.6736,-2.6999,-2.726,-2.7584,-2.7853,-2.813,-2.8291,-2.8291,-2.8291,-2.8291,-2.8291,-2.8291,-2.8291,-2.8291,-2.8291,-2.8291,-2.8291,-2.8291,-2.8291,-2.8291,-2.8291,-2.8291,-2.8291,-2.8291,-2.8291,-2.8291,-2.8203,-2.7969,-2.7826,-2.7568,-2.7334,-2.71,-2.6885,-2.668,-2.6488,-2.6447,-2.6544,-2.68,-2.6948,-2.7081,-2.7214,-2.7309,-2.7309,-2.7309,-2.7309,-1.9874,-1.9987,-1.9995,-2.1328,-2.1737,-2.1958,-2.2646,-2.2311,-2.1947,-2.2487,0.0,0.0,0.0,0.0,0.0,0.0,0.0,0.0,0.0,0.0,0.0,0.0,0.0,0.0,0.0,0.0,0.0,0.0,0.0,0.0,0.0,0.0,0.0,0.0,0.0,0.0,-2.6004,-2.6175,-2.6615,-2.7326,-2.7546,-2.7708,-2.7822,-2.7822,-2.7822,-2.7813,-2.7721,-2.7684,-2.7675,-2.7583,-2.7372,-2.704,-2.704,-2.6857,-2.6591,-2.6591,-2.6591,-2.6591,-2.6591,-2.6591,-2.6591,-2.6591,-2.6591,-2.6591,-2.6591,-2.6591,-2.6591,-2.6691,-2.6836,-2.7098,-2.7638,-2.7853,-2.796,-2.8237,-2.8291,-2.8291,-2.8291,-2.8291,-2.8291,-2.8291,-2.8291,-2.8291,-2.8291,-2.8291,-2.8291,-2.8291,-2.8291,-2.8291,-2.8291,-2.8291,-2.8291,-2.8291,-2.8203,-2.793,-2.7464,-2.7415,-2.7178,-2.6748,-2.6416,-2.624,-2.624,-2.6094,-2.6052,-2.61,-2.6496,-2.6747,-2.69,-2.7129,-2.7214,-2.7309,-2.7309,-2.7309,-1.9783,-2.0033,-2.0019,-2.1078,-2.0873,-2.0845,-2.2426,-2.2194,-2.1904,-2.2919,0.0,0.0,0.0,0.0,0.0,0.0,0.0,0.0,0.0,0.0,0.0,0.0,0.0,0.0,0.0,0.0,0.0,0.0,0.0,0.0,0.0,0.0,0.0,0.0,0.0,0.0,-2.4898,-2.5445,-2.6252,-2.7326,-2.7326,-2.7489,-2.7822,-2.7822,-2.7822,-2.7803,-2.7436,-2.7215,-2.7187,-2.682,-2.6655,-2.6628,-2.6628,-2.6619,-2.6591,-2.6591,-2.6591,-2.6591,-2.6591,-2.6591,-2.6591,-2.6591,-2.6591,-2.6591,-2.6591,-2.6591,-2.6636,-2.689,-2.6989,-2.7043,-2.7377,-2.7691,-2.796,-2.8237,-2.8291,-2.8291,-2.8291,-2.8291,-2.8291,-2.8291,-2.8291,-2.8291,-2.8291,-2.8291,-2.8291,-2.8291,-2.8291,-2.8291,-2.8291,-2.8291,-2.8291,-2.8291,-2.7949,-2.7373,-2.6553,-2.6484,-2.6289,-2.5801,-2.5752,-2.5732,-2.5732,-2.5752,-2.5868,-2.61,-2.6149,-2.64,-2.69,-2.69,-2.7081,-2.7309,-2.7309,-2.7309,-1.992,-2.0349,-2.0503,-2.1139,-2.0904,-2.1005,-2.2658,-2.279,-2.2775,-2.3421,-2.3775,0.0,0.0,0.0,0.0,0.0,0.0,0.0,0.0,0.0,0.0,0.0,0.0,0.0,0.0,0.0,0.0,0.0,0.0,0.0,0.0,0.0,0.0,0.0,0.0,0.0,0.0,-2.5183,-2.5719,-2.6299,-2.6707,-2.6929,-2.7031,-2.7031,-2.7031,-2.7031,-2.6875,-2.6811,-2.6802,-2.6646,-2.6591,-2.6591,-2.6591,-2.6591,-2.6591,-2.6591,-2.6591,-2.6591,-2.6591,-2.6591,-2.6591,-2.6591,-2.6591,-2.6591,-2.6591,-2.6591,-2.6636,-2.6745,-2.6736,-2.6899,-2.753,-2.7799,-2.796,-2.8237,-2.8291,-2.8291,-2.8291,-2.8291,-2.8291,-2.8291,-2.8291,-2.8291,-2.8291,-2.8291,-2.8291,-2.8291,-2.8291,-2.8291,-2.8291,-2.8291,-2.8291,-2.8291,-2.7676,-2.7021,-2.6435,-2.6143,-2.5869,-2.5703,-2.5693,-2.5693,-2.5693,-2.5868,-2.6004,-2.61,-2.6448,-2.6699,-2.69,-2.7081,-2.7214,-2.7309,-2.7309,-2.7309,-2.0019,-2.0337,-2.0488,-2.0994,-2.09,-2.1107,-2.264,-2.2931,-2.3075,-2.3795,-2.4254,-2.4592,-2.4646,0.0,0.0,0.0,0.0,0.0,0.0,0.0,0.0,0.0,0.0,0.0,0.0,0.0,0.0,0.0,0.0,0.0,0.0,0.0,0.0,0.0,0.0,0.0,0.0,-2.5183,-2.545,-2.5688,-2.6309,-2.6591,-2.6591,-2.6591,-2.6591,-2.6591,-2.6591,-2.6591,-2.6591,-2.6591,-2.6591,-2.6591,-2.6591,-2.6591,-2.6591,-2.6591,-2.6591,-2.6591,-2.6591,-2.6591,-2.6591,-2.6591,-2.6591,-2.6591,-2.6591,-2.6591,-2.6591,-2.6591,-2.6591,-2.6745,-2.7422,-2.7691,-2.7809,-2.8121,-2.8237,-2.8291,-2.8291,-2.8291,-2.8291,-2.8291,-2.8291,-2.8291,-2.8291,-2.8291,-2.8291,-2.8291,-2.8291,-2.8291,-2.8291,-2.8291,-2.8242,-2.8105,-2.7441,-2.6846,-2.6426,-2.5986,-2.5693,-2.5693,-2.5693,-2.5693,-2.5693,-2.5868,-2.5955,-2.5955,-2.64,-2.6699,-2.6747,-2.7034,-2.7214,-2.7309,-2.7309,-2.7309,-2.0019,-1.9965,-1.9774,-2.051,0.0,0.0,-2.2328,-2.2404,-2.259,-2.3938,-2.4854,-2.5191,-2.4543,0.0,0.0,0.0,0.0,0.0,0.0,0.0,0.0,0.0,0.0,0.0,0.0,0.0,0.0,0.0,0.0,0.0,0.0,0.0,0.0,0.0,0.0,0.0,0.0,-2.5412,-2.5688,-2.5688,-2.6309,-2.6591,-2.6591,-2.6591,-2.6591,-2.6591,-2.6591,-2.6591,-2.6591,-2.6591,-2.6591,-2.6591,-2.6591,-2.6591,-2.6591,-2.6591,-2.6591,-2.6591,-2.6591,-2.6591,-2.6591,-2.6591,-2.6582,-2.6582,-2.6582,-2.6582,-2.6582,-2.6582,-2.6582,-2.6627,-2.6926,-2.7196,-2.7466,-2.7789,-2.8121,-2.8281,-2.8281,-2.8281,-2.8281,-2.8281,-2.8281,-2.8281,-2.8281,-2.8281,-2.8281,-2.8281,-2.8281,-2.8291,-2.8291,-2.8291,-2.8135,-2.7767,-2.7275,-2.6846,-2.6426,-2.5986,-2.5693,-2.5693,-2.5693,-2.5693,-2.5693,-2.5693,-2.5693,-2.5693,-2.5955,-2.6245,-2.6496,-2.6757,-2.7034,-2.7309,-2.7309,-2.7309,-2.011,-2.0419,0.0,-2.069,0.0,0.0,0.0,-2.2555,0.0,0.0,-2.4633,-2.4922,-2.4701,0.0,0.0,0.0,0.0,0.0,0.0,0.0,0.0,0.0,0.0,0.0,0.0,0.0,0.0,0.0,0.0,0.0,0.0,0.0,0.0,0.0,0.0,0.0,0.0,0.0,-2.545,-2.5688,-2.6072,-2.6354,-2.6591,-2.6591,-2.6591,-2.6591,-2.6591,-2.6591,-2.6591,-2.6591,-2.6591,-2.6591,-2.6591,-2.6591,-2.6591,-2.6591,-2.6591,-2.6591,-2.6591,-2.6591,-2.6591,-2.6591,-2.6389,-2.6205,-2.6205,-2.6002,-2.5782,-2.5782,-2.5782,-2.5835,-2.6098,-2.6342,-2.6722,-2.7281,-2.7621,-2.7764,-2.7461,-2.7393,-2.7393,-2.7393,-2.7393,-2.7393,-2.7393,-2.7393,-2.75,-2.7803,-2.7851,-2.7959,-2.8252,-2.8291,-2.8135,-2.7767,-2.7601,-2.7178,-2.6455,-2.6269,-2.6064,-2.5703,-2.5693,-2.5693,-2.5693,-2.5693,-2.5781,-2.5955,-2.6052,-2.6245,-2.6496,-2.6757,-2.6948,-2.7034,-2.7214,-2.7309,-2.0337,-2.069,0.0,-2.097,-2.1212,-2.1645,-2.2525,0.0,0.0,0.0,0.0,0.0,0.0,0.0,0.0,0.0,0.0,0.0,0.0,0.0,0.0,0.0,0.0,0.0,0.0,0.0,0.0,0.0,0.0,0.0,0.0,0.0,0.0,0.0,0.0,0.0,0.0,0.0,0.0,-2.5688,-2.5962,-2.63,-2.6591,-2.6591,-2.6591,-2.6591,-2.6591,-2.6591,-2.6591,-2.6591,-2.6591,-2.6591,-2.6591,-2.6591,-2.6564,-2.6399,-2.6334,-2.6316,-2.616,-2.6105,-2.6105,-2.6105,-2.5931,-2.5773,-2.5773,-2.5607,-2.5424,-2.5424,-2.5424,-2.5476,-2.5735,-2.5985,-2.6342,-2.6849,-2.7185,-2.7334,-2.707,-2.7012,-2.7012,-2.7012,-2.7012,-2.7012,-2.7012,-2.7012,-2.7168,-2.765,-2.7865,-2.8008,-2.8262,-2.8291,-2.8193,-2.7939,-2.7816,-2.7383,-2.6699,-2.6484,-2.6201,-2.5713,-2.5693,-2.5693,-2.5693,-2.5693,-2.5781,-2.5965,-2.6052,-2.6197,-2.6352,-2.6592,-2.6805,-2.69,-2.7081,-2.7225,-2.0654,-2.0744,0.0,-2.1302,-2.1455,0.0,-2.2692,-2.3574,-2.4202,0.0,0.0,0.0,0.0,0.0,0.0,0.0,0.0,0.0,0.0,0.0,0.0,0.0,0.0,0.0,0.0,0.0,0.0,0.0,0.0,0.0,0.0,0.0,0.0,0.0,0.0,0.0,0.0,0.0,0.0,0.0,-2.5962,-2.6245,-2.6591,-2.6591,-2.6591,-2.6591,-2.6591,-2.6591,-2.6582,-2.6545,-2.6536,-2.6527,-2.649,-2.6481,-2.6435,-2.6104,-2.5957,-2.5901,-2.5543,-2.5424,-2.5424,-2.5424,-2.5396,-2.5368,-2.5368,-2.5341,-2.5313,-2.5313,-2.5313,-2.5365,-2.5624,-2.5862,-2.611,-2.6426,-2.672,-2.6943,-2.6904,-2.6894,-2.6894,-2.6894,-2.6894,-2.6894,-2.6894,-2.6894,-2.706,-2.7539,-2.7998,-2.8281,-2.8242,-2.8232,-2.8223,-2.8184,-2.7832,-2.7432,-2.6992,-2.6611,-2.6201,-2.5713,-2.5693,-2.5693,-2.5693,-2.5693,-2.5693,-2.5693,-2.5965,-2.6052,-2.6052,-2.6352,-2.6651,-2.6853,-2.69,-2.7081,-2.0699,-2.0979,0.0,0.0,-2.1998,-2.2647,-2.2867,-2.3574,0.0,0.0,0.0,0.0,0.0,0.0,0.0,0.0,0.0,0.0,0.0,0.0,0.0,0.0,0.0,0.0,0.0,0.0,0.0,0.0,0.0,0.0,0.0,0.0,0.0,0.0,0.0,0.0,-2.4821,-2.4868,-2.5136,0.0,-2.5743,-2.6081,-2.6591,-2.6591,-2.6591,-2.6591,-2.6591,-2.6591,-2.6564,-2.6287,-2.6149,-2.6122,-2.581,-2.5681,-2.5672,-2.558,-2.5552,-2.5534,-2.5451,-2.5424,-2.5424,-2.5424,-2.5212,-2.4913,-2.4913,-2.4735,-2.4459,-2.4459,-2.4459,-2.4509,-2.4709,-2.4799,-2.4998,-2.5454,-2.6071,-2.6435,-2.6035,-2.5966,-2.5966,-2.5966,-2.5966,-2.5966,-2.5966,-2.5966,-2.6269,-2.7041,-2.7803,-2.8174,-2.7894,-2.7855,-2.7666,-2.7324,-2.7207,-2.6982,-2.6562,-2.6435,-2.6201,-2.5713,-2.5693,-2.5693,-2.5693,-2.5693,-2.5693,-2.5693,-2.5781,-2.5781,-2.5781,-2.6255,-2.6554,-2.6602,-2.7034,-2.7262,-2.0934,0.0,0.0,-2.1472,0.0,-2.2657,-2.2858,-2.338,0.0,0.0,0.0,0.0,0.0,0.0,0.0,0.0,0.0,0.0,0.0,0.0,0.0,0.0,0.0,0.0,0.0,0.0,0.0,0.0,0.0,0.0,0.0,0.0,0.0,0.0,0.0,0.0,-2.4821,-2.4821,-2.5026,-2.545,-2.5624,-2.6026,-2.6582,-2.638,-2.6289,-2.6279,-2.6087,-2.6004,-2.5986,-2.5819,-2.5727,-2.5708,-2.5506,-2.5424,-2.5405,-2.5161,-2.5087,-2.5111,-2.4909,-2.4836,-2.4836,-2.4836,-2.4698,-2.4532,-2.4532,-2.4376,-2.4202,-2.4202,-2.4202,-2.4251,-2.443,-2.4587,-2.4784,-2.5186,-2.5604,-2.5858,-2.5742,-2.5693,-2.5693,-2.5693,-2.5693,-2.5693,-2.5693,-2.5908,-2.6201,-2.665,-2.7266,-2.7598,-2.7383,-2.7353,-2.7266,-2.7041,-2.7012,-2.6846,-2.6426,-2.6387,-2.6201,-2.5713,-2.5693,-2.5693,-2.5693,-2.5693,-2.5693,-2.5693,-2.5693,-2.5693,-2.5693,-2.5975,-2.6159,-2.6294,-2.6582,-2.688,-2.1159,0.0,-2.1221,-2.1642,-2.2034,0.0,-2.2721,0.0,0.0,0.0,0.0,0.0,0.0,0.0,0.0,0.0,0.0,0.0,0.0,0.0,0.0,0.0,0.0,0.0,0.0,0.0,0.0,0.0,0.0,0.0,0.0,0.0,0.0,0.0,0.0,-2.5357,-2.4868,-2.4812,-2.497,-2.5276,-2.5679,-2.6136,-2.6573,-2.6205,-2.6058,-2.6104,-2.5773,-2.5635,-2.5573,-2.5552,-2.5525,-2.5515,-2.5451,-2.5424,-2.5387,-2.5056,-2.4886,-2.4882,-2.4532,-2.4413,-2.4413,-2.4413,-2.4413,-2.4413,-2.4413,-2.4413,-2.4413,-2.4413,-2.4413,-2.4463,-2.4653,-2.4845,-2.5036,-2.535,-2.5342,-2.5382,-2.5635,-2.5693,-2.5693,-2.5693,-2.5693,-2.5693,-2.5693,-2.6103,-2.6387,-2.6387,-2.6748,-2.6982,-2.6914,-2.6904,-2.6875,-2.6797,-2.6797,-2.665,-2.6309,-2.6279,-2.6123,-2.5713,-2.5693,-2.5693,-2.5693,-2.5693,-2.5693,-2.5693,-2.5693,-2.5693,-2.5693,-2.5732,-2.5917,-2.6197,-2.6197,-2.6496,0.0,0.0,-2.1696,0.0,-2.2169,-2.2291,0.0,0.0,0.0,0.0,0.0,0.0,0.0,0.0,0.0,0.0,0.0,0.0,0.0,0.0,0.0,0.0,0.0,0.0,0.0,0.0,0.0,0.0,0.0,0.0,0.0,0.0,-2.6127,-2.6072,-2.556,0.0,-2.5174,-2.4923,-2.509,-2.5624,-2.619,-2.6527,-2.6573,-2.6205,-2.6214,-2.6499,-2.6454,-2.6426,-2.6399,-2.6085,-2.5929,-2.5901,-2.5561,-2.5424,-2.5362,-2.5359,-2.5341,-2.5289,-2.5277,-2.5258,-2.5258,-2.5258,-2.5258,-2.5258,-2.5258,-2.5258,-2.5258,-2.5258,-2.5258,-2.531,-2.5577,-2.534,-2.5202,-2.5781,-2.5602,-2.5382,-2.5635,-2.5693,-2.5693,-2.5693,-2.5693,-2.5693,-2.5693,-2.6103,-2.6387,-2.6387,-2.6748,-2.6885,-2.6514,-2.6475,-2.6328,-2.5898,-2.5859,-2.583,-2.5781,-2.5771,-2.5752,-2.5693,-2.5693,-2.5693,-2.5693,-2.5693,-2.5693,-2.5693,-2.5693,-2.5693,-2.5693,-2.5917,-2.6197,-2.6448,-2.6699,-2.6938,-2.115,-2.1642,-2.2132,0.0,-2.2227,-2.2242,0.0,0.0,0.0,0.0,0.0,0.0,0.0,0.0,0.0,0.0,0.0,0.0,0.0,0.0,0.0,0.0,0.0,0.0,0.0,0.0,0.0,0.0,0.0,0.0,0.0,-2.5797,-2.5619,-2.545,-2.5406,0.0,-2.5142,-2.5252,-2.5523,-2.5907,-2.619,-2.6418,-2.6582,-2.6399,-2.6289,-2.6278,-2.6058,-2.5903,-2.5885,-2.5764,-2.5681,-2.5663,-2.5488,-2.5424,-2.5424,-2.5424,-2.5424,-2.5424,-2.5424,-2.5424,-2.5424,-2.5424,-2.5424,-2.5424,-2.5424,-2.5424,-2.5424,-2.5424,-2.5267,-2.5093,-2.5195,-2.5125,-2.5048,-2.5305,-2.5477,-2.5538,-2.5684,-2.5693,-2.5693,-2.5693,-2.5693,-2.5693,-2.5693,-2.5849,-2.6025,-2.6025,-2.6182,-2.623,-2.6045,-2.6025,-2.5947,-2.5703,-2.5693,-2.5693,-2.5693,-2.5693,-2.5693,-2.5693,-2.5693,-2.5693,-2.5693,-2.5693,-2.5693,-2.5693,-2.5693,-2.5693,-2.5693,-2.583,-2.5927,-2.6072,-2.6169,-2.6458,0.0,0.0,-2.2264,-2.2353,-2.2264,-2.218,0.0,0.0,0.0,0.0,0.0,0.0,0.0,0.0,0.0,0.0,0.0,0.0,0.0,0.0,0.0,0.0,0.0,0.0,0.0,0.0,0.0,0.0,0.0,0.0,-2.5424,-2.5424,-2.532,-2.5041,-2.5234,-2.5227,-2.5067,-2.5352,-2.5657,-2.5928,-2.6028,-2.6254,-2.6591,-2.6591,-2.6417,-2.6159,-2.5865,-2.5674,-2.5674,-2.5674,-2.5674,-2.5674,-2.5674,-2.5674,-2.5674,-2.5674,-2.5674,-2.5674,-2.5674,-2.5674,-2.5674,-2.5674,-2.5674,-2.5674,-2.5674,-2.5674,-2.5656,-2.5607,-2.5359,-2.5111,-2.5061,-2.5013,-2.4984,-2.5043,-2.5312,-2.5635,-2.5693,-2.5693,-2.5693,-2.5693,-2.5693,-2.5693,-2.5693,-2.5693,-2.5693,-2.5693,-2.5693,-2.5693,-2.5693,-2.5693,-2.5693,-2.5693,-2.5693,-2.5693,-2.5693,-2.5693,-2.5693,-2.5693,-2.5693,-2.5693,-2.5693,-2.5693,-2.5693,-2.5693,-2.5693,-2.5693,-2.5693,-2.5693,-2.5732,-2.5781,-2.5781,-2.6062,0.0,-2.1562,0.0,-2.2309,0.0,0.0,0.0,0.0,0.0,0.0,0.0,0.0,0.0,0.0,0.0,0.0,0.0,0.0,0.0,0.0,0.0,0.0,0.0,0.0,0.0,0.0,0.0,0.0,0.0,0.0,-2.5424,-2.5424,-2.5372,-2.5372,-2.5111,-2.4911,-2.4902,-2.4929,-2.5136,-2.5523,-2.5835,-2.6197,-2.6591,-2.6591,-2.6582,-2.6554,-2.6536,-2.6527,-2.6527,-2.6527,-2.6527,-2.6527,-2.6527,-2.6527,-2.6527,-2.6527,-2.6527,-2.6527,-2.6527,-2.6527,-2.6527,-2.6527,-2.6527,-2.6527,-2.6527,-2.6527,-2.6444,-2.6094,-2.5966,-2.5918,-2.5758,-2.5433,-2.5157,-2.5478,-2.5433,-2.5382,-2.5645,-2.5693,-2.5693,-2.5693,-2.5693,-2.5693,-2.5693,-2.5693,-2.5693,-2.5693,-2.5693,-2.5693,-2.5693,-2.5693,-2.5693,-2.5693,-2.5693,-2.5693,-2.5693,-2.5693,-2.5693,-2.5693,-2.5693,-2.5693,-2.5693,-2.5693,-2.5693,-2.5693,-2.5693,-2.5693,-2.5693,-2.5693,-2.582,-2.61,-2.61,-2.6245,0.0,0.0,0.0,-2.2309,0.0,0.0,0.0,0.0,0.0,0.0,0.0,0.0,0.0,0.0,0.0,0.0,0.0,0.0,0.0,0.0,0.0,0.0,0.0,0.0,0.0,0.0,0.0,0.0,0.0,0.0,-2.4633,-2.4633,-2.4633,-2.4633,-2.4738,-2.4951,-2.5206,-2.5206,-2.5279,-2.5425,-2.5582,-2.5708,-2.5803,-2.5803,-2.5803,-2.5803,-2.5803,-2.6105,-2.6591,-2.6591,-2.6591,-2.6591,-2.6591,-2.6591,-2.6591,-2.6591,-2.6591,-2.6591,-2.6591,-2.6591,-2.6591,-2.6591,-2.6591,-2.6591,-2.6591,-2.6399,-2.6205,-2.6058,-2.5644,-2.5221,-2.5186,-2.5079,-2.51,-2.5564,-2.5605,-2.5586,-2.5684,-2.5693,-2.5693,-2.5693,-2.5693,-2.5693,-2.5693,-2.5693,-2.5693,-2.5693,-2.5693,-2.5693,-2.5693,-2.5693,-2.5693,-2.5693,-2.5693,-2.5693,-2.5693,-2.5693,-2.5693,-2.5693,-2.5693,-2.5693,-2.5693,-2.5693,-2.5693,-2.5693,-2.5693,-2.5693,-2.5693,-2.5693,-2.5732,-2.582,-2.582,-2.5965,-2.1105,0.0,0.0,0.0,0.0,0.0,0.0,0.0,0.0,0.0,0.0,0.0,0.0,0.0,0.0,0.0,0.0,0.0,0.0,0.0,0.0,0.0,0.0,0.0,0.0,0.0,0.0,0.0,0.0,0.0,-2.4202,-2.4202,-2.4202,-2.4202,-2.4477,-2.4744,-2.501,-2.501,-2.5084,-2.5221,-2.5221,-2.5295,-2.5424,-2.5424,-2.5424,-2.5424,-2.5424,-2.5674,-2.6178,-2.6178,-2.6178,-2.6178,-2.6178,-2.6178,-2.6197,-2.6334,-2.638,-2.6399,-2.6536,-2.6591,-2.6591,-2.6591,-2.6591,-2.6591,-2.6591,-2.6298,-2.5984,-2.5855,-2.5341,-2.4799,-2.4702,-2.4802,-2.503,-2.544,-2.5586,-2.5586,-2.5684,-2.5693,-2.5693,-2.5693,-2.5693,-2.5693,-2.5693,-2.5693,-2.5693,-2.5693,-2.5693,-2.5693,-2.5693,-2.5693,-2.5693,-2.5693,-2.5693,-2.5693,-2.5693,-2.5693,-2.5693,-2.5693,-2.5693,-2.5693,-2.5693,-2.5693,-2.5693,-2.5693,-2.5693,-2.5693,-2.5693,-2.5693,-2.5693,-2.5693,-2.5693,-2.5781,0.0,0.0,0.0,0.0,0.0,0.0,0.0,0.0,0.0,0.0,0.0,0.0,0.0,0.0,0.0,0.0,0.0,0.0,0.0,0.0,0.0,0.0,0.0,0.0,0.0,0.0,0.0,0.0,0.0,-2.4202,-2.4202,-2.4202,-2.4202,-2.4202,-2.4202,-2.4202,-2.4202,-2.4202,-2.4413,-2.4757,-2.4757,-2.4968,-2.5387,-2.5387,-2.5387,-2.5387,-2.5387,-2.5387,-2.5387,-2.5414,-2.5424,-2.5424,-2.5424,-2.5424,-2.547,-2.5855,-2.5993,-2.6048,-2.6408,-2.65,-2.6509,-2.6518,-2.6464,-2.6473,-2.6473,-2.6181,-2.5823,-2.5438,-2.4993,-2.4642,-2.4461,-2.4587,-2.4883,-2.5137,-2.5186,-2.5284,-2.5538,-2.5635,-2.5635,-2.5684,-2.5693,-2.5693,-2.5693,-2.5693,-2.5693,-2.5693,-2.5693,-2.5693,-2.5693,-2.5693,-2.5693,-2.5693,-2.5693,-2.5693,-2.5693,-2.5693,-2.5693,-2.5693,-2.5693,-2.5693,-2.5693,-2.5693,-2.5693,-2.5693,-2.5693,-2.5693,-2.5693,-2.5693,-2.5693,-2.5693,-2.5693,-2.5693,-2.0201,0.0,0.0,0.0,0.0,0.0,0.0,0.0,0.0,0.0,0.0,0.0,0.0,0.0,0.0,0.0,0.0,0.0,0.0,0.0,0.0,0.0,0.0,0.0,0.0,0.0,0.0,0.0,0.0,-2.4202,-2.4202,-2.4202,-2.4202,-2.4202,-2.4202,-2.4202,-2.4202,-2.4202,-2.4266,-2.4376,-2.4376,-2.4431,-2.4542,-2.4542,-2.4542,-2.4542,-2.4542,-2.4542,-2.4587,-2.5176,-2.5424,-2.5424,-2.5424,-2.5424,-2.5433,-2.5543,-2.5589,-2.5441,-2.473,-2.4674,-2.4739,-2.3922,-2.3776,-2.3991,-2.3991,-2.3726,-2.3348,-2.3249,-2.2967,-2.2603,-2.2482,-2.2393,-2.2341,-2.2626,-2.2835,-2.2994,-2.3103,-2.385,-2.4756,-2.5538,-2.5693,-2.5693,-2.5693,-2.5693,-2.5693,-2.5693,-2.5693,-2.5693,-2.5693,-2.5693,-2.5693,-2.5693,-2.5693,-2.5693,-2.5693,-2.5693,-2.5693,-2.5693,-2.5693,-2.5693,-2.5693,-2.5693,-2.5693,-2.5693,-2.5693,-2.5693,-2.5693,-2.5693,-2.5693,-2.5693,-2.5693,-2.5693,-1.9287,-1.9465,0.0,0.0,0.0,0.0,0.0,-2.1611,0.0,0.0,0.0,0.0,0.0,0.0,0.0,0.0,0.0,0.0,0.0,0.0,0.0,0.0,0.0,0.0,0.0,0.0,0.0,0.0,-2.4091,-2.3978,-2.4192,-2.4202,-2.4202,-2.4202,-2.4202,-2.4202,-2.4202,-2.4202,-2.4202,-2.4202,-2.4202,-2.4202,-2.4202,-2.4202,-2.4202,-2.4202,-2.4202,-2.4202,-2.4189,-2.42,-2.4491,-2.4909,-2.4909,-2.4909,-2.4876,-2.4569,-2.4416,-2.4287,-2.3368,-2.3228,-2.3381,-2.2725,-2.2744,-2.2974,-2.2974,-2.272,-2.2379,-2.2379,-2.218,-2.1924,-2.1868,-2.1816,-2.183,-2.1975,-2.2146,-2.2274,-2.2274,-2.3235,-2.4146,-2.4313,-2.5079,-2.5586,-2.5118,-2.5382,-2.5693,-2.5693,-2.5693,-2.5693,-2.5693,-2.5693,-2.5693,-2.5693,-2.5693,-2.5693,-2.5693,-2.5693,-2.5693,-2.5693,-2.5693,-2.5693,-2.5693,-2.5693,-2.5693,-2.5693,-2.5693,-2.5693,-2.5693,-2.5693,-2.5693,-2.5693,-2.5693,-2.5693,-1.7953,-1.8257,-1.85,0.0,0.0,0.0,-2.0734,-2.1213,0.0,0.0,0.0,0.0,0.0,0.0,0.0,0.0,0.0,0.0,0.0,0.0,0.0,0.0,0.0,0.0,0.0,0.0,0.0,-2.3935,-2.357,-2.3511,-2.3962,-2.4088,-2.4106,-2.3994,-2.4003,-2.3945,-2.3845,-2.3845,-2.3845,-2.3845,-2.3845,-2.3845,-2.3845,-2.3845,-2.3845,-2.3845,-2.3845,-2.3845,-2.3737,-2.2728,-2.2987,-2.3994,-2.3895,-2.3845,-2.3732,-2.3099,-2.286,-2.2747,-2.2022,-2.196,-2.223,-2.2065,-2.2323,-2.2587,-2.2587,-2.2361,-2.2056,-2.2056,-2.1908,-2.1742,-2.1742,-2.1934,-2.2089,-2.2083,-2.2166,-2.2179,-2.2173,-2.3005,-2.3488,-2.2341,-2.4066,-2.5382,-2.4452,-2.5069,-2.5693,-2.5693,-2.5693,-2.5693,-2.5693,-2.5693,-2.5693,-2.5693,-2.5693,-2.5693,-2.5693,-2.5693,-2.5693,-2.5693,-2.5693,-2.5693,-2.5693,-2.5693,-2.5693,-2.5693,-2.5693,-2.5693,-2.5693,-2.5693,-2.5693,-2.5693,-2.5693,-2.5693,0.0,0.0,0.0,0.0,0.0,0.0,-1.8961,-1.9188,0.0,0.0,0.0,0.0,0.0,0.0,0.0,0.0,0.0,0.0,0.0,0.0,0.0,0.0,0.0,0.0,0.0,0.0,-2.3317,-2.1835,-2.1996,-2.2307,-2.2743,-2.3307,-2.3412,-2.287,-2.2828,-2.2426,-2.1548,-2.1548,-2.1548,-2.1548,-2.1548,-2.1548,-2.1548,-2.1548,-2.1548,-2.1548,-2.1548,-2.1548,-2.1548,-2.1293,-2.1861,-2.2728,-2.1853,-2.1548,-2.1505,-2.1374,-2.1348,-2.1202,-2.0119,-2.0111,-2.0453,-1.9548,-1.9653,-2.0104,-2.0104,-2.0063,-2.0007,-2.0007,-1.9785,-1.9549,-1.9549,-1.9577,-1.9592,-1.959,-1.995,-2.0234,-1.9976,-2.1,-2.153,-2.0183,-2.3061,-2.5635,-2.543,-2.5586,-2.5693,-2.5693,-2.5693,-2.5693,-2.5693,-2.5693,-2.5693,-2.5693,-2.5693,-2.5693,-2.5693,-2.5693,-2.5693,-2.5693,-2.5693,-2.5693,-2.5693,-2.5693,-2.5693,-2.5693,-2.5693,-2.5693,-2.5693,-2.5693,-2.5693,-2.5693,-2.5693,-2.5693,0.0,0.0,0.0,-1.729,0.0,0.0,0.0,-1.8621,0.0,0.0,0.0,0.0,0.0,0.0,0.0,0.0,0.0,0.0,0.0,0.0,0.0,0.0,0.0,0.0,0.0,0.0,-2.229,-2.1418,-2.1618,-2.1657,-2.1419,-2.1622,-2.1646,-2.147,-2.1428,-2.1267,-2.0877,-2.0885,-2.0885,-2.0885,-2.0885,-2.0885,-2.0885,-2.0885,-2.0885,-2.0885,-2.0885,-2.0885,-2.0885,-2.0313,-2.0364,-2.0877,-2.0885,-2.0885,-2.0834,-2.0261,-2.0055,-1.9901,-1.8767,-1.8814,-1.9229,-1.865,-1.8891,-1.9424,-1.9424,-1.9424,-1.9424,-1.9424,-1.9259,-1.9145,-1.9145,-1.9259,-1.9323,-1.934,-1.9695,-2.0005,-1.9798,-2.0727,-2.1357,-2.0504,-2.2528,-2.4145,-2.3447,-2.4205,-2.4716,-2.4165,-2.502,-2.5333,-2.4264,-2.503,-2.5479,-2.4962,-2.5382,-2.5693,-2.5693,-2.5693,-2.5693,-2.5693,-2.5693,-2.5693,-2.5693,-2.5693,-2.5693,-2.5693,-2.5693,-2.5693,-2.5693,-2.5693,-2.5693,-2.5693,-2.5693,-2.5693,0.0,0.0,0.0,0.0,0.0,-1.7384,0.0,0.0,0.0,0.0,0.0,0.0,0.0,0.0,0.0,0.0,0.0,0.0,0.0,0.0,0.0,0.0,0.0,0.0,0.0,0.0,-2.0741,-2.1055,-2.1126,-2.0802,-2.0119,-1.9934,-1.99,-2.0001,-2.0009,-2.0073,-2.0169,-2.0169,-2.02,-2.0261,-2.0261,-2.0261,-2.0261,-2.0261,-2.0261,-2.0261,-2.0261,-2.0261,-2.021,-1.928,-1.8864,-1.8968,-1.9908,-2.0261,-2.0166,-1.9228,-1.8864,-1.8767,-1.7891,-1.7983,-1.849,-1.849,-1.8891,-1.9424,-1.9424,-1.9424,-1.9424,-1.9424,-1.9424,-1.9424,-1.9424,-1.9591,-1.9811,-1.9785,-2.0083,-2.0286,-2.0123,-2.0796,-2.1333,-2.1046,-2.1768,-2.2144,-2.1358,-2.2634,-2.3493,-2.2634,-2.3958,-2.4461,-2.2743,-2.4007,-2.4766,-2.389,-2.4559,-2.5079,-2.5079,-2.5079,-2.5079,-2.5079,-2.5079,-2.5079,-2.5079,-2.5274,-2.5479,-2.5693,-2.5693,-2.5693,-2.5693,-2.5693,-2.5693,-2.5693,-2.5693,-2.5693,0.0,0.0,0.0,0.0,-1.673,0.0,0.0,0.0,0.0,0.0,0.0,0.0,0.0,0.0,0.0,0.0,0.0,0.0,0.0,0.0,0.0,0.0,0.0,0.0,0.0,0.0,0.0,-1.9074,-1.8929,-1.8824,-1.8892,-1.9281,-1.9191,-1.8617,-1.8632,-1.8289,-1.7651,-1.7606,-1.7736,-1.7996,-1.7996,-1.7996,-1.7996,-1.7996,-1.7996,-1.7996,-1.7996,-1.7996,-1.7943,-1.7838,-1.7786,-1.7793,-1.7943,-1.7996,-1.7943,-1.7838,-1.7786,-1.7733,-1.7635,-1.7983,-1.849,-1.849,-1.8891,-1.9424,-1.9424,-1.9424,-1.9424,-1.9424,-1.9424,-1.9424,-1.9424,-1.9591,-1.9802,-1.9774,-2.0049,-2.0194,-1.9935,-1.992,-1.9933,-1.9614,-1.9899,-2.0612,-2.2054,-2.2534,-2.2634,-2.2534,-2.2693,-2.2793,-2.2542,-2.2693,-2.2844,-2.2685,-2.2793,-2.2844,-2.2844,-2.2844,-2.2844,-2.2844,-2.2844,-2.2844,-2.2844,-2.3791,-2.4707,-2.5684,-2.5693,-2.5693,-2.5693,-2.5693,-2.5693,-2.5693,-2.5693,-2.5693,0.0,0.0,0.0,0.0,0.0,0.0,0.0,0.0,-1.6689,0.0,0.0,0.0,0.0,0.0,0.0,0.0,0.0,0.0,0.0,0.0,0.0,0.0,0.0,0.0,0.0,0.0,0.0,0.0,0.0,-1.8078,-1.7293,-1.7286,-1.728,-1.7169,-1.7183,-1.7083,-1.6887,-1.7112,-1.7266,-1.7387,-1.7554,-1.7582,-1.7582,-1.7582,-1.7582,-1.7582,-1.7582,-1.7582,-1.7582,-1.7582,-1.7582,-1.7582,-1.7582,-1.7582,-1.7582,-1.7582,-1.7582,-1.7582,-1.7582,-1.7983,-1.8544,-1.8891,-1.9165,-1.9424,-1.9424,-1.9424,-1.9424,-1.9424,-1.9424,-1.9424,-1.9424,-1.9591,-1.9815,-1.9815,-2.0046,-2.0235,-2.0102,-2.0081,-2.0047,-1.9913,-1.9975,-2.0321,-2.1054,-2.1531,-2.158,-2.0763,-2.1684,-2.2038,-2.0783,-2.1735,-2.224,-2.1633,-2.2139,-2.2484,-2.2484,-2.2484,-2.2484,-2.2484,-2.2484,-2.2484,-2.2484,-2.2935,-2.3393,-2.385,-2.3859,-2.4156,-2.4756,-2.4756,-2.5069,-2.5693,-2.5693,-2.5693,-1.6814,0.0,0.0,0.0,0.0,0.0,0.0,0.0,0.0,0.0,0.0,0.0,0.0,0.0,0.0,0.0,0.0,0.0,0.0,0.0,0.0,0.0,0.0,0.0,0.0,0.0,0.0,0.0,-1.7873,0.0,-1.6353,-1.5974,-1.5925,-1.6146,-1.6152,-1.6293,-1.6587,-1.6851,-1.7038,-1.7206,-1.7414,-1.7508,-1.7582,-1.7582,-1.7582,-1.7582,-1.7582,-1.7582,-1.7582,-1.7582,-1.7582,-1.7582,-1.7582,-1.7582,-1.7582,-1.7582,-1.7582,-1.7582,-1.7582,-1.7983,-1.8591,-1.9178,-1.9424,-1.9424,-1.9424,-1.9424,-1.9424,-1.9424,-1.9424,-1.9424,-1.9424,-1.9533,-1.97,-1.97,-1.9873,-2.0046,-2.0046,-2.0046,-2.0099,-2.0168,-2.0238,-2.0308,-2.0262,-2.0679,-2.0741,-1.9677,-2.0789,-2.1182,-1.9665,-2.0692,-2.1336,-2.0534,-2.1132,-2.1633,-2.1633,-2.1633,-2.1633,-2.1633,-2.1633,-2.1735,-2.2038,-2.2038,-2.2341,-2.2944,-2.2935,-2.3493,-2.455,-2.455,-2.4962,-2.5693,-2.5693,-2.5693,0.0,0.0,0.0,-1.6866,0.0,0.0,0.0,0.0,-1.6476,0.0,0.0,0.0,0.0,0.0,-1.6689,-1.6689,0.0,0.0,0.0,0.0,0.0,0.0,0.0,0.0,0.0,0.0,0.0,0.0,-1.6857,0.0,-1.6615,-1.6109,-1.5784,-1.5798,-1.5798,-1.5985,-1.6335,-1.6342,-1.6636,-1.7199,-1.7213,-1.7367,-1.7582,-1.7582,-1.7582,-1.7582,-1.7582,-1.7582,-1.7582,-1.7582,-1.7582,-1.7582,-1.7582,-1.7582,-1.7582,-1.7582,-1.7582,-1.7582,-1.7582,-1.7983,-1.8591,-1.9178,-1.9424,-1.9424,-1.9424,-1.9424,-1.9424,-1.9424,-1.9424,-1.9424,-1.9424,-1.9424,-1.9424,-1.9424,-1.9424,-1.9424,-1.9424,-1.9424,-1.9533,-1.9744,-2.009,-2.028,-2.0322,-2.0277,-2.0216,-2.0208,-1.9999,-1.9847,-1.9801,-1.9574,-1.9376,-1.9324,-1.9376,-1.9376,-1.9376,-1.9376,-1.9376,-1.9376,-1.9376,-1.9879,-2.0885,-2.0936,-2.1937,-2.3989,-2.4038,-2.4599,-2.5635,-2.5635,-2.5684,-2.5693,-2.5693,-2.5693,0.0,0.0,-1.6011,-1.6862,0.0,0.0,0.0,0.0,0.0,0.0,0.0,0.0,0.0,0.0,-1.6689,-1.6689,-1.6689,-1.6697,0.0,0.0,0.0,0.0,0.0,0.0,0.0,0.0,0.0,-1.6081,-1.6228,-1.6169,0.0,-1.5819,-1.5784,-1.5784,-1.5784,-1.5831,-1.5979,-1.6172,-1.6422,-1.6623,-1.7012,-1.7253,-1.7353,-1.7495,-1.7582,-1.7582,-1.7582,-1.7582,-1.7582,-1.7582,-1.7582,-1.7582,-1.7582,-1.7582,-1.7582,-1.7582,-1.7582,-1.7609,-1.7816,-1.815,-1.8557,-1.8951,-1.9205,-1.9424,-1.9424,-1.9424,-1.9424,-1.9424,-1.9424,-1.9424,-1.9424,-1.9424,-1.9424,-1.9424,-1.9424,-1.9424,-1.9424,-1.9424,-1.9421,-1.9505,-1.9635,-1.9709,-1.9681,-1.9706,-1.9721,-1.9898,-1.9645,-1.9492,-1.9492,-1.9345,-1.9279,-1.9279,-1.9279,-1.9279,-1.9279,-1.9279,-1.9279,-1.9279,-1.9279,-1.948,-1.9835,-1.9828,-2.0181,-2.0885,-2.0936,-2.1438,-2.2501,-2.2501,-2.2902,-2.3601,-2.3601,-2.4313,-1.638,-1.6102,0.0,0.0,-1.6416,0.0,-1.6646,0.0,0.0,0.0,0.0,0.0,0.0,0.0,-1.6607,-1.6607,-1.6607,-1.6566,0.0,-1.6245,0.0,0.0,0.0,0.0,0.0,0.0,-1.6206,-1.5629,-1.585,-1.5882,0.0,0.0,-1.5718,-1.5778,-1.5784,-1.5784,-1.5784,-1.6019,-1.6166,-1.6279,-1.6703,-1.6998,-1.7206,-1.7393,-1.7482,-1.7582,-1.7582,-1.7582,-1.7582,-1.7582,-1.7582,-1.7582,-1.7582,-1.7582,-1.7582,-1.7582,-1.7582,-1.7622,-1.7889,-1.8115,-1.8397,-1.8798,-1.9052,-1.9232,-1.9332,-1.9424,-1.9403,-1.9239,-1.9285,-1.9339,-1.9239,-1.9292,-1.9339,-1.9232,-1.9205,-1.9178,-1.9078,-1.9058,-1.9112,-1.9192,-1.9207,-1.9257,-1.9388,-1.9317,-1.9375,-1.9722,-1.9493,-1.9342,-1.9447,-1.9345,-1.9279,-1.9279,-1.9279,-1.9279,-1.9279,-1.9279,-1.9279,-1.9279,-1.9279,-1.9279,-1.9279,-1.9279,-1.948,-1.9879,-1.9879,-2.038,-2.1489,-2.1489,-2.1836,-2.2484,-2.2484,-2.3244]}]]